[[{"header":{"parameterUnit":"m.s-1","parameterCategory":1,"la1":31.0,"la2":29.5877,"lo1":-88.7671,"lo2":-86.6584,"dy":0.0162,"dx":0.0185,"nx":115,"ny":88,"refTime":"2023-04-19T06:00:00:Z","depth":0,"parameterNumber":2,"parameterNumberName":"U-component_of_WINDS"},"data":[0.0,0.0,0.0,0.0,0.0,0.0,0.0,0.0,0.0,0.0,0.0,0.0,0.0,0.0,0.0,0.0,0.0,0.0,0.0,0.0,0.0,0.0,0.0,0.0,0.0,0.0,0.0,0.0,0.0,0.0,0.0,0.0,0.0,0.0,0.0,0.0,0.0,0.0,0.0,0.0,0.0,0.0,0.0,0.0,0.0,0.0,0.0,0.0,0.0,0.0,0.0,0.0,0.0,0.0,0.0,0.0,0.0,0.0,0.0,0.0,0.0,0.0,0.0,0.0,0.0,0.0,0.0,0.0,0.0,0.0,0.0,0.0,0.0,0.0,0.0,0.0,0.0,0.0,0.0,0.0,0.0,0.0,0.0,0.0,0.0,0.0,0.0,0.0,0.0,0.0,0.0,0.0,0.0,0.0,0.0,0.0,0.0,0.0,0.0,0.0,0.0,0.0,0.0,0.0,0.0,0.0,0.0,0.0,0.0,0.0,0.0,0.0,0.0,0.0,0.0,0.0,0.0,0.0,0.0,0.0,0.0,0.0,0.0,0.0,0.0,0.0,0.0,0.0,0.0,0.0,0.0,0.0,0.0,0.0,0.0,0.0,0.0,0.0,0.0,0.0,0.0,0.0,0.0,0.0,0.0,0.0,0.0,0.0,0.0,0.0,0.0,0.0,0.0,0.0,0.0,0.0,0.0,0.0,0.0,0.0,0.0,0.0,0.0,0.0,0.0,0.0,0.0,0.0,0.0,0.0,0.0,0.0,0.0,0.0,0.0,0.0,0.0,0.0,0.0,0.0,0.0,0.0,0.0,0.0,0.0,0.0,0.0,0.0,0.0,0.0,0.0,0.0,0.0,0.0,0.0,0.0,0.0,0.0,0.0,0.0,0.0,0.0,0.0,0.0,0.0,0.0,0.0,0.0,0.0,0.0,0.0,0.0,0.0,0.0,0.0,0.0,0.0,0.0,0.0,0.0,0.0,0.0,0.0,0.0,0.0,0.0,0.0,0.0,0.0,0.0,0.0,0.0,0.0,0.0,0.0,0.0,0.0,0.0,0.0,0.0,0.0,0.0,0.0,0.0,0.0,0.0,0.0,0.0,0.0,0.0,0.0,0.0,0.0,0.0,0.0,0.0,0.0,0.0,0.0,0.0,0.0,0.0,0.0,0.0,0.0,0.0,0.0,0.0,0.0,0.0,0.0,0.0,0.0,0.0,0.0,0.0,0.0,0.0,0.0,0.0,0.0,0.0,0.0,0.0,0.0,0.0,0.0,0.0,0.0,0.0,0.0,0.0,0.0,0.0,0.0,0.0,0.0,0.0,0.0,0.0,0.0,0.0,0.0,0.0,0.0,0.0,0.0,0.0,0.0,0.0,0.0,0.0,0.0,0.0,0.0,0.0,0.0,0.0,0.0,0.0,0.0,0.0,0.0,0.0,0.0,0.0,0.0,0.0,0.0,0.0,0.0,0.0,0.0,0.0,0.0,0.0,0.0,0.0,0.0,0.0,0.0,0.0,0.0,0.0,0.0,0.0,0.0,0.0,0.0,0.0,0.0,0.0,0.0,0.0,0.0,0.0,0.0,0.0,0.0,0.0,0.0,0.0,0.0,0.0,0.0,0.0,0.0,0.0,0.0,0.0,0.0,0.0,0.0,0.0,0.0,0.0,0.0,0.0,0.0,0.0,0.0,0.0,0.0,0.0,0.0,0.0,0.0,0.0,0.0,0.0,0.0,0.0,0.0,0.0,0.0,0.0,0.0,0.0,0.0,0.0,0.0,0.0,0.0,0.0,0.0,0.0,0.0,0.0,0.0,0.0,0.0,0.0,0.0,0.0,0.0,0.0,0.0,0.0,0.0,0.0,0.0,0.0,0.0,0.0,0.0,0.0,0.0,0.0,0.0,0.0,0.0,0.0,0.0,0.0,0.0,0.0,0.0,0.0,0.0,0.0,0.0,0.0,0.0,0.0,0.0,0.0,0.0,0.0,0.0,0.0,0.0,0.0,0.0,0.0,0.0,0.0,0.0,0.0,0.0,0.0,0.0,0.0,0.0,0.0,0.0,0.0,0.0,0.0,0.0,0.0,0.0,0.0,0.0,0.0,0.0,0.0,0.0,0.0,0.0,0.0,0.0,0.0,0.0,0.0,0.0,0.0,0.0,0.0,0.0,0.0,0.0,0.0,0.0,0.0,0.0,0.0,0.0,0.0,0.0,0.0,0.0,0.0,0.0,0.0,0.0,0.0,0.0,0.0,0.0,0.0,0.0,0.0,0.0,0.0,0.0,0.0,0.0,0.0,0.0,0.0,0.0,0.0,0.0,0.0,0.0,0.0,0.0,0.0,0.0,0.0,0.0,0.0,0.0,0.0,0.0,0.0,0.0,0.0,0.0,0.0,0.0,0.0,0.0,0.0,0.0,0.0,0.0,0.0,0.0,0.0,0.0,0.0,0.0,0.0,0.0,0.0,0.0,0.0,0.0,0.0,0.0,0.0,0.0,0.0,0.0,0.0,0.0,0.0,0.0,0.0,0.0,0.0,0.0,0.0,0.0,0.0,0.0,0.0,0.0,0.0,0.0,0.0,0.0,0.0,0.0,0.0,0.0,0.0,0.0,0.0,0.0,0.0,0.0,0.0,0.0,0.0,0.0,0.0,0.0,0.0,0.0,0.0,0.0,0.0,0.0,0.0,0.0,0.0,0.0,0.0,0.0,0.0,0.0,0.0,0.0,0.0,0.0,0.0,0.0,0.0,0.0,0.0,0.0,0.0,0.0,0.0,0.0,0.0,0.0,0.0,0.0,0.0,0.0,0.0,0.0,0.0,0.0,0.0,0.0,0.0,0.0,0.0,0.0,0.0,0.0,0.0,0.0,0.0,0.0,0.0,0.0,0.0,0.0,0.0,0.0,0.0,0.0,0.0,0.0,0.0,0.0,0.0,0.0,0.0,0.0,0.0,0.0,0.0,0.0,0.0,0.0,0.0,0.0,0.0,0.0,0.0,0.0,0.0,0.0,0.0,0.0,0.0,0.0,0.0,0.0,0.0,0.0,0.0,0.0,0.0,0.0,0.0,0.0,0.0,0.0,0.0,0.0,0.0,0.0,0.0,0.0,0.0,0.0,0.0,0.0,0.0,0.0,0.0,0.0,0.0,0.0,0.0,0.0,0.0,0.0,0.0,0.0,0.0,0.0,0.0,0.0,0.0,0.0,0.0,0.0,0.0,0.0,0.0,0.0,0.0,0.0,0.0,0.0,0.0,0.0,0.0,0.0,0.0,0.0,0.0,0.0,0.0,0.0,0.0,0.0,0.0,0.0,0.0,0.0,0.0,0.0,0.0,0.0,0.0,0.0,0.0,0.0,0.0,0.0,0.0,0.0,0.0,0.0,0.0,0.0,0.0,0.0,0.0,0.0,0.0,0.0,0.0,0.0,0.0,0.0,0.0,0.0,0.0,0.0,0.0,0.0,0.0,0.0,0.0,0.0,0.0,0.0,0.0,0.0,0.0,0.0,0.0,0.0,0.0,0.0,0.0,0.0,0.0,0.0,0.0,0.0,0.0,0.0,0.0,0.0,0.0,0.0,0.0,0.0,0.0,0.0,0.0,0.0,0.0,0.0,0.0,0.0,0.0,0.0,0.0,0.0,0.0,0.0,0.0,0.0,0.0,0.0,0.0,0.0,0.0,0.0,0.0,0.0,0.0,0.0,0.0,0.0,0.0,0.0,0.0,0.0,0.0,0.0,0.0,0.0,0.0,0.0,0.0,0.0,0.0,0.0,0.0,0.0,0.0,0.0,0.0,0.0,0.0,0.0,0.0,0.0,0.0,0.0,0.0,0.0,0.0,0.0,0.0,0.0,0.0,0.0,0.0,0.0,0.0,0.0,0.0,0.0,0.0,0.0,0.0,0.0,0.0,0.0,0.0,0.0,0.0,0.0,0.0,0.0,0.0,0.0,0.0,0.0,0.0,0.0,0.0,0.0,0.0,0.0,0.0,0.0,0.0,0.0,0.0,0.0,0.0,0.0,0.0,0.0,0.0,0.0,0.0,0.0,0.0,0.0,0.0,0.0,0.0,0.0,0.0,0.0,0.0,0.0,0.0,0.0,0.0,0.0,0.0,0.0,0.0,0.0,0.0,0.0,0.0,0.0,0.0,0.0,0.0,0.0,0.0,0.0,0.0,0.0,0.0,0.0,0.0,0.0,0.0,0.0,0.0,0.0,0.0,0.0,0.0,0.0,0.0,0.0,0.0,0.0,0.0,0.0,0.0,0.0,0.0,0.0,0.0,-0.3266,0.0,0.0,0.0,0.0,0.0,0.0,0.0,0.0,0.0,0.0,0.0,0.0,0.0,0.0,0.0,0.0,0.0,0.0,0.0,0.0,0.0,0.0,0.0,0.0,0.0,0.0,0.0,0.0,0.0,0.0,0.0,0.0,0.0,0.0,0.0,0.0,0.0,0.0,0.0,0.0,0.0,0.0,0.0,0.0,0.0,0.0,0.0,0.0,0.0,0.0,0.0,0.0,0.0,0.0,0.0,0.0,0.0,0.0,0.0,0.0,0.0,0.0,0.0,0.0,0.0,0.0,0.0,0.0,0.0,0.0,0.0,0.0,0.0,0.0,0.0,0.0,0.0,0.0,0.0,0.0,0.0,0.0,0.0,0.0,0.0,0.0,0.0,0.0,0.0,0.0,0.0,0.0,0.0,0.0,0.0,0.0,0.0,0.0,0.0,0.0,0.0,0.0,0.0,0.0,0.0,0.0,0.0,0.0,0.0,0.0,-0.0603,-0.1327,-0.1939,-0.2642,-0.3394,0.0,0.0,0.0,0.0,0.0,0.0,0.0,0.0,0.0,0.0,0.0,0.0,0.0,0.0,0.0,0.0,0.0,0.0,0.0,0.0,0.0,0.0,0.0,0.0,0.0,0.0,0.0,0.0,0.0,0.0,0.0,0.0,0.0,0.0,0.0,0.0,0.0,0.0,0.0,0.0,0.0,0.0,0.0,0.0,0.0,0.0,0.0,0.0,0.0,0.0,0.0,0.0,0.0,0.0,0.0,0.0,0.0,0.0,0.0,0.0,0.0,0.0,0.0,0.0,0.0,0.0,0.0,0.0,0.0,0.0,0.0,0.0,0.0,0.0,0.0,0.0,0.0,0.0,0.0,0.0,0.0,0.0,0.0,0.0,0.0,0.0,0.0,0.0,0.0,0.0,0.0,0.0,0.0,0.0,0.0,0.0,0.0,0.0,0.0,0.0,0.0,0.0,0.0,0.0,0.0,0.0,0.0,0.0,0.0,0.0,0.0,0.0,-0.2158,-0.2956,-0.3704,0.0,0.0,0.0,0.0,0.0,0.0,0.0,0.0,0.0,0.0,0.0,0.0,0.0,0.0,0.0,0.0,0.0,0.0,0.0,0.0,0.0,0.0,0.0,0.0,0.0,0.0,0.0,0.0,0.0,0.0,0.0,0.0,0.0,0.0,0.0,0.0,0.0,0.0,0.0,0.0,0.0,0.0,0.0,0.0,0.0,0.0,0.0,0.0,0.0,0.0,0.0,0.0,0.0,0.0,0.0,0.0,0.0,0.0,0.0,0.0,0.0,0.0,0.0,0.0,0.0,0.0,0.0,0.0,0.0,0.0,0.0,0.0,0.0,0.0,0.0,0.0,0.0,0.0,0.0,0.0,0.0,0.0,0.0,0.0,0.0,0.0,0.0,0.0,0.0,0.0,0.0,0.0,0.0,0.0,0.0,0.0,0.0,0.0,0.0,0.0,0.0,0.0,0.0,0.0,0.0,0.0,0.0,0.0,0.0,0.0,-0.0921,-0.1637,-0.2456,0.0,-0.432,0.0,0.0,0.0,0.0,0.0,0.0,0.0,0.0,0.0,0.0,0.0,0.0,0.0,0.0,0.0,0.0,0.0,0.0,0.0,0.0,0.0,0.0,0.0,0.0,0.0,0.0,0.0,0.0,0.0,0.0,0.0,0.0,0.0,0.0,0.0,0.0,0.0,0.0,0.0,0.0,0.0,0.0,0.0,0.0,0.0,0.0,0.0,0.0,0.0,0.0,0.0,0.0,0.0,0.0,0.0,0.0,0.0,0.0,0.0,0.0,0.0,0.0,0.0,0.0,0.0,0.0,0.0,0.0,0.0,0.0,0.0,0.0,0.0,0.0,0.0,0.0,0.0,0.0,0.0,0.0,0.0,0.0,0.0,0.0,0.0,0.0,0.0,0.0,0.0,0.0,0.0,0.0,0.0,0.0,0.0,0.0,0.0,0.0,0.0,0.0,0.0,0.0,0.0,0.0,0.0,0.0,0.0,0.0,0.0,0.0,-0.1133,-0.1984,-0.293,-0.3672,0.0,0.0,0.0,0.0,0.0,0.0,0.0,0.0,0.0,0.0,0.0,0.0,0.0,0.0,0.0,0.0,0.0,0.0,0.0,0.0,0.0,0.0,0.0,0.0,0.0,0.0,0.0,0.0,0.0,0.0,0.0,0.0,0.0,0.0,0.0,0.0,0.0,0.0,0.0,0.0,0.0,0.0,0.0,0.0,0.0,0.0,0.0,0.0,0.0,0.0,0.0,0.0,0.0,0.0,0.0,0.0,0.0,0.0,0.0,0.0,0.0,0.0,0.0,0.0,0.0,0.0,0.0,0.0,0.0,0.0,0.0,0.0,0.0,0.0,0.0,0.0,0.0,0.0,0.0,0.0,0.0,0.0,0.0,0.0,0.0,0.0,0.0,0.0,0.0,0.0,0.0,0.0,0.0,0.0,0.0,0.0,0.0,0.0,0.0,0.0,0.0,0.0,0.0,0.0,0.0,0.0,0.0,0.0,0.0,0.0,-0.063,-0.1442,-0.2513,-0.3284,-0.3774,-0.4046,0.0,0.0,0.0,0.0,0.0,0.0,0.0,0.0,0.0,0.0,0.0,0.0,0.0,0.0,0.0,0.0,0.0,0.0,0.0,0.0,0.0,0.0,0.0,0.0,0.0,0.0,0.0,0.0,0.0,0.0,0.0,0.0,0.0,0.0,0.0,0.0,0.0,0.0,0.0,0.0,0.0,0.0,0.0,0.0,0.0,0.0,0.0,0.0,0.0,0.0,0.0,0.0,0.0,0.0,0.0,0.0,0.0,0.0,0.0,0.0,0.0,0.0,0.0,0.0,0.0,0.0,0.0,0.0,0.0,0.0,0.0,0.0,0.0,0.0,0.0,0.0,0.0,0.0,0.0,0.0,0.0,0.0,0.0,0.0,0.0,0.0,0.0,0.0,0.0,0.0,0.0,0.0,0.0,0.0,0.0,0.0,0.0,0.0,0.0,0.0,0.0,0.0,0.0,0.0,0.0,0.0,0.0,0.0,-0.0374,-0.0919,-0.1913,-0.3356,-0.3367,-0.3602,0.0,0.0,0.0,0.0,0.0,0.0,0.0,0.0,0.0,0.0,0.0,0.0,0.0,0.0,0.0,0.0,0.0,0.0,0.0,0.0,0.0,0.0,0.0,0.0,0.0,0.0,0.0,0.0,0.0,0.0,0.0,0.0,0.0,0.0,0.0,0.0,0.0,0.0,0.0,0.0,0.0,0.0,0.0,0.0,0.0,0.0,0.0,0.0,0.0,0.0,0.0,0.0,0.0,0.0,0.0,0.0,0.0,0.0,0.0,0.0,0.0,0.0,0.0,0.0,0.0,0.0,0.0,0.0,0.0,0.0,0.0,0.0,0.0,0.0,0.0,0.0,0.0,0.0,0.0,0.0,0.0,0.0,0.0,0.0,0.0,0.0,0.0,0.0,0.0,0.0,0.0,0.0,0.0,0.0,0.0,0.0,0.0,0.0,0.0,0.0,0.0,0.0,0.0,0.0,0.0,0.0,0.0,0.0,0.0,-0.0406,-0.1559,-0.2577,-0.3402,-0.3599,-0.3813,0.0,0.0,0.0,0.0,0.0,0.0,0.0,0.0,0.0,0.0,0.0,0.0,0.0,0.0,0.0,0.0,0.0,0.0,0.0,0.0,0.0,0.0,0.0,0.0,0.0,0.0,0.0,0.0,0.0,0.0,0.0,0.0,0.0,0.0,0.0,0.0,0.0,0.0,0.0,0.0,0.0,0.0,0.0,0.0,0.0,0.0,0.0,0.0,0.0,0.0,0.0,0.0,0.0,0.0,0.0,0.0,0.0,0.0,0.0,0.0,0.0,0.0,0.0,0.0,0.0,0.0,0.0,0.0,0.0,0.0,0.0,0.0,0.0,0.0,0.0,0.0,0.0,0.0,0.0,0.0,0.0,0.0,0.0,0.0,0.0,0.0,0.0,0.0,0.0,0.0,0.0,0.0,0.0,0.0,0.0,0.0,0.0,0.0,0.0,0.0,0.0,0.0,0.0,0.0,0.0,0.0,0.0,0.0,0.0,-0.0724,0.0,-0.2871,-0.3294,-0.3616,-0.3857,0.0,0.0,0.0,0.0,0.0,0.0,0.0,0.0,0.0,0.0,0.0,0.0,0.0,0.0,0.0,0.0,0.0,0.0,0.0,0.0,0.0,0.0,0.0,0.0,0.0,0.0,0.0,0.0,0.0,0.0,0.0,0.0,0.0,0.0,0.0,0.0,0.0,0.0,0.0,0.0,0.0,0.0,0.0,0.0,0.0,0.0,0.0,0.0,0.0,0.0,0.0,0.0,0.0,0.0,0.0,0.0,0.0,0.0,0.0,0.0,0.0,0.0,0.0,0.0,0.0,0.0,0.0,0.0,0.0,0.0,0.0,0.0,0.0,0.0,0.0,0.0,0.0,0.0,0.0,0.0,0.0,0.0,0.0,0.0,0.0,0.0,0.0,0.0,0.0,0.0,0.0,0.0,0.0,0.0,0.0,0.0,0.0,0.0,0.0,0.0,0.0,0.0,0.0,0.0,0.0,0.0,0.0,0.0,-0.0477,-0.1377,-0.219,-0.279,-0.3111,-0.3382,-0.3693,0.0,0.0,0.0,0.0,0.0,0.0,0.0,0.0,0.0,0.0,0.0,0.0,0.0,0.0,0.0,0.0,0.0,0.0,0.0,0.0,0.0,0.0,0.0,0.0,0.0,0.0,0.0,0.0,0.0,0.0,0.0,0.0,0.0,0.0,0.0,0.0,0.0,0.0,0.0,0.0,0.0,0.0,0.0,0.0,0.0,0.0,0.0,0.0,0.0,0.0,0.0,0.0,0.0,0.0,0.0,0.0,0.0,0.0,0.0,0.0,0.0,0.0,0.0,0.0,0.0,0.0,0.0,0.0,0.0,0.0,0.0,0.0,0.0,0.0,0.0,0.0,0.0,0.0,0.0,0.0,0.0,0.0,0.0,0.0,0.0,0.0,0.0,0.0,0.0,0.0,0.0,0.0,0.0,0.0,0.0,0.0,0.0,0.0,0.0,0.0,0.0,0.0,0.0,0.0,0.0,0.0,0.0,0.0,0.0,-0.2014,-0.2488,-0.3133,-0.3868,-0.3565,-0.3719,0.0,0.0,0.0,0.0,0.0,0.0,0.0,0.0,0.0,0.0,0.0,0.0,0.0,0.0,0.0,0.0,0.0,0.0,0.0,0.0,0.0,0.0,0.0,0.0,0.0,0.0,0.0,0.0,0.0,0.0,0.0,0.0,0.0,0.0,0.0,0.0,0.0,0.0,0.0,0.0,0.0,0.0,0.0,0.0,0.0,0.0,0.0,0.0,0.0,0.0,0.0,0.0,0.0,0.0,0.0,0.0,0.0,0.0,0.0,0.0,0.0,0.0,0.0,0.0,0.0,0.0,0.0,0.0,0.0,0.0,0.0,0.0,0.0,0.0,0.0,0.0,0.0,0.0,0.0,0.0,0.0,0.0,0.0,0.0,0.0,0.0,0.0,0.0,0.0,0.0,0.0,0.0,0.0,0.0,0.0,0.0,0.0,0.0,0.0,0.0,0.0,0.0,0.0,0.0,0.0,0.0,0.0,0.0,0.0,-0.305,-0.3187,-0.3487,-0.3994,-0.3739,-0.3842,-0.4326,0.0,0.0,0.0,0.0,0.0,0.0,0.0,0.0,0.0,0.0,0.0,0.0,0.0,0.0,0.0,0.0,0.0,0.0,0.0,0.0,0.0,0.0,0.0,0.0,0.0,0.0,0.0,0.0,0.0,0.0,0.0,0.0,0.0,0.0,0.0,0.0,0.0,0.0,0.0,0.0,0.0,0.0,0.0,0.0,0.0,0.0,0.0,0.0,0.0,0.0,0.0,0.0,0.0,0.0,0.0,0.0,0.0,0.0,0.0,0.0,0.0,0.0,0.0,0.0,0.0,0.0,0.0,0.0,0.0,0.0,0.0,0.0,0.0,0.0,0.0,0.0,0.0,0.0,0.0,0.0,0.0,0.0,0.0,0.0,0.0,0.0,0.0,0.0,0.0,0.0,0.0,0.0,0.0,0.0,0.0,0.0,0.0,0.0,0.0,0.0,0.0,0.0,0.0,0.0,0.0,0.0,0.0,0.0,-0.4352,-0.4199,-0.3959,-0.362,-0.3938,-0.4029,0.0,0.0,0.0,0.0,0.0,0.0,0.0,0.0,0.0,0.0,0.0,0.0,0.0,0.0,0.0,0.0,0.0,0.0,0.0,0.0,0.0,0.0,0.0,0.0,0.0,0.0,0.0,0.0,0.0,0.0,0.0,0.0,0.0,0.0,0.0,0.0,0.0,0.0,0.0,0.0,0.0,0.0,0.0,0.0,0.0,0.0,0.0,0.0,0.0,0.0,0.0,0.0,0.0,0.0,0.0,0.0,0.0,0.0,0.0,0.0,0.0,0.0,0.0,0.0,0.0,0.0,0.0,0.0,0.0,0.0,0.0,0.0,0.0,0.0,0.0,0.0,0.0,0.0,0.0,0.0,0.0,0.0,0.0,0.0,0.0,0.0,0.0,0.0,0.0,0.0,0.0,0.0,0.0,0.0,0.0,0.0,0.0,0.0,0.0,0.0,0.0,0.0,0.0,0.0,0.0,0.0,0.0,0.0,0.0,-0.496,-0.5303,-0.5225,-0.4703,-0.4401,-0.4276,0.0,0.0,0.0,0.0,0.0,0.0,0.0,0.0,0.0,0.0,0.0,0.0,0.0,0.0,0.0,0.0,0.0,0.0,0.0,0.0,0.0,0.0,0.0,0.0,0.0,0.0,0.0,0.0,0.0,0.0,0.0,0.0,0.0,0.0,0.0,0.0,0.0,0.0,0.0,0.0,0.0,0.0,0.0,0.0,0.0,0.0,0.0,0.0,0.0,0.0,0.0,0.0,0.0,0.0,0.0,0.0,0.0,0.0,0.0,0.0,0.0,0.0,0.0,0.0,0.0,0.0,0.0,0.0,0.0,0.0,0.0,0.0,0.0,0.0,0.0,0.0,0.0,0.0,0.0,0.0,0.0,0.0,0.0,0.0,0.0,0.0,0.0,0.0,0.0,0.0,0.0,0.0,0.0,0.0,0.0,0.0,0.0,0.0,0.0,0.0,0.0,0.0,0.0,0.0,0.0,0.0,0.0,0.0,-0.5533,-0.5811,-0.6339,-0.6272,-0.5634,-0.5132,-0.4675,0.0,0.0,0.0,0.0,0.0,0.0,0.0,0.0,0.0,0.0,0.0,0.0,0.0,0.0,0.0,0.0,0.0,0.0,0.0,0.0,0.0,0.0,0.0,0.0,0.0,0.0,0.0,0.0,0.0,0.0,0.0,0.0,0.0,0.0,0.0,0.0,0.0,0.0,0.0,0.0,0.0,0.0,0.0,0.0,0.0,0.0,0.0,0.0,0.0,0.0,0.0,0.0,0.0,0.0,0.0,0.0,0.0,0.0,0.0,0.0,0.0,0.0,0.0,0.0,0.0,0.0,0.0,0.0,0.0,0.0,0.0,0.0,0.0,0.0,0.0,0.0,0.0,0.0,0.0,0.0,0.0,0.0,0.0,0.0,0.0,0.0,0.0,0.0,0.0,0.0,0.0,0.0,0.0,0.0,0.0,0.0,0.0,0.0,0.0,0.0,0.0,0.0,0.0,0.0,0.0,0.0,0.0,0.0,-0.6517,-0.6636,-0.711,-0.6976,-0.6223,-0.5838,-0.5127,0.0,0.0,0.0,0.0,0.0,0.0,0.0,0.0,0.0,0.0,0.0,0.0,0.0,0.0,0.0,0.0,0.0,0.0,0.0,0.0,0.0,0.0,0.0,0.0,0.0,0.0,0.0,0.0,0.0,0.0,0.0,0.0,0.0,0.0,0.0,0.0,0.0,0.0,0.0,0.0,0.0,0.0,0.0,0.0,0.0,0.0,0.0,0.0,0.0,0.0,0.0,0.0,0.0,0.0,0.0,0.0,0.0,0.0,0.0,0.0,0.0,0.0,0.0,0.0,0.0,0.0,0.0,0.0,0.0,0.0,0.0,0.0,0.0,0.0,0.0,0.0,0.0,0.0,0.0,0.0,0.0,0.0,0.0,0.0,0.0,0.0,0.0,0.0,0.0,0.0,0.0,0.0,0.0,0.0,0.0,0.0,0.0,0.0,0.0,0.0,0.0,0.0,0.0,0.0,0.0,0.0,0.0,0.0,-0.6139,-0.6242,-0.6792,-0.6555,-0.5467,-0.5415,-0.51,0.0,0.0,0.0,0.0,0.0,0.0,0.0,0.0,0.0,0.0,0.0,0.0,0.0,0.0,0.0,0.0,0.0,0.0,0.0,0.0,0.0,0.0,0.0,0.0,0.0,0.0,0.0,0.0,0.0,0.0,0.0,0.0,0.0,0.0,0.0,0.0,0.0,0.0,0.0,0.0,0.0,0.0,0.0,0.0,0.0,0.0,0.0,0.0,0.2143,0.0,0.0,0.0,0.0,0.0,0.0,0.0,0.0,0.0,0.0,0.0,0.0,0.0,0.0,0.0,0.0,0.0,0.0,0.0,0.0,0.0,0.0,0.0,0.0,0.0,0.0,0.0,0.0,0.0,0.0,0.0,0.0,0.0,0.0,0.0,0.0,0.0,0.0,0.0,0.0,0.0,0.0,0.0,0.0,0.0,0.0,0.0,0.0,0.0,0.0,0.0,0.0,0.0,0.0,0.0,0.0,0.0,0.0,0.0,-0.6231,-0.639,-0.6533,-0.627,-0.5556,-0.5198,-0.4933,0.0,0.0,0.0,0.0,0.0,0.0,0.0,0.0,0.0,0.0,0.0,0.0,0.0,0.0,0.0,0.0,0.0,0.0,0.0,0.0,0.0,0.0,0.0,0.0,0.0,0.0,0.0,0.0,0.0,0.0,0.0,0.0,0.0,0.0,0.0,0.0,0.0,0.0,0.0,0.0,0.0,0.0,0.0,0.0,0.0,0.0,0.0,0.0,0.0,0.0,0.0,0.0,0.0,0.0,0.0,0.0,0.0,0.0,0.0,0.0,0.0,0.0,0.0,0.0,0.0,0.0,0.0,0.0,0.0,0.0,0.0,0.0,0.0,0.0,0.0,0.0,0.0,0.0,0.0,0.0,0.0,0.0,0.0,0.0,0.0,0.0,0.0,0.0,0.0,0.0,0.0,0.0,0.0,0.0,0.0,0.0,0.0,0.0,0.0,0.0,0.0,0.0,0.0,0.0,0.0,0.0,0.0,-0.6135,-0.6371,-0.6549,-0.6296,-0.6016,-0.5673,-0.5031,-0.472,-0.487,0.0,0.0,0.0,0.0,0.0,0.0,0.0,0.0,0.0,0.0,0.0,0.0,0.0,0.0,0.0,0.0,0.0,0.0,0.0,0.0,0.0,0.0,0.0,0.0,0.0,0.0,0.0,0.0,0.0,0.0,0.0,0.0,0.0,0.0,0.0,0.0,0.0,0.0,0.0523,0.0991,0.0,0.0,0.0,0.0,0.0,0.0,0.0,0.0,0.2096,0.0,0.0,0.0,0.0,0.0,0.0,0.0,0.0,0.0,0.0,0.0,0.0,0.0,0.0,0.0,0.0,0.0,0.0,0.0,0.0,0.0,0.0,0.0,0.0,0.0,0.0,0.0,0.0,0.0,0.0,0.0,0.0,0.0,0.0,0.0,0.0,0.0,0.0,0.0,0.0,0.0,0.0,0.0,0.0,0.0,0.0,0.0,0.0,0.0,0.0,0.0,0.0,0.0,0.0,0.0,0.0,-0.6355,-0.6263,-0.6136,-0.5946,-0.6005,-0.5609,-0.4768,-0.4595,-0.4641,-0.4853,0.0,0.0,0.0,0.0,0.0,0.0,0.0,0.0,0.0,0.0,0.0,0.0,0.0,0.0,0.0,0.0,0.0,0.0,0.0,0.0,0.0,0.0,0.0,0.0,0.0,0.0,0.0,0.0,0.0,0.0,0.0,0.0,0.0,0.0,0.0,0.0,0.0,0.0,0.0,0.0934,0.1225,0.0,0.0,0.0,0.0,0.0,0.0,0.0,0.0,0.1739,0.0,0.0,0.0,0.0,0.0,0.0,0.0,0.0,0.0,0.0,0.0,0.0,0.0,0.0,0.0,0.0,0.0,0.0,0.0,0.0,0.0,0.0,0.0,0.0,0.0,0.0,0.0,0.0,0.0,0.0,0.0,0.0,0.0,0.0,0.0,0.0,0.0,0.0,0.0,0.0,0.0,0.0,0.0,0.0,0.0,0.0,0.0,0.0,0.0,0.0,0.0,0.0,0.0,0.0,0.0,-0.6367,-0.5937,-0.5595,-0.5398,-0.544,-0.5127,-0.4447,-0.4318,-0.4461,0.0,0.0,0.0,0.0,0.0,0.0,0.0,0.0,0.0,0.0,0.0,0.0,0.0,0.0,0.0,0.0,0.0,0.0,0.0,0.0,0.0,0.0,0.0,0.0,0.0,0.0,0.0,0.0,0.0,0.0,0.0,0.0,0.0,0.0,0.0,0.0,0.0,0.0,0.0,0.0,0.0925,0.1251,0.1677,0.0,0.0,0.0,0.0,0.0,0.0,0.1994,0.174,0.0,0.0,0.0,0.0,0.0,0.0,0.0,0.0,0.0,0.0,0.0,0.0,0.0,0.0,0.0,0.0,0.0,0.0,0.0,0.0,0.0,0.0,0.0,0.0,0.0,0.0,0.0,0.0,0.0,0.0,0.0,0.0,0.0,0.0,0.0,0.0,0.0,0.0,0.0,0.0,0.0,0.0,0.0,0.0,0.0,0.0,0.0,0.0,0.0,0.0,0.0,0.0,0.0,0.0,0.0,-0.6303,-0.5624,-0.5178,-0.5009,-0.5007,-0.4766,-0.4267,-0.4186,-0.4333,0.0,0.0,0.0,0.0,0.0,0.0,0.0,0.0,0.0,0.0,0.0,0.0,0.0,0.0,0.0,0.0,0.0,0.0,0.0,0.0,0.0,0.0,0.0,0.0,0.0,0.0,0.0,0.0,0.0,0.0,0.0,0.0,0.0,0.0,0.0,0.0,0.0,0.0,0.0,0.0,0.0,0.1478,0.1655,0.1912,0.0,0.0,0.0,0.0,0.2185,0.2179,0.0,0.0,0.0,0.0,0.0,0.0,0.0,0.0,0.0,0.0,0.0,0.0,0.0,0.0,0.0,0.0,0.0,0.0,0.0,0.0,0.0,0.0,0.0,0.0,0.0,0.0,0.0,0.0,0.0,0.0,0.0,0.0,0.0,0.0,0.0,0.0,0.0,0.0,0.0,0.0,0.0,0.0,0.0,0.0,0.0,0.0,0.0,0.0,0.0,0.0,0.0,0.0,0.0,0.0,0.0,0.0,-0.6214,-0.5715,-0.5323,-0.5014,-0.5007,-0.4681,-0.4053,-0.4251,-0.4338,0.0,0.0,0.0,0.0,0.0,0.0,0.0,0.0,0.0,0.0,0.0,0.0,0.0,0.0,0.0,0.0,0.0,0.0,0.0,0.0,0.0,0.0,0.0,0.0,0.0,0.0,0.0,0.0,0.0,0.0,0.0,0.0,0.0,0.0,0.0,0.0,0.0,0.0,0.0,0.0,0.0,0.1885,0.2241,0.2284,0.2294,0.0,0.0,0.2932,0.2427,0.2845,0.0,0.0,0.0,0.0,0.0,0.0,0.0,0.0,0.0,0.0,0.0,0.0,0.0,0.0,0.0,0.0,0.0,0.0,0.0,0.0,0.0,0.0,0.0,0.0,0.0,0.0,0.0,0.0,0.0,0.0,0.0,0.0,0.0,0.0,0.0,0.0,0.0,0.0,0.0,0.0,0.0,0.0,0.0,0.0,0.0,0.0,0.0,0.0,0.0,0.0,0.0,0.0,0.0,0.0,0.0,-0.6141,-0.6427,-0.5638,-0.5073,-0.4796,-0.4923,-0.4693,-0.402,-0.4104,-0.4107,0.0,0.0,0.0,0.0,0.0,0.0,0.0,0.0,0.0,0.0,0.0,0.0,0.0,0.0,0.0,0.0,0.0,0.0,0.0,0.0,0.0,0.0,0.0,0.0,0.0,0.0,0.0,0.0,0.0,0.0,0.0,0.0,0.0,0.0,0.0,0.0,0.0,0.0,0.0,0.0,0.0,0.0,0.2118,0.2495,0.0,0.0,0.0,0.311,0.2396,0.0,0.0,0.0,0.0,0.0,0.0,0.0,0.0,0.0,0.0,0.0,0.0,0.0,0.0,0.0,0.0,0.0,0.0,0.0,0.0,0.0,0.0,0.0,0.0,0.0,0.0,0.0,0.0,0.0,0.0,0.0,0.0,0.0,0.0,0.0,0.0,0.0,0.0,0.0,0.0,0.0,0.0,0.0,0.0,0.0,0.0,0.0,0.0,0.0,0.0,0.0,0.0,0.0,0.0,0.0,0.0,0.0,-0.6701,-0.5587,-0.4895,-0.4709,-0.49,-0.467,-0.3955,-0.3974,0.0,0.0,0.0,0.0,0.0,0.0,0.0,0.0,0.0,0.0,0.0,0.0,0.0,0.0,0.0,0.0,0.0,0.0,0.0,0.0,0.0,0.0,0.0,0.0,0.0,0.0,0.0,-0.1105,0.0,0.0,0.0,0.0,0.0,0.0,0.0,0.0,0.0,0.0,0.0,0.0,0.0,0.0,0.2344,0.1938,0.2516,0.2891,0.0,0.0,0.3015,0.2338,0.2954,0.3128,0.0,0.0,0.0,0.0,0.0,0.0,0.0,0.0,0.0,0.0,0.0,0.0,0.0,0.0,0.0,0.0,0.0,0.0,0.0,0.0,0.0,0.0,0.0,0.0,0.0,0.0,0.0,0.0,0.0,0.0,0.0,0.0,0.0,0.0,0.0,0.0,0.0,0.0,0.0,0.0,0.0,0.0,0.0,0.0,0.0,0.0,0.0,0.0,0.0,0.0,0.0,0.0,0.0,0.0,0.0,-0.6734,-0.5607,-0.4987,-0.499,-0.4997,-0.4602,-0.3753,-0.3898,-0.387,0.0,0.0,0.0,0.0,0.0,0.0,0.0,0.0,0.0,0.0,0.0,0.0,0.0,0.0,0.0,0.0,0.0,0.0,0.0,0.0,0.0,0.0,0.0,0.0,0.0,0.0,0.0,0.0,0.0,0.0,0.0,0.0,0.0,0.0,0.0,0.0,0.0,0.0,0.0,0.0,0.0,0.2665,0.1907,0.2342,0.2691,0.0,0.0,0.2512,0.231,0.3279,0.3567,0.2212,0.0,0.0,0.0,0.0,0.0,0.0,0.0,0.0,0.0,0.0,0.0,0.0,0.0,0.0,0.0,0.0,0.0,0.0,0.0,0.0,0.0,0.0,0.0,0.0,0.0,0.0,0.0,0.0,0.0,0.0,0.0,0.0,0.0,0.0,0.0,0.0,0.0,0.0,0.0,0.0,0.0,0.0,0.0,0.0,0.0,0.0,0.0,0.0,0.0,0.0,0.0,0.0,0.0,-0.6425,-0.682,-0.5627,-0.493,-0.4772,-0.4919,-0.4572,-0.371,-0.3798,-0.3664,0.0,0.0,0.0,0.0,0.0,0.0,0.0,0.0,0.0,0.0,0.0,0.0,0.0,0.0,0.0,0.0,0.0,0.0,0.0,0.0,0.0,0.0,0.0,0.0,0.0,0.0,0.0,0.0,-0.155,-0.1671,-0.2079,0.0,0.0,0.0,0.0,0.0,0.0,0.0,0.0,0.0,0.0,0.2251,0.2564,0.2728,0.0,0.0,0.2981,0.2932,0.2284,0.295,0.3143,0.2013,0.2058,0.0,0.0,0.0,0.0,0.0,0.0,0.0,0.0,0.0,0.0,0.0,0.0,0.0,0.0,0.0,0.0,0.0,0.0,0.0,0.0,0.0,0.0,0.0,0.0,0.0,0.0,0.0,0.0,0.0,0.0,0.0,0.0,0.0,0.0,0.0,0.0,0.0,0.0,0.0,0.0,0.0,0.0,0.0,0.0,0.0,0.0,0.0,0.0,0.0,0.0,0.0,0.0,-0.6607,-0.7057,-0.5771,-0.5001,-0.4811,-0.4926,-0.4642,-0.3936,-0.3768,-0.3509,0.0,0.0,0.0,0.0,0.0,0.0,0.0,0.0,0.0,0.0,0.0,0.0,0.0,0.0,0.0,0.0,0.0,0.0,0.0,0.0,0.0,0.0,0.0,0.0,0.0,0.0,0.0,0.0,-0.2132,-0.2197,-0.2664,0.0,0.0,0.0,0.0,0.0,0.0,0.0,0.0,0.0,0.0,0.1899,0.2345,0.2409,0.2379,0.2327,0.2468,0.2401,0.1937,0.2319,0.2441,0.182,0.0,0.0,0.0,0.0,0.0,0.0,0.0,0.0,0.0,0.0,0.0,0.0,0.0,0.0,0.0,0.0,0.0,0.0,0.0,0.0,0.0,0.0,0.0,0.0,0.0,0.0,0.0,0.0,0.0,0.0,-0.6058,0.0,0.0,0.0,0.0,0.0,0.0,0.0,0.0,0.0,0.0,0.0,0.0,0.0,0.0,0.0,0.0,0.0,0.0,0.0,0.0,0.0,0.0,-0.6875,-0.7348,-0.599,-0.5287,-0.5265,-0.5116,-0.4822,-0.4398,-0.3932,-0.3467,-0.294,0.0,0.0,0.0,0.0,0.0,0.0,0.0,0.0,0.0,0.0,0.0,0.0,0.0,0.0,0.0,0.0,0.0,0.0,0.0,0.0,0.0,0.0,0.0,0.0,0.0,0.0,-0.2826,-0.3026,-0.3097,0.0,0.0,0.0,0.0,0.0,0.0,0.0,0.0,0.0,0.0,0.1042,0.1751,0.0994,0.1077,0.1247,0.1269,0.0736,0.0536,0.1224,0.1402,0.1494,0.0,0.0,0.0,0.0,0.0,0.0,0.0,0.0,0.0,0.0,0.0,0.0,0.0,0.0,0.0,0.0,0.0,0.0,0.0,0.0,0.0,0.0,0.0,0.0,0.0,0.0,0.0,-0.7222,-0.6984,0.0,0.0,0.0,0.0,0.0,0.0,0.0,0.0,0.0,0.0,0.0,-0.6616,-0.6473,0.0,0.0,0.0,0.0,0.0,0.0,0.0,0.0,0.0,0.0,0.0,0.0,-0.7176,-0.7329,-0.6007,-0.5303,-0.5301,-0.5246,-0.495,-0.4411,-0.4154,-0.3653,-0.2858,0.0,0.0,0.0,0.0,0.0,0.0,0.0,0.0,0.0,0.0,0.0,0.0,0.0,0.0,0.0,0.0,0.0,0.0,0.0,0.0,0.0,0.0,0.0,0.0,0.0,-0.2107,0.0,0.0,0.0,0.0,0.0,0.0,0.0,0.0,0.0,0.0,0.0,-0.0565,0.023,0.0065,0.0044,0.0534,0.0306,0.0401,0.0,0.0,0.0,0.0,0.0,0.0,0.0,0.0,0.0,0.0,0.0,0.0,0.0,0.0,0.4184,0.4316,0.4578,0.4823,0.4884,0.0,0.0,0.0,0.0,0.0,0.0,0.0,0.0,0.0,0.0,0.0,0.0,0.0,0.0,-0.8292,0.0,-0.8441,0.0,0.0,0.0,0.0,0.0,0.0,0.0,0.0,-0.8081,-0.8002,-0.7827,-0.7478,-0.729,0.0,-0.6651,-0.6496,0.0,0.0,0.0,0.0,0.0,0.0,0.0,0.0,-0.7484,-0.7508,-0.617,-0.5429,-0.5431,-0.5355,-0.5112,-0.4724,-0.4136,-0.3502,-0.2737,-0.2245,-0.2422,0.0,0.0,0.0,0.0,0.0,0.0,0.0,0.0,0.0,0.0,0.0,0.0,0.0,0.0,0.0,0.0,0.0,0.0,0.0,0.0,0.0,0.0,0.0,-0.2771,0.0,0.0,0.0,0.0,0.0,0.0,0.0,0.0,0.0,-0.196,-0.1577,-0.1134,-0.0342,-0.0701,-0.0866,-0.0435,0.0,0.0,0.0,0.0,0.0,0.0,0.0,0.0089,0.0286,0.0651,0.1227,0.2169,0.2713,0.3099,0.3297,0.0,0.0,0.4053,0.4342,0.4583,0.4626,0.4675,0.4723,0.4806,0.4779,0.4757,0.0,0.0,0.0,0.0,0.0,0.0,0.0,0.0,-0.9522,-0.9925,0.0,-0.9954,0.0,0.0,0.0,0.0,0.0,-0.9537,0.0,0.0,-0.9595,-0.9824,-0.9937,-0.9333,-0.8999,-0.8909,-0.8063,-0.7672,-0.7655,-0.6193,0.0,0.0,0.0,0.0,0.0,0.0,-0.7773,-0.7831,-0.6456,-0.5723,-0.5696,-0.5474,-0.5343,-0.5273,-0.3954,-0.3066,-0.2673,-0.2303,-0.2107,-0.214,-0.3006,0.0,0.0,0.0,0.0,0.0,0.0,0.0,0.0,0.0,0.0,0.0,0.0,0.0,0.0,0.0,0.0,0.0,0.0,0.0,0.0,-0.4181,0.0,0.0,0.0,0.0,0.0,0.0,0.0,0.0,0.0,0.0,-0.3068,-0.2453,-0.2053,-0.2012,0.0,0.0,0.0,0.0,-0.1252,-0.1988,-0.2032,-0.1813,-0.1367,-0.1057,-0.059,0.0236,0.0,0.0,0.2075,0.1689,0.1439,0.1693,0.2438,0.314,0.3897,0.4069,0.4147,0.4248,0.4176,0.4083,0.4076,0.4017,0.3924,-1.5298,0.0,0.0,0.0,0.0,-1.2761,-1.2687,-1.254,-1.2268,-1.1917,-1.1532,-1.1025,0.0,0.0,0.0,0.0,0.0,0.0,-1.0654,-1.0443,-1.0562,-1.0544,-1.0417,-1.0219,-1.0021,-0.9817,-0.9221,-0.8843,-0.858,-0.7984,-0.7993,-0.8646,0.0,0.0,0.0,0.0,-0.7877,-0.7511,-0.6649,-0.6105,-0.5905,-0.5832,-0.5719,-0.5588,-0.4365,-0.3569,-0.3319,-0.2591,-0.2184,-0.2257,-0.2433,0.0,0.0,0.0,0.0,0.0,0.0,0.0,0.0,0.0,0.0,0.0,0.0,0.0,0.0,0.0,0.0,0.0,0.0,0.0,-0.3388,-0.3572,-0.4054,0.0,0.0,0.0,0.0,0.0,0.0,0.0,0.0,0.0,-0.3793,-0.3324,-0.294,0.0,0.0,-0.3001,-0.3191,-0.2705,-0.2097,-0.1493,-0.1497,0.0,-0.0409,-0.0452,-0.0524,-0.0213,0.0572,0.1305,0.1766,0.1976,0.2169,0.2485,0.2609,0.279,0.2985,0.3581,0.3944,0.3889,0.3735,0.3578,0.3536,0.349,0.3492,-1.8393,-1.5488,-1.5693,-1.5683,-1.5608,-1.5668,-1.5549,-1.5253,-1.4593,-1.4181,-1.3937,-1.2858,-1.2379,-1.2437,-1.1964,0.0,0.0,0.0,-1.1851,-1.1515,-1.1711,-1.1703,-1.1526,-1.1336,-1.1135,-1.0956,-1.0397,-0.9925,-0.9645,-0.9539,-0.9538,-0.9667,0.0,0.0,-0.8942,-0.8326,-0.7882,-0.7586,-0.6896,-0.6412,-0.6151,-0.5981,-0.5772,-0.5525,-0.4684,-0.4161,-0.3922,-0.3055,-0.2591,-0.2571,-0.2499,-0.2655,0.0,0.0,0.0,0.0,0.0,0.0,0.0,0.0,0.0,0.0,0.0,-0.3503,0.0,0.0,0.0,0.0,-0.3625,-0.3761,-0.4195,-0.4588,0.0,0.0,0.0,0.0,0.0,0.0,0.0,-0.5756,-0.4934,-0.4302,-0.4239,-0.3956,-0.3582,-0.3009,-0.3125,-0.3286,-0.3387,0.0,-0.2255,-0.1649,-0.1607,-0.1386,-0.0716,-0.0672,-0.0614,-0.0309,0.0304,0.0817,0.1113,0.143,0.1678,0.1865,0.1997,0.2089,0.2085,0.2646,0.3147,0.324,0.3159,0.3079,0.304,0.3029,0.3037,-2.1193,-1.9606,-2.0144,-1.9687,-1.8679,-1.8976,-1.8654,-1.7797,-1.6724,-1.6716,-1.7335,-1.5318,-1.4652,-1.5022,-1.4036,0.0,-1.3202,-1.318,-1.2976,-1.2687,-1.2987,-1.3126,-1.309,-1.26,-1.2323,-1.2289,-1.152,-1.1025,-1.0764,-1.087,-1.0867,-1.0746,-0.9437,-0.8758,-0.8751,-0.8191,-0.7931,-0.7981,-0.7211,-0.6696,-0.6423,-0.5993,-0.5657,-0.5441,-0.5073,-0.4754,-0.4481,-0.3732,-0.3236,-0.3078,-0.3034,-0.2857,-0.2563,0.0,0.0,0.0,0.0,0.0,0.0,0.0,0.0,0.0,0.0,0.0,0.0,0.0,0.0,0.0,-0.4512,0.0,-0.5444,-0.6418,0.0,0.0,0.0,-0.6074,-0.5256,-0.5246,-0.5212,-0.5035,0.0,0.0,-0.45,-0.4395,-0.3938,-0.2829,-0.2528,-0.2528,-0.2898,-0.2318,-0.1922,-0.2156,-0.2011,-0.1832,-0.1529,-0.1259,-0.0789,-0.0168,0.0077,0.024,0.04,0.0437,0.0419,0.0503,0.0868,0.1246,0.121,0.1486,0.1763,0.2298,0.2436,0.2486,0.2463,0.2463,0.2472,-2.4058,-2.3757,-2.3502,-2.2029,-1.9852,-2.0145,-2.0263,-2.0241,-2.0011,-1.9698,-1.9271,-1.8262,-1.7145,-1.5932,-1.4912,-1.4318,-1.414,-1.3896,-1.3874,-1.4042,-1.4084,-1.4166,-1.4144,-1.3752,-1.3432,-1.3187,-1.2728,-1.2338,-1.2073,-1.2088,-1.1869,-1.1443,-1.1104,-1.0748,-1.0353,-0.9848,-0.9289,-0.8667,-0.8117,-0.7471,-0.6665,-0.6374,-0.6285,-0.6353,-0.5888,-0.5506,-0.5253,-0.4618,-0.4073,-0.3704,-0.3344,-0.3432,-0.4023,-0.4692,0.0,0.0,0.0,0.0,0.0,0.0,0.0,0.0,0.0,-0.5171,-0.6038,0.0,-0.5862,0.0,-0.6164,-0.5792,-0.519,-0.5927,0.0,0.0,-0.7082,-0.711,-0.6789,-0.6192,-0.6111,-0.6917,-0.5728,-0.49,-0.5007,-0.4253,-0.3442,-0.2752,-0.311,-0.3382,-0.324,-0.2539,-0.1985,-0.1832,-0.1441,-0.1079,-0.1054,-0.0881,-0.0608,-0.0225,-0.0132,-0.0027,0.0214,0.0247,0.028,0.0393,0.0504,0.0586,0.0637,0.0674,0.0732,0.0907,0.1202,0.1476,0.1586,0.1613,0.1615,-2.5231,-2.5036,-2.4867,-2.376,-2.2144,-2.2295,-2.2487,-2.2562,-2.2087,-2.1497,-2.0865,-1.9847,-1.8668,-1.7423,-1.7073,-1.6573,-1.596,-1.5646,-1.5277,-1.4889,-1.4743,-1.4604,-1.4504,-1.4328,-1.4144,-1.3916,-1.3594,-1.3345,-1.3162,-1.285,-1.2548,-1.2295,-1.1968,-1.1801,-1.1737,-1.0983,-1.0464,-1.016,-0.906,-0.8021,-0.7033,-0.6613,-0.6646,-0.7121,-0.6717,-0.6621,-0.6855,-0.6206,-0.5696,-0.5386,-0.4919,-0.4878,-0.5335,-0.6032,-0.6626,0.0,0.0,0.0,0.0,0.0,0.0,0.0,0.0,0.0,0.0,0.0,-0.689,-0.7486,-0.693,-0.6528,-0.6506,-0.6809,-0.7091,-0.7233,-0.7245,-0.7079,-0.6651,-0.6139,-0.6067,-0.6578,-0.5565,-0.4786,-0.4672,-0.4016,-0.3321,-0.2724,-0.3011,-0.3175,-0.2796,-0.2239,-0.1813,-0.1687,-0.1184,-0.0782,-0.0782,-0.0692,-0.0568,-0.0407,-0.0343,-0.0245,-0.0107,-0.0082,-0.0056,0.0028,0.0084,0.0168,0.0196,0.0224,0.0252,0.0393,0.0561,0.0733,0.0887,0.0899,0.0954,-2.5568,-2.505,-2.5166,-2.4921,-2.4507,-2.4507,-2.4507,-2.4454,-2.341,-2.2679,-2.2219,-2.0767,-1.9782,-1.9274,-1.9503,-1.9076,-1.8075,-1.7689,-1.6899,-1.5676,-1.5309,-1.4995,-1.4774,-1.4599,-1.4592,-1.4692,-1.4262,-1.4026,-1.3967,-1.3404,-1.3125,-1.3057,-1.2513,-1.2488,-1.2953,-1.1943,-1.1473,-1.1613,-0.9948,-0.8611,-0.7759,-0.7147,-0.7212,-0.7904,-0.761,-0.778,-0.8516,-0.7907,-0.7451,-0.7312,-0.6877,-0.656,-0.6429,-0.7341,-0.7759,0.0,-0.8587,0.0,0.0,0.0,0.0,0.0,0.0,0.0,0.0,-0.766,-0.7773,-0.7958,-0.7325,-0.7317,-0.8193,-0.8012,-0.7728,-0.748,-0.7208,-0.6753,-0.6085,-0.5928,-0.5831,-0.5663,-0.5325,-0.4895,-0.4421,-0.3981,-0.3566,-0.3067,-0.2977,-0.2896,-0.2439,-0.2002,-0.1673,-0.174,-0.1354,-0.1185,-0.1158,-0.1026,-0.095,-0.0874,-0.0738,-0.0536,-0.0537,-0.044,-0.0393,-0.0364,-0.028,-0.0168,-0.0056,-0.0056,0.0028,0.0198,0.017,0.02,0.0412,0.0483,0.0499,-2.5823,-2.5685,-2.5323,-2.4921,-2.4507,-2.4507,-2.4507,-2.4497,-2.4262,-2.3941,-2.345,-2.2229,-2.1473,-2.1127,-2.032,-1.9835,-1.9626,-1.8694,-1.7926,-1.7221,-1.6639,-1.6319,-1.6164,-1.5249,-1.5227,-1.5795,-1.4892,-1.4245,-1.402,-1.3902,-1.3747,-1.3576,-1.3431,-1.3687,-1.4192,0.0,0.0,0.0,-1.0349,-0.9783,-0.9582,-0.9404,-0.9341,-0.9389,-0.8915,0.0,-0.8418,-0.8283,-0.8119,-0.7926,-0.7467,0.0,0.0,0.0,0.0,0.0,0.0,0.0,0.0,0.0,0.0,0.0,-0.9004,-0.8969,-0.8498,-0.867,-0.864,-0.8265,-0.8238,-0.8069,-0.7622,-0.7521,-0.7552,-0.7688,-0.7472,-0.7349,-0.7371,-0.7213,-0.7117,-0.7295,-0.6711,-0.6119,-0.5698,-0.5155,-0.4535,-0.3965,-0.3827,-0.3727,-0.3624,-0.2569,-0.1892,-0.2059,-0.2155,-0.2296,-0.2329,-0.2242,-0.2123,-0.2139,-0.1678,-0.1328,-0.1108,-0.0695,-0.0421,-0.0421,-0.0393,-0.0364,-0.0336,-0.0308,-0.0311,-0.0319,-0.0291,-0.0118,0.0365,0.0461,0.0502,-2.6165,0.0,-2.5564,-2.5117,0.0,-2.4507,-2.4507,-2.4507,-2.4507,-2.4167,-2.3525,-2.291,-2.239,-2.1867,-2.1661,-2.0983,-1.9992,-1.9417,-1.8498,-1.728,-1.6791,-1.6559,-1.6502,-1.5924,-1.5777,-1.6015,-1.5297,-1.4772,-1.4457,-1.4304,-1.4207,-1.4103,-1.3765,-1.3742,-1.4002,-1.3362,-1.2505,-1.1517,-1.1108,-1.0528,-0.982,-0.9542,-0.9522,-0.9734,-0.9339,0.0,0.0,0.0,0.0,0.0,0.0,0.0,0.0,0.0,0.0,-0.8837,-0.9192,-0.9364,-0.9177,-0.9436,-0.9398,-0.895,-0.8962,-0.8896,-0.8669,-0.8717,-0.8563,-0.8109,-0.8218,-0.8049,-0.7488,-0.753,-0.7642,-0.7785,-0.7795,-0.7844,-0.7966,-0.7871,-0.7801,-0.7755,-0.7336,-0.6852,-0.6438,-0.5797,-0.5177,-0.4713,-0.4359,-0.4175,-0.4078,-0.3327,-0.2708,-0.2599,-0.282,-0.2929,-0.2736,-0.2681,-0.271,-0.2541,-0.2096,-0.1705,-0.1566,-0.1064,-0.0645,-0.0645,-0.0589,-0.0533,-0.0533,-0.0477,-0.0395,-0.0429,-0.0431,-0.0322,-0.0031,0.0062,0.0224,-2.6475,-2.5502,-2.5865,-2.5523,-2.4735,-2.4652,-2.4569,-2.4497,0.0,0.0,0.0,-2.3225,-2.2846,-2.2309,-2.299,-2.2301,-2.0585,-2.0464,-1.9543,-1.7852,-1.7474,-1.7175,-1.706,-1.6823,-1.6608,-1.6327,-1.5736,-1.5272,-1.49,-1.4626,-1.4482,-1.4379,-1.3843,-1.3579,-1.3543,-1.3053,-1.2528,-1.2028,-1.1987,-1.1365,-1.0123,-0.9684,-0.9659,-0.9999,-0.9664,-0.9814,-1.0524,-1.0253,-1.012,-1.0174,-1.0181,-1.0121,-1.0042,-0.9989,-1.0049,-1.0252,-1.0179,-1.0117,-1.0021,-1.0189,-0.9886,-0.9044,-0.8839,-0.8719,-0.8603,-0.8471,-0.8269,-0.7941,-0.804,-0.7963,-0.7626,-0.7763,-0.7881,-0.7925,-0.809,-0.8218,-0.823,-0.8229,-0.8106,-0.7951,-0.7717,-0.7375,-0.694,-0.638,-0.5821,-0.5381,-0.4967,-0.4575,-0.4494,-0.4116,-0.3544,-0.3239,-0.3454,-0.3579,-0.3268,-0.3161,-0.307,-0.3189,-0.2639,-0.2124,-0.2041,-0.1624,-0.1233,-0.1093,-0.0981,-0.0869,-0.0757,-0.0617,-0.0478,-0.0508,-0.0479,-0.0516,-0.052,-0.0411,-0.0194,-2.6594,-2.6382,-2.649,-2.6221,-2.5668,-2.5251,-2.4869,-2.4466,-2.4146,-2.3898,-2.3764,-2.336,-2.3021,-2.2737,-2.3474,-2.3523,-2.2998,-2.2998,-2.2471,-2.1526,-2.0912,-2.0242,-1.9546,-1.8442,-1.797,-1.7822,-1.6524,-1.5491,-1.4922,-1.464,-1.4372,-1.4122,-1.399,-1.3916,-1.3901,-1.3821,-1.3469,-1.2856,-1.2975,-1.282,-1.235,-1.2204,-1.185,-1.1235,-1.0736,-1.0474,-1.05,-1.0462,-1.0561,-1.0849,-1.0836,-1.0639,-1.0201,-0.9923,-0.966,-0.9467,-0.8974,-0.8873,-0.933,-0.935,-0.9342,-0.9263,-0.9589,-0.9456,-0.8612,-0.8511,-0.8484,-0.8409,-0.8425,-0.843,-0.8323,-0.8194,-0.8209,-0.8344,-0.8279,-0.8257,-0.842,-0.8311,-0.8252,-0.8355,-0.8226,-0.7943,-0.7598,-0.72,-0.6767,-0.6315,-0.5812,-0.5633,-0.5456,-0.4926,-0.4283,-0.3999,-0.4317,-0.4675,-0.4624,-0.4567,-0.4423,-0.465,-0.3863,-0.3226,-0.3154,-0.2633,-0.2074,-0.1712,-0.1517,-0.1346,-0.0984,-0.0841,-0.0796,-0.0812,-0.0775,-0.0783,-0.0754,-0.0665,-0.0509,-2.6698,-2.6293,-2.6511,-2.6299,-2.591,-2.5658,-2.5471,-2.5233,-2.4799,-2.4322,-2.3877,-2.366,-2.3381,-2.3063,-2.3495,-2.3261,-2.2513,-2.2801,-2.2371,-2.1339,-2.05,-2.0078,-1.9877,-1.8705,-1.8086,-1.7868,-1.7189,-1.6439,-1.578,-1.5562,-1.5296,-1.4772,-1.4428,-1.4245,-1.4284,-1.4284,-1.4099,-1.3829,-1.3202,-1.2648,-1.2183,-1.2103,-1.176,-1.103,-1.0952,-1.0806,-1.055,-1.055,-1.0638,-1.0758,-1.0802,-1.0687,-1.0415,-1.0279,-1.0229,-1.0257,-0.9999,-1.0034,-1.0476,-1.0238,-1.0107,-1.011,-1.0028,-0.9831,-0.9358,-0.9081,-0.8835,-0.8544,-0.8517,-0.8458,-0.8339,-0.8334,-0.8344,-0.8344,-0.8323,-0.8393,-0.8479,-0.8425,-0.8398,-0.8484,-0.8414,-0.8313,-0.8149,-0.7835,-0.7487,-0.7052,-0.6501,-0.6033,-0.5939,-0.5547,-0.5169,-0.4998,-0.5177,-0.5247,-0.5225,-0.5169,-0.5051,-0.4961,-0.4416,-0.3823,-0.3384,-0.2764,-0.2136,-0.1519,-0.1353,-0.1228,-0.0965,-0.0932,-0.0938,-0.0956,-0.0913,-0.0898,-0.0884,-0.084,-0.0689,-2.6895,-2.6273,-2.6625,-2.6465,-2.603,-2.6041,-2.6024,-2.5844,-2.5502,-2.4985,-2.4406,-2.4126,-2.3774,-2.3412,-2.3607,-2.3183,-2.2316,-2.2606,-2.234,-2.1445,-2.0621,-2.0314,-2.0339,-1.9392,-1.8623,-1.8106,-1.7839,-1.7355,-1.6617,-1.647,-1.6145,-1.5533,-1.5035,-1.4757,-1.4724,-1.4577,-1.4504,-1.4438,-1.3331,-1.2467,-1.1951,-1.1921,-1.1547,-1.0806,-1.0968,-1.099,-1.0719,-1.0697,-1.0762,-1.0828,-1.0836,-1.0806,-1.0806,-1.0762,-1.0872,-1.1158,-1.1078,-1.1136,-1.1414,-1.1109,-1.0826,-1.0807,-1.0534,-1.0237,-1.0021,-0.9773,-0.9434,-0.8926,-0.8765,-0.8628,-0.8528,-0.8457,-0.8436,-0.8295,-0.8479,-0.8592,-0.8597,-0.8635,-0.864,-0.8667,-0.863,-0.8597,-0.8521,-0.8246,-0.7804,-0.7321,-0.6773,-0.631,-0.6065,-0.601,-0.5975,-0.5901,-0.5816,-0.5697,-0.5452,-0.5452,-0.5364,-0.5153,-0.4777,-0.435,-0.3715,-0.3058,-0.2334,-0.1845,-0.1424,-0.1234,-0.1097,-0.0969,-0.0965,-0.098,-0.0967,-0.0941,-0.0989,-0.091,-0.0764,-2.7258,-2.7185,-2.7206,-2.6978,-2.6563,-2.6553,-2.6279,-2.5927,-2.5834,-2.5792,-2.5575,-2.4797,-2.424,-2.3908,-2.4239,-2.4101,-2.3678,-2.3959,-2.4013,-2.4003,-2.3884,-2.3159,-2.2129,-2.1552,-2.0692,-1.9447,-1.8643,-1.7848,-1.7133,-1.6746,-1.635,-1.5912,-1.5811,-1.5599,-1.5272,-1.4772,-1.4518,-1.4496,-1.3762,-1.3228,-1.2906,-1.2877,-1.2292,-1.11,-1.1092,-1.1092,-1.1055,-1.1056,-1.1195,-1.1474,-1.1481,-1.1489,-1.1459,-1.1217,-1.1202,-1.1489,-1.0975,-1.0806,-1.1092,-1.1121,-1.1024,-1.086,-1.1192,-1.1028,-1.0193,-1.0428,-1.0421,-0.9958,-0.951,-0.9218,-0.9148,-0.8797,-0.856,-0.8598,-0.8733,-0.8868,-0.8884,-0.9017,-0.9141,-0.9141,-0.8937,-0.8868,-0.8813,-0.8398,-0.7746,-0.7203,-0.6924,-0.6644,-0.6355,-0.6314,-0.6282,-0.625,-0.6073,-0.5978,-0.5966,-0.5837,-0.5714,-0.5707,-0.5424,-0.5057,-0.4772,-0.4357,-0.3884,-0.2722,-0.2509,-0.1981,-0.1388,-0.1015,-0.1078,-0.1154,-0.1121,-0.1027,-0.1022,-0.0991,-0.0868,-2.732,-2.732,-2.732,-2.7206,-2.704,-2.7019,-2.6915,-2.6729,-2.6403,-2.6335,-2.6252,-2.5606,-2.5088,-2.4695,-2.4828,-2.4619,-2.4089,-2.4296,-2.4368,-2.4239,-2.3647,-2.3202,-2.295,-2.165,-2.0718,-2.0175,-1.9443,-1.876,-1.8094,-1.7301,-1.6877,-1.6801,-1.6241,-1.5848,-1.5701,-1.546,-1.5145,-1.4757,-1.4677,-1.4304,-1.3645,-1.3397,-1.2862,-1.205,-1.1933,-1.1831,-1.1641,-1.1496,-1.1452,-1.1584,-1.1591,-1.1591,-1.1591,-1.1467,-1.1452,-1.1562,-1.1349,-1.1246,-1.1379,-1.1393,-1.1352,-1.1272,-1.1609,-1.1607,-1.1254,-1.1577,-1.1697,-1.1411,-1.0419,-0.9797,-0.9919,-0.9497,-0.9224,-0.9366,-0.9252,-0.91,-0.9071,-0.9147,-0.9171,-0.92,-0.9125,-0.9066,-0.8999,-0.8552,-0.7989,-0.7497,-0.7167,-0.6795,-0.649,-0.642,-0.642,-0.6379,-0.6253,-0.6185,-0.6201,-0.6177,-0.6043,-0.5919,-0.5871,-0.5747,-0.5036,-0.4717,-0.4181,-0.3398,-0.3145,-0.2796,-0.2203,-0.2077,-0.2063,-0.186,-0.1461,-0.1302,-0.1068,-0.1037,-0.0954,-2.7382,-2.7486,-2.7486,-2.7438,-2.7486,-2.7351,-2.732,-2.7278,-2.6946,-2.6755,-2.677,-2.6449,-2.6009,-2.5616,-2.5471,-2.5083,-2.4518,-2.4563,-2.4492,-2.4217,-2.3464,-2.3256,-2.3319,-2.2113,-2.1168,-2.0763,-2.0357,-1.9629,-1.881,-1.8028,-1.7566,-1.7417,-1.6743,-1.6264,-1.6038,-1.5965,-1.56,-1.5104,-1.5279,-1.4999,-1.4201,-1.3887,-1.3411,-1.2731,-1.2529,-1.2339,-1.2018,-1.1736,-1.1591,-1.1591,-1.1591,-1.1591,-1.1591,-1.1591,-1.1591,-1.1591,-1.1591,-1.1591,-1.1591,-1.1591,-1.1635,-1.1692,-1.1886,-1.204,-1.2149,-1.2353,-1.2511,-1.2374,-1.1392,-1.0791,-1.0744,-1.0321,-1.0042,-1.0083,-0.974,-0.9515,-0.9344,-0.9351,-0.9416,-0.94,-0.9367,-0.927,-0.916,-0.8808,-0.842,-0.7962,-0.7478,-0.7025,-0.6676,-0.6527,-0.6399,-0.6444,-0.6419,-0.635,-0.6284,-0.6305,-0.6255,-0.617,-0.6125,-0.5908,-0.5173,-0.4979,-0.4643,-0.4186,-0.3861,-0.3468,-0.3015,-0.2981,-0.2998,-0.2596,-0.2214,-0.1834,-0.1578,-0.139,-0.1197,-2.751,-2.7852,-2.7844,-2.7893,-2.7872,-2.7458,-2.733,-2.7351,-2.7278,-2.7268,-2.7247,-2.7216,-2.6978,-2.6465,-2.6082,-2.5616,-2.5199,-2.4982,-2.4756,-2.4493,-2.4247,-2.3904,-2.3493,-2.3373,-2.2671,-2.158,-2.123,-2.0411,-1.8966,-1.8734,-1.8226,-1.7407,-1.7394,-1.7086,-1.6448,-1.6096,-1.5717,-1.5418,-1.5433,-1.5153,-1.4599,-1.4496,-1.3975,-1.3148,-1.2694,-1.2361,-1.204,-1.1775,-1.1599,-1.1599,-1.1599,-1.1591,-1.1591,-1.1591,-1.1591,-1.1591,-1.1591,-1.1591,-1.1591,-1.1613,-1.1731,-1.1923,-1.2032,-1.2156,-1.2434,-1.2543,-1.2614,-1.2541,-1.2398,-1.2158,-1.1778,-1.1252,-1.0729,-1.0305,-1.0319,-1.0119,-0.9639,-0.9712,-0.983,-0.9825,-0.9669,-0.9502,-0.927,-0.9195,-0.8856,-0.8412,-0.7981,-0.7598,-0.7167,-0.6739,-0.6567,-0.6599,-0.6554,-0.6395,-0.6395,-0.6387,-0.6387,-0.6309,-0.6228,-0.6224,-0.6075,-0.5844,-0.5382,-0.5011,-0.4662,-0.4292,-0.3832,-0.3609,-0.3533,-0.3286,-0.2954,-0.2603,-0.2324,-0.1863,-0.1609,-2.7779,-2.7906,-2.8245,-2.8369,-2.8268,-2.7883,-2.7686,-2.7655,-2.7423,-2.732,-2.732,-2.732,-2.7206,-2.705,-2.6884,-2.6397,-2.5689,-2.5558,-2.532,-2.5003,-2.5176,-2.5033,-2.4601,-2.4165,-2.3713,-2.314,-2.1966,-2.0862,-1.9783,-1.915,-1.8643,-1.8203,-1.768,-1.718,-1.6756,-1.6617,-1.6265,-1.5818,-1.5921,-1.5818,-1.5394,-1.5196,-1.4761,-1.4199,-1.328,-1.2775,-1.2665,-1.2145,-1.1867,-1.1867,-1.1677,-1.1591,-1.1591,-1.1591,-1.1591,-1.1591,-1.1591,-1.1591,-1.1613,-1.1758,-1.1904,-1.201,-1.2404,-1.2687,-1.2806,-1.3016,-1.3148,-1.3133,-1.314,-1.3034,-1.2778,-1.2177,-1.1565,-1.1202,-1.0833,-1.045,-0.999,-0.9873,-0.9884,-0.9868,-0.9836,-0.976,-0.9642,-0.954,-0.9267,-0.8811,-0.8338,-0.788,-0.7517,-0.7072,-0.6808,-0.6857,-0.6841,-0.6757,-0.6796,-0.6542,-0.6387,-0.6387,-0.635,-0.6284,-0.6197,-0.6172,-0.58,-0.5617,-0.5352,-0.5186,-0.4782,-0.448,-0.435,-0.4084,-0.3751,-0.3487,-0.3153,-0.2678,-0.2186,-2.8359,-2.8421,-2.87,-2.8835,-2.8763,-2.8173,-2.8017,-2.8059,-2.7521,-2.7382,-2.7448,-2.7479,-2.7455,-2.7361,-2.7407,-2.7123,-2.6397,-2.6221,-2.5854,-2.5492,-2.574,-2.572,-2.5348,-2.4706,-2.4246,-2.3771,-2.2143,-2.083,-2.011,-1.9554,-1.905,-1.855,-1.7986,-1.7509,-1.7132,-1.7057,-1.674,-1.636,-1.6418,-1.6375,-1.5943,-1.5599,-1.5177,-1.4728,-1.3828,-1.3214,-1.3023,-1.2448,-1.2098,-1.1989,-1.1823,-1.1733,-1.1769,-1.1778,-1.1747,-1.1747,-1.1747,-1.1775,-1.1745,-1.1919,-1.2091,-1.2302,-1.2731,-1.3045,-1.3162,-1.3367,-1.347,-1.3492,-1.3492,-1.3492,-1.3375,-1.292,-1.2344,-1.1816,-1.1329,-1.0775,-1.003,-0.9879,-0.9884,-0.9884,-0.9873,-0.9873,-0.9868,-0.9776,-0.9548,-0.9259,-0.8733,-0.826,-0.7902,-0.749,-0.7132,-0.7089,-0.7008,-0.6963,-0.6939,-0.678,-0.6664,-0.6656,-0.6611,-0.6499,-0.6401,-0.636,-0.6299,-0.6139,-0.6057,-0.5987,-0.5785,-0.5448,-0.515,-0.4885,-0.4652,-0.4389,-0.3954,-0.3451,-0.2913,-2.928,-2.9239,-2.9301,-2.9311,-2.9187,-2.8411,-2.8224,-2.8442,-2.7734,-2.7552,-2.7903,-2.7903,-2.7686,-2.7527,-2.7779,-2.7665,-2.7309,-2.6884,-2.6372,-2.5937,-2.6003,-2.6013,-2.584,-2.5204,-2.4421,-2.368,-2.1862,-2.0521,-1.985,-1.9899,-1.9371,-1.8411,-1.845,-1.801,-1.7264,-1.7274,-1.715,-1.6894,-1.6888,-1.6572,-1.5987,-1.5644,-1.5248,-1.4648,-1.4201,-1.3741,-1.3125,-1.2716,-1.2361,-1.2105,-1.2058,-1.205,-1.2125,-1.218,-1.2135,-1.2157,-1.2142,-1.2122,-1.2056,-1.212,-1.2442,-1.2789,-1.3001,-1.317,-1.3389,-1.347,-1.3492,-1.3492,-1.3492,-1.3492,-1.3492,-1.3426,-1.2901,-1.1929,-1.1595,-1.1111,-1.0218,-0.9884,-0.9884,-0.9884,-0.9884,-0.9884,-0.9884,-0.9857,-0.9771,-0.9548,-0.9186,-0.8805,-0.8465,-0.7997,-0.7554,-0.7294,-0.7253,-0.7276,-0.7133,-0.7027,-0.6992,-0.6984,-0.6922,-0.683,-0.6674,-0.6625,-0.6499,-0.6388,-0.6267,-0.6193,-0.6152,-0.5885,-0.5918,-0.5716,-0.5521,-0.5256,-0.4885,-0.4348,-0.3682,-2.9591,-2.9363,-2.9653,-2.9777,-2.9704,-2.9125,-2.897,-2.898,-2.811,-2.7986,-2.8286,-2.8069,-2.8007,-2.8193,-2.8359,-2.8317,-2.8162,-2.7696,-2.7086,-2.6573,-2.6729,-2.6677,-2.6403,-2.6121,-2.5199,-2.369,-2.2289,-2.1223,-2.0483,-1.9686,-1.8966,-1.8596,-1.8032,-1.7652,-1.7326,-1.7279,-1.726,-1.7194,-1.7179,-1.7016,-1.6843,-1.6345,-1.5912,-1.5467,-1.4933,-1.4418,-1.4014,-1.3282,-1.2826,-1.2687,-1.2718,-1.2778,-1.2818,-1.3039,-1.3071,-1.2835,-1.3039,-1.3037,-1.2823,-1.2968,-1.2993,-1.3079,-1.3214,-1.3375,-1.3477,-1.3492,-1.3492,-1.3492,-1.3492,-1.3492,-1.3492,-1.3492,-1.2973,-1.1861,-1.1669,-1.1223,-1.0148,-0.9889,-0.9884,-0.9884,-0.9884,-0.9884,-0.9889,-0.99,-0.9906,-0.9804,-0.9472,-0.913,-0.8965,-0.8603,-0.823,-0.7874,-0.7776,-0.7604,-0.7459,-0.7356,-0.7323,-0.7241,-0.7139,-0.7061,-0.6943,-0.6818,-0.6717,-0.6578,-0.6489,-0.6395,-0.6354,-0.6317,-0.6317,-0.6284,-0.5987,-0.5818,-0.5749,-0.5246,-0.4514,-2.9829,-2.9601,-2.988,-2.9994,-2.9942,-2.9497,-2.9404,-2.9404,-2.8576,-2.8452,-2.8731,-2.8576,-2.8483,-2.8638,-2.8783,-2.8763,-2.8597,-2.8297,-2.7872,-2.7345,-2.7247,-2.7143,-2.6801,-2.6535,-2.5248,-2.3437,-2.2643,-2.1805,-2.0771,-1.9819,-1.9204,-1.8917,-1.8047,-1.752,-1.7333,-1.7286,-1.7286,-1.7286,-1.7279,-1.7286,-1.723,-1.6866,-1.6448,-1.6038,-1.5452,-1.4955,-1.4627,-1.3815,-1.3401,-1.3429,-1.3377,-1.3359,-1.3484,-1.3751,-1.3767,-1.3626,-1.3567,-1.3524,-1.3327,-1.3305,-1.3349,-1.3235,-1.3382,-1.3484,-1.3492,-1.3492,-1.3492,-1.3492,-1.3492,-1.3492,-1.3492,-1.3492,-1.3046,-1.215,-1.1811,-1.1186,-1.0191,-0.997,-1.0062,-1.0089,-1.0143,-1.0169,-1.0147,-1.0089,-1.0067,-0.998,-0.9753,-0.9397,-0.9316,-0.9079,-0.8742,-0.8475,-0.832,-0.8074,-0.7766,-0.7693,-0.7655,-0.75,-0.7335,-0.7233,-0.7082,-0.7017,-0.6932,-0.668,-0.6534,-0.644,-0.6387,-0.6387,-0.6387,-0.6354,-0.6349,-0.6218,-0.605,-0.5914,-0.5315,-2.9994,-2.9994,-2.9994,-2.9994,-2.9953,-2.9559,-2.9601,-2.9787,-2.9042,-2.8918,-2.9259,-2.9218,-2.9063,-2.8866,-2.9197,-2.9156,-2.8763,-2.8669,-2.8628,-2.8328,-2.7862,-2.7423,-2.7152,-2.6421,-2.4996,-2.3323,-2.3078,-2.2311,-2.1103,-2.0361,-1.9872,-1.9319,-1.8512,-1.7815,-1.7434,-1.7286,-1.7286,-1.7286,-1.7286,-1.7286,-1.7311,-1.7004,-1.6764,-1.6426,-1.581,-1.5303,-1.5016,-1.4477,-1.4181,-1.4158,-1.3902,-1.3894,-1.4172,-1.4239,-1.4213,-1.4196,-1.3872,-1.3753,-1.3612,-1.3412,-1.3284,-1.3455,-1.3462,-1.3506,-1.355,-1.3587,-1.3616,-1.3653,-1.3645,-1.3609,-1.3616,-1.3623,-1.3321,-1.2705,-1.1981,-1.108,-1.0127,-1.011,-1.018,-1.0277,-1.0466,-1.0565,-1.0506,-1.0412,-1.032,-1.0234,-1.0056,-0.9779,-0.9511,-0.9316,-0.9127,-0.8932,-0.8742,-0.8513,-0.8212,-0.791,-0.7868,-0.7727,-0.7551,-0.7371,-0.7236,-0.7171,-0.6981,-0.6769,-0.6627,-0.6522,-0.6457,-0.6485,-0.6522,-0.6537,-0.6512,-0.6465,-0.6365,-0.6246,-0.6119,-2.9994,-2.9994,-2.9994,-2.9994,-2.9984,-2.9849,-2.987,-2.9922,-2.9394,-2.9373,-2.9673,-2.9446,-2.9446,-2.9632,-2.9735,-2.9735,-2.9539,-2.9259,-2.9125,-2.9032,-2.8545,-2.7862,-2.7139,-2.6144,-2.5447,-2.4851,-2.3812,-2.2933,-2.2421,-2.1159,-2.0197,-1.9383,-1.8759,-1.804,-1.7416,-1.7301,-1.7286,-1.7286,-1.7286,-1.7286,-1.7235,-1.7033,-1.6884,-1.6771,-1.6166,-1.5796,-1.5831,-1.5493,-1.4975,-1.4526,-1.4391,-1.4547,-1.4813,-1.4638,-1.4579,-1.4727,-1.4514,-1.43,-1.4238,-1.3963,-1.3729,-1.3506,-1.3521,-1.3601,-1.3843,-1.385,-1.3967,-1.4166,-1.4254,-1.4225,-1.424,-1.421,-1.3904,-1.3253,-1.2087,-1.0917,-1.0187,-0.9938,-1.0083,-1.0261,-1.0369,-1.0498,-1.056,-1.0522,-1.046,-1.0336,-1.0213,-1.0056,-0.9748,-0.9663,-0.9506,-0.9279,-0.9089,-0.8899,-0.8632,-0.8255,-0.8063,-0.7949,-0.7732,-0.7482,-0.7354,-0.7281,-0.7045,-0.6773,-0.6794,-0.6721,-0.666,-0.6639,-0.6684,-0.6725,-0.6619,-0.6542,-0.6684,-0.6692,-0.6641,-3.0356,-3.0015,-3.0201,-3.017,-3.0005,-2.9994,-2.9994,-2.9953,-2.9735,-2.9735,-2.9901,-2.9725,-2.9746,-2.9973,-2.9994,-2.9994,-2.9953,-2.9715,-2.9601,-2.9477,-2.8897,-2.8214,-2.7476,-2.6554,-2.6082,-2.5673,-2.4851,-2.3941,-2.297,-2.1727,-2.0654,-1.9805,-1.8913,-1.8141,-1.7614,-1.753,-1.745,-1.7315,-1.7286,-1.7286,-1.7257,-1.7157,-1.7045,-1.6907,-1.6396,-1.6057,-1.5725,-1.5615,-1.5304,-1.4767,-1.4728,-1.4883,-1.4919,-1.474,-1.4713,-1.4927,-1.4688,-1.4501,-1.4372,-1.4179,-1.3948,-1.377,-1.3697,-1.3865,-1.4106,-1.4225,-1.4342,-1.4452,-1.4504,-1.4504,-1.4482,-1.4394,-1.4062,-1.3517,-1.2497,-1.1487,-1.0733,-1.0813,-1.065,-1.0574,-1.053,-1.0622,-1.0762,-1.0627,-1.0509,-1.0406,-1.0223,-1.0083,-0.9916,-0.99,-0.9862,-0.9651,-0.9489,-0.9294,-0.9047,-0.8712,-0.8329,-0.8175,-0.7872,-0.7599,-0.7512,-0.7392,-0.7171,-0.6976,-0.7004,-0.6967,-0.6894,-0.6841,-0.6861,-0.6845,-0.6696,-0.6747,-0.689,-0.6963,-0.6951,-3.0895,-3.017,-3.0584,-3.0491,-3.0129,-3.0077,-3.0067,-2.9994,-2.9963,-2.9963,-2.9984,-2.9994,-2.9953,-2.9994,-2.9994,-2.9994,-2.9994,-2.9942,-2.9963,-2.9694,-2.9145,-2.8462,-2.7986,-2.7359,-2.6678,-2.5946,-2.5975,-2.4816,-2.3426,-2.2264,-2.1288,-2.0366,-1.9193,-1.8404,-1.8004,-1.7827,-1.7611,-1.7403,-1.7308,-1.7286,-1.7264,-1.7216,-1.7117,-1.7018,-1.6617,-1.5985,-1.549,-1.532,-1.5208,-1.4577,-1.4924,-1.4925,-1.4676,-1.4632,-1.4604,-1.4615,-1.4547,-1.4326,-1.4188,-1.4104,-1.4034,-1.4018,-1.4071,-1.4218,-1.4474,-1.4516,-1.4567,-1.4724,-1.4621,-1.4655,-1.4618,-1.434,-1.4175,-1.3901,-1.3489,-1.2765,-1.2145,-1.1916,-1.1611,-1.0795,-1.0859,-1.0955,-1.088,-1.0676,-1.0444,-1.0479,-1.0292,-1.0148,-1.003,-0.9932,-0.9992,-0.9953,-0.985,-0.977,-0.9453,-0.9139,-0.8716,-0.8404,-0.7966,-0.771,-0.7655,-0.7538,-0.7331,-0.7204,-0.72,-0.7131,-0.7049,-0.7024,-0.7033,-0.7024,-0.6971,-0.6996,-0.7049,-0.7065,-0.7033,-3.1311,-3.1091,-3.1184,-3.0967,-3.0584,-3.0532,-3.0336,-2.9994,-3.0005,-3.0025,-2.9994,-2.9994,-2.9994,-2.9994,-2.9994,-2.9994,-2.9994,-2.9994,-2.9994,-2.9922,-2.9456,-2.8918,-2.839,-2.7797,-2.7356,-2.6905,-2.5771,-2.4971,-2.4168,-2.305,-2.1903,-2.0974,-1.999,-1.9285,-1.8724,-1.7894,-1.7552,-1.7563,-1.7417,-1.7286,-1.7235,-1.7121,-1.715,-1.7214,-1.6814,-1.6266,-1.5791,-1.5565,-1.5275,-1.4941,-1.4744,-1.479,-1.4803,-1.4432,-1.4432,-1.4708,-1.4418,-1.4223,-1.4306,-1.4193,-1.4137,-1.4379,-1.4416,-1.4501,-1.4754,-1.4798,-1.4929,-1.5097,-1.5226,-1.5119,-1.5116,-1.4904,-1.4754,-1.4653,-1.4175,-1.3541,-1.2984,-1.2263,-1.1595,-1.1128,-1.0934,-1.0982,-1.0982,-1.088,-1.0713,-1.0592,-1.0399,-1.0239,-1.0116,-1.0003,-1.0013,-1.004,-1.0034,-0.9942,-0.9904,-0.9579,-0.9194,-0.8799,-0.8332,-0.7962,-0.7902,-0.7681,-0.7517,-0.7417,-0.7338,-0.7261,-0.7175,-0.7171,-0.7179,-0.7175,-0.7212,-0.722,-0.722,-0.7175,-0.7179,-3.1764,-3.1412,-3.1598,-3.1298,-3.0781,-3.0895,-3.0626,-3.0139,-3.0232,-3.0191,-3.0025,-2.9994,-2.9994,-2.9994,-2.9994,-2.9994,-2.9994,-2.9994,-2.9994,-2.9953,-2.9715,-2.9508,-2.9218,-2.8556,-2.8204,-2.7762,-2.6745,-2.5844,-2.4995,-2.3761,-2.2452,-2.1411,-2.0466,-1.9667,-1.9102,-1.8223,-1.7721,-1.7498,-1.7388,-1.7286,-1.7242,-1.7179,-1.7066,-1.7131,-1.6735,-1.6291,-1.5912,-1.5775,-1.542,-1.5028,-1.4769,-1.4688,-1.4759,-1.4477,-1.4477,-1.4637,-1.4679,-1.4403,-1.446,-1.4464,-1.4523,-1.467,-1.4692,-1.5035,-1.5235,-1.529,-1.5315,-1.5545,-1.5541,-1.5382,-1.5367,-1.5082,-1.5097,-1.5202,-1.4803,-1.4138,-1.3432,-1.257,-1.1716,-1.1202,-1.0977,-1.0982,-1.0966,-1.0896,-1.0783,-1.0565,-1.0238,-1.0045,-1.0046,-0.996,-0.9938,-1.0013,-1.0094,-1.0142,-1.0224,-1.0015,-0.9642,-0.926,-0.8848,-0.8509,-0.8269,-0.8018,-0.7715,-0.7584,-0.7449,-0.7457,-0.7354,-0.7358,-0.7342,-0.7346,-0.7384,-0.74,-0.7396,-0.7342,-0.735,-3.2219,-3.1598,-3.1864,-3.1588,-3.1019,-3.1309,-3.0957,-3.0253,-3.0501,-3.0387,-3.0056,-2.9994,-2.9994,-2.9994,-2.9994,-2.9994,-2.9994,-2.9994,-2.9994,-2.9973,-2.9953,-2.9808,-2.9632,-2.9342,-2.8766,-2.7928,-2.7131,-2.6427,-2.5468,-2.4212,-2.2877,-2.1859,-2.0798,-2.0159,-1.9464,-1.8735,-1.8184,-1.7779,-1.7655,-1.7461,-1.741,-1.7406,-1.7306,-1.7005,-1.6728,-1.6448,-1.6162,-1.5971,-1.565,-1.509,-1.5002,-1.4834,-1.4692,-1.4553,-1.4538,-1.4585,-1.4743,-1.4768,-1.4658,-1.4743,-1.4863,-1.4951,-1.4973,-1.5246,-1.5666,-1.5594,-1.556,-1.5616,-1.5597,-1.5389,-1.5409,-1.5185,-1.5163,-1.5231,-1.5085,-1.4461,-1.3694,-1.2924,-1.1974,-1.1275,-1.109,-1.1095,-1.0939,-1.081,-1.0697,-1.0517,-1.0195,-0.9986,-1.0024,-0.9992,-1.0056,-1.0007,-1.0126,-1.0272,-1.0354,-1.0557,-1.0136,-0.9862,-0.9431,-0.9096,-0.8766,-0.8409,-0.8078,-0.765,-0.7502,-0.751,-0.7506,-0.7435,-0.7439,-0.7518,-0.7518,-0.7456,-0.7468,-0.7496,-0.7508,-3.2225,-3.2478,-3.2112,-3.1884,-3.1836,-3.1853,-3.1412,-3.0677,-3.0667,-3.0419,-3.0036,-2.9994,-2.9994,-2.9994,-2.9994,-2.9994,-2.9994,-2.9994,-2.9994,-2.9994,-2.9984,-2.986,-2.9611,-2.9735,-2.9188,-2.7958,-2.7124,-2.6448,-2.5605,-2.4195,-2.3134,-2.2595,-2.1592,-2.0787,-2.0252,-1.9572,-1.8783,-1.8319,-1.813,-1.7933,-1.7779,-1.7677,-1.756,-1.7245,-1.6991,-1.6778,-1.6602,-1.6191,-1.5862,-1.5695,-1.5489,-1.5294,-1.5174,-1.4936,-1.4842,-1.4842,-1.49,-1.4915,-1.4863,-1.4878,-1.5061,-1.5221,-1.5279,-1.5321,-1.5492,-1.5472,-1.5472,-1.5472,-1.5514,-1.5389,-1.5389,-1.5294,-1.5316,-1.5276,-1.4956,-1.4448,-1.3999,-1.3209,-1.2137,-1.1374,-1.1235,-1.1214,-1.1042,-1.0896,-1.0832,-1.0746,-1.049,-1.0399,-1.0482,-1.0369,-1.0272,-1.0229,-1.0136,-1.0308,-1.0479,-1.0715,-1.072,-1.0527,-1.0162,-0.9802,-0.9406,-0.8909,-0.8502,-0.8007,-0.7669,-0.7504,-0.7539,-0.7526,-0.7518,-0.7518,-0.7504,-0.7533,-0.7533,-0.7575,-0.7629,-3.2473,-3.2716,-3.2432,-3.2204,-3.205,-3.2246,-3.1743,-3.0822,-3.0915,-3.0646,-3.016,-2.9994,-2.9994,-2.9994,-2.9994,-2.9994,-2.9994,-2.9994,-2.9994,-2.9994,-2.9973,-2.9911,-2.9653,-2.9911,-2.963,-2.8852,-2.7901,-2.6584,-2.5537,-2.4026,-2.3241,-2.2833,-2.1882,-2.1205,-2.0805,-1.9899,-1.9112,-1.8705,-1.8401,-1.8247,-1.8057,-1.7933,-1.7665,-1.7552,-1.7267,-1.7033,-1.6822,-1.6485,-1.6074,-1.5877,-1.5599,-1.5467,-1.5345,-1.5265,-1.5148,-1.5141,-1.5141,-1.5148,-1.5155,-1.5155,-1.5243,-1.5345,-1.5389,-1.5555,-1.559,-1.5597,-1.5431,-1.5389,-1.5389,-1.5389,-1.5389,-1.5389,-1.5389,-1.534,-1.5082,-1.4615,-1.3984,-1.33,-1.2454,-1.1607,-1.1402,-1.1311,-1.1214,-1.1095,-1.1004,-1.0896,-1.0737,-1.0764,-1.088,-1.0676,-1.0449,-1.0309,-1.0245,-1.0335,-1.0528,-1.0805,-1.0977,-1.0856,-1.0751,-1.0376,-0.9933,-0.9377,-0.8873,-0.8385,-0.8053,-0.7686,-0.7551,-0.7535,-0.7526,-0.7526,-0.7551,-0.7575,-0.7592,-0.762,-0.769,-3.2597,-3.2669,-3.2566,-3.238,-3.2204,-3.2504,-3.2075,-3.1174,-3.1247,-3.0905,-3.0191,-3.0036,-2.9942,-2.9942,-2.9942,-2.9931,-2.9994,-2.9942,-2.9942,-2.9994,-2.9942,-2.9931,-2.9994,-2.9942,-2.9796,-2.9282,-2.8714,-2.7328,-2.5625,-2.4149,-2.3359,-2.2656,-2.1776,-2.1162,-2.0688,-2.0007,-1.9205,-1.8734,-1.8496,-1.8482,-1.8335,-1.8094,-1.7867,-1.7816,-1.7552,-1.7282,-1.6989,-1.6697,-1.6441,-1.6126,-1.5768,-1.554,-1.5526,-1.5467,-1.5389,-1.5389,-1.5389,-1.5389,-1.5382,-1.5367,-1.5352,-1.5389,-1.5389,-1.5597,-1.5722,-1.5555,-1.5389,-1.5389,-1.5389,-1.5389,-1.5389,-1.5389,-1.5389,-1.5389,-1.5347,-1.5048,-1.4286,-1.3568,-1.2966,-1.2246,-1.1736,-1.1451,-1.1396,-1.1209,-1.116,-1.1091,-1.0978,-1.0951,-1.0973,-1.0772,-1.0557,-1.0374,-1.0315,-1.0417,-1.0595,-1.0821,-1.095,-1.0972,-1.0876,-1.0646,-1.0218,-0.9741,-0.9255,-0.8738,-0.8233,-0.7886,-0.7739,-0.7592,-0.7624,-0.7633,-0.7596,-0.7633,-0.7747,-0.774,-0.7772,-3.2297,-3.2628,-3.2246,-3.2266,-3.2566,-3.2649,-3.2359,-3.1781,-3.143,-3.1091,-3.0407,-3.018,-2.9827,-2.9711,-2.9659,-2.9774,-2.9879,-2.9827,-2.9827,-2.9994,-2.9774,-2.9774,-2.9942,-2.9994,-2.9617,-2.9237,-2.8857,-2.7785,-2.6215,-2.4741,-2.3469,-2.2482,-2.1827,-2.1097,-2.061,-2.0241,-1.976,-1.9258,-1.9133,-1.8994,-1.8723,-1.8416,-1.813,-1.7933,-1.7779,-1.764,-1.7326,-1.7011,-1.68,-1.6667,-1.6148,-1.5877,-1.5811,-1.5577,-1.5425,-1.5389,-1.5389,-1.5389,-1.5389,-1.5389,-1.5389,-1.5389,-1.5389,-1.5431,-1.5514,-1.5514,-1.5389,-1.5389,-1.5389,-1.5389,-1.5389,-1.5389,-1.5389,-1.5389,-1.5389,-1.5347,-1.4838,-1.3984,-1.3349,-1.293,-1.2418,-1.1946,-1.166,-1.1451,-1.1273,-1.1257,-1.123,-1.1193,-1.1096,-1.0902,-1.0654,-1.0471,-1.0396,-1.0482,-1.06,-1.0832,-1.0939,-1.0982,-1.0993,-1.0903,-1.058,-1.0118,-0.9577,-0.9083,-0.8608,-0.8188,-0.8012,-0.7886,-0.782,-0.7767,-0.7724,-0.7817,-0.7943,-0.7943,-0.7894,-3.2494,-3.2628,-3.2051,-3.2066,-3.2399,-3.2258,-3.1793,-3.1202,-3.0948,-3.0459,-2.9921,-2.9835,-2.9711,-2.9606,-2.9606,-2.9669,-2.9774,-2.9774,-2.9889,-2.9889,-2.9722,-2.9659,-2.9711,-2.9774,-2.9448,-2.929,-2.9069,-2.8412,-2.6903,-2.5313,-2.3867,-2.3316,-2.2151,-2.1456,-2.0854,-2.0602,-2.0129,-1.9694,-1.9374,-1.9213,-1.9016,-1.876,-1.8511,-1.8357,-1.8182,-1.8013,-1.7794,-1.7369,-1.7143,-1.6974,-1.6389,-1.5928,-1.584,-1.5593,-1.5389,-1.5389,-1.5389,-1.5389,-1.5389,-1.5389,-1.5389,-1.5389,-1.5389,-1.5431,-1.5389,-1.5389,-1.5389,-1.5389,-1.5389,-1.5389,-1.5389,-1.5389,-1.5389,-1.5389,-1.5389,-1.5173,-1.4957,-1.4489,-1.3851,-1.347,-1.3137,-1.2668,-1.2412,-1.2534,-1.2192,-1.1585,-1.1612,-1.1595,-1.1379,-1.1052,-1.0805,-1.0522,-1.049,-1.0512,-1.0624,-1.0826,-1.0934,-1.1015,-1.1176,-1.1085,-1.0932,-1.0516,-0.9925,-0.9545,-0.917,-0.8824,-0.8416,-0.8122,-0.7931,-0.7902,-0.7902,-0.7979,-0.8048,-0.8012,-0.7963,-3.2385,-3.2399,-3.1937,-3.1942,-3.2133,-3.1893,-3.1435,-3.0842,-3.0616,-3.0097,-2.9598,-2.9538,-2.9501,-2.9554,-2.9501,-2.9448,-2.9448,-2.9617,-2.9784,-2.9732,-2.9617,-2.9448,-2.9554,-2.9554,-2.9448,-2.9501,-2.9501,-2.8847,-2.7599,-2.6082,-2.4928,-2.4049,-2.201,-2.1385,-2.1256,-2.0796,-2.0156,-1.981,-1.958,-1.9426,-1.922,-1.9089,-1.8877,-1.8723,-1.8562,-1.8386,-1.8225,-1.7772,-1.7417,-1.7296,-1.6674,-1.6213,-1.6052,-1.5789,-1.5498,-1.5469,-1.5469,-1.5526,-1.5474,-1.5389,-1.5389,-1.5389,-1.5389,-1.5389,-1.5389,-1.5389,-1.5389,-1.5389,-1.5389,-1.5389,-1.5389,-1.5389,-1.5389,-1.5389,-1.5389,-1.5041,-1.4741,-1.4482,-1.4265,-1.3977,-1.3682,-1.3519,-1.3392,-1.373,-1.3264,-1.224,-1.1946,-1.1989,-1.1599,-1.1181,-1.0966,-1.0683,-1.0592,-1.0624,-1.0748,-1.0891,-1.0966,-1.1036,-1.1198,-1.1134,-1.0932,-1.0662,-1.0167,-0.9847,-0.9618,-0.9126,-0.8556,-0.8286,-0.8081,-0.8085,-0.8085,-0.8085,-0.8101,-0.8081,-0.8096,-3.1462,-3.1903,-3.214,-3.2082,-3.1825,-3.1845,-3.1727,-3.1268,-3.0731,-3.0389,-3.0043,-2.9628,-2.9351,-2.9522,-2.9363,-2.9237,-2.9132,-2.8887,-2.9205,-2.9363,-2.9142,-2.9142,-2.9248,-2.9237,-2.9132,-2.9185,-2.9343,-2.9142,-2.8441,-2.7213,-2.5197,-2.2921,-2.2031,-2.0973,-2.0574,-2.0565,-2.021,-1.9908,-1.9801,-1.9572,-1.9456,-1.9287,-1.9118,-1.8869,-1.876,-1.8621,-1.8328,-1.7977,-1.7772,-1.7743,-1.7047,-1.6624,-1.6375,-1.6045,-1.5804,-1.5679,-1.5774,-1.576,-1.565,-1.5491,-1.5403,-1.5396,-1.5396,-1.5418,-1.5476,-1.5411,-1.5389,-1.5418,-1.5433,-1.5389,-1.5389,-1.5389,-1.5389,-1.5389,-1.5389,-1.5305,-1.4999,-1.4741,-1.4524,-1.4391,-1.423,-1.411,-1.4075,-1.4328,-1.3899,-1.2881,-1.2155,-1.2155,-1.1595,-1.1198,-1.1095,-1.0929,-1.0731,-1.0753,-1.0945,-1.1031,-1.1085,-1.1095,-1.1134,-1.1005,-1.0781,-1.0528,-1.0489,-1.0028,-0.9712,-0.9187,-0.8771,-0.8472,-0.8318,-0.8272,-0.8268,-0.8272,-0.8272,-0.8272,-0.8349,-3.1371,-3.113,-3.1552,-3.1464,-3.11,-3.0918,-3.0488,-3.0004,-2.9648,-2.9629,-2.9774,-2.9445,-2.9447,-2.9571,-2.954,-2.929,-2.9132,-2.9237,-2.93,-2.9142,-2.8983,-2.8887,-2.894,-2.894,-2.8824,-2.893,-2.9142,-2.9142,-2.8621,-2.777,-2.667,-2.4775,-2.3022,-2.18,-2.1236,-2.0674,-2.0347,-2.0142,-2.0033,-1.9894,-1.9705,-1.961,-1.9418,-1.9125,-1.9089,-1.9045,-1.8855,-1.8379,-1.8196,-1.7896,-1.7328,-1.6947,-1.6683,-1.6352,-1.6133,-1.5979,-1.6118,-1.6082,-1.5965,-1.5811,-1.5608,-1.5411,-1.5403,-1.5476,-1.5687,-1.5528,-1.5549,-1.5557,-1.552,-1.5526,-1.5396,-1.5396,-1.5389,-1.5389,-1.5411,-1.5425,-1.5393,-1.5127,-1.5043,-1.5014,-1.4909,-1.4748,-1.4748,-1.4831,-1.4237,-1.3561,-1.2839,-1.2192,-1.1595,-1.1236,-1.115,-1.1107,-1.0973,-1.0951,-1.1096,-1.1139,-1.1155,-1.1144,-1.1139,-1.1037,-1.0935,-1.1022,-1.0897,-1.0355,-0.9861,-0.9488,-0.9109,-0.8717,-0.8545,-0.8465,-0.8477,-0.8506,-0.8506,-0.8486,-0.8535,-3.0816,-3.0418,-3.0705,-3.0655,-3.0362,-3.0417,-2.9922,-2.9209,-2.9141,-2.9099,-2.9203,-2.9193,-2.9345,-2.9504,-2.9462,-2.9248,-2.9089,-2.9185,-2.9142,-2.9036,-2.8834,-2.8674,-2.8684,-2.8621,-2.8558,-2.8621,-2.8781,-2.8834,-2.8514,-2.777,-2.6978,-2.6054,-2.4901,-2.3499,-2.1979,-2.1167,-2.0706,-2.0402,-2.03,-2.0142,-1.9835,-1.9786,-1.9639,-1.9272,-1.914,-1.9052,-1.8847,-1.843,-1.8116,-1.7874,-1.7472,-1.7018,-1.6859,-1.6705,-1.6529,-1.6477,-1.6492,-1.6521,-1.6338,-1.6184,-1.595,-1.5826,-1.5774,-1.5884,-1.5913,-1.5833,-1.5913,-1.5994,-1.5848,-1.5672,-1.5613,-1.5613,-1.5628,-1.5622,-1.5657,-1.5679,-1.5811,-1.5705,-1.5712,-1.5705,-1.5447,-1.5042,-1.4691,-1.4564,-1.3968,-1.3411,-1.2881,-1.2155,-1.1553,-1.1284,-1.1273,-1.1252,-1.1225,-1.1246,-1.13,-1.1262,-1.1225,-1.1236,-1.1236,-1.1257,-1.1236,-1.1311,-1.1132,-1.0567,-1.013,-0.9811,-0.9371,-0.8873,-0.8671,-0.86,-0.8596,-0.858,-0.858,-0.8555,-0.8571,-2.9675,-2.9646,-2.9685,-2.9675,-2.9685,-3.0536,-3.0264,-2.9404,-2.9404,-2.9182,-2.8872,-2.8813,-2.8963,-2.9146,-2.9265,-2.9142,-2.893,-2.9079,-2.9036,-2.8834,-2.8727,-2.8674,-2.8568,-2.8461,-2.8398,-2.8398,-2.8558,-2.8568,-2.8354,-2.8291,-2.7682,-2.6788,-2.5746,-2.462,-2.2942,-2.1744,-2.1077,-2.0764,-2.0664,-2.0369,-1.9967,-1.9918,-1.9725,-1.9308,-1.9089,-1.8994,-1.8767,-1.8269,-1.7955,-1.7808,-1.7468,-1.7157,-1.6983,-1.6939,-1.6778,-1.6565,-1.6771,-1.6734,-1.6477,-1.6389,-1.6338,-1.6235,-1.6126,-1.6287,-1.6367,-1.6353,-1.6279,-1.633,-1.6301,-1.6126,-1.6016,-1.5906,-1.5906,-1.5906,-1.5906,-1.5935,-1.6067,-1.6126,-1.6082,-1.606,-1.56,-1.51,-1.4639,-1.4173,-1.3615,-1.3131,-1.2717,-1.2155,-1.1478,-1.1311,-1.1311,-1.1311,-1.1311,-1.1311,-1.1311,-1.1311,-1.13,-1.1311,-1.1311,-1.1311,-1.1311,-1.1311,-1.1041,-1.0636,-1.0246,-0.982,-0.9388,-0.8907,-0.8784,-0.8616,-0.8616,-0.8608,-0.8612,-0.8616,-0.8616,-2.9404,-2.917,-2.9453,-2.9248,-2.8848,-2.9326,-2.9248,-2.8838,-2.8975,-2.9019,-2.8923,-2.9055,-2.9173,-2.9309,-2.9316,-2.9237,-2.9026,-2.9237,-2.9237,-2.8727,-2.8674,-2.8568,-2.8461,-2.8354,-2.8301,-2.8291,-2.8408,-2.8408,-2.8301,-2.8408,-2.8086,-2.725,-2.5775,-2.4247,-2.3023,-2.1873,-2.1115,-2.1064,-2.0991,-2.0757,-2.0194,-2.0216,-2.0025,-1.9352,-1.9169,-1.8979,-1.876,-1.8152,-1.783,-1.775,-1.7425,-1.7274,-1.7157,-1.7135,-1.7091,-1.6989,-1.715,-1.7121,-1.7018,-1.6974,-1.6777,-1.6572,-1.6477,-1.6573,-1.6683,-1.6507,-1.6551,-1.6631,-1.658,-1.6433,-1.6279,-1.6265,-1.6213,-1.6213,-1.6213,-1.6221,-1.6331,-1.6345,-1.6287,-1.6272,-1.6029,-1.5383,-1.4865,-1.3724,-1.3012,-1.2892,-1.2565,-1.2066,-1.144,-1.1311,-1.1311,-1.1311,-1.1311,-1.1311,-1.1311,-1.1311,-1.1311,-1.1311,-1.1311,-1.1311,-1.1311,-1.1267,-1.0997,-1.0598,-1.025,-0.9864,-0.9345,-0.8872,-0.87,-0.8616,-0.8616,-0.8616,-0.8616,-0.8616,-0.8616,-2.8955,-2.876,-2.916,-2.8945,-2.8467,-2.9053,-2.9131,-2.8769,-2.873,-2.8701,-2.8746,-2.8928,-2.908,-2.9152,-2.9196,-2.9248,-2.9036,-2.9396,-2.9132,-2.8674,-2.8781,-2.8621,-2.8408,-2.8301,-2.8301,-2.8301,-2.8301,-2.8301,-2.8301,-2.8301,-2.8121,-2.7366,-2.5442,-2.4381,-2.3254,-2.2312,-2.1203,-2.1174,-2.1115,-2.094,-2.0559,-2.0398,-2.023,-1.9703,-1.9316,-1.8994,-1.8672,-1.8247,-1.7757,-1.7625,-1.7472,-1.7286,-1.7286,-1.7286,-1.7286,-1.7286,-1.7279,-1.7271,-1.7242,-1.7235,-1.7047,-1.6821,-1.6704,-1.6799,-1.7005,-1.6857,-1.6879,-1.6894,-1.6769,-1.6697,-1.6602,-1.6602,-1.658,-1.658,-1.658,-1.6587,-1.6682,-1.6704,-1.6704,-1.6667,-1.6007,-1.552,-1.4779,-1.3501,-1.2361,-1.2426,-1.2455,-1.1942,-1.1473,-1.1359,-1.1316,-1.1311,-1.1311,-1.1311,-1.1311,-1.1311,-1.1311,-1.1311,-1.1311,-1.1267,-1.1132,-1.1084,-1.0819,-1.0559,-1.0168,-0.9738,-0.9174,-0.8828,-0.8656,-0.8616,-0.8616,-0.8616,-0.8616,-0.8616,-0.8616,-2.8301,-2.835,-2.873,-2.8672,-2.8535,-2.9443,-2.9736,-2.946,-2.8672,-2.8359,-2.832,-2.835,-2.854,-2.867,-2.8737,-2.8791,-2.8834,-2.93,-2.9036,-2.8717,-2.8771,-2.8611,-2.8398,-2.8301,-2.8301,-2.8301,-2.8301,-2.8301,-2.8291,-2.8164,-2.8144,-2.7645,-2.5523,-2.4554,-2.3684,-2.2482,-2.1338,-2.1123,-2.1159,-2.0933,-2.0548,-2.0431,-2.0355,-1.9952,-1.9491,-1.9045,-1.865,-1.8203,-1.7728,-1.7439,-1.7293,-1.7286,-1.7286,-1.7286,-1.7286,-1.7286,-1.7286,-1.7286,-1.7286,-1.7286,-1.7271,-1.715,-1.7216,-1.7257,-1.7267,-1.7186,-1.7179,-1.7201,-1.7135,-1.7018,-1.6923,-1.6894,-1.6872,-1.6865,-1.691,-1.6982,-1.7165,-1.7216,-1.7208,-1.6768,-1.5812,-1.5029,-1.408,-1.2876,-1.2237,-1.2303,-1.2361,-1.2015,-1.1613,-1.1375,-1.1321,-1.1311,-1.1311,-1.1311,-1.1316,-1.1327,-1.1311,-1.1311,-1.1267,-1.1262,-1.1084,-1.0829,-1.0559,-1.0255,-1.0043,-0.9607,-0.9003,-0.8744,-0.8656,-0.8616,-0.8616,-0.8616,-0.8616,-0.8616,-0.8616,-2.8301,-2.831,-2.8428,-2.8408,-2.8359,-2.8691,-2.876,-2.8652,-2.8662,-2.8603,-2.8301,-2.8301,-2.8354,-2.8408,-2.8631,-2.8674,-2.8834,-2.8983,-2.893,-2.8824,-2.8727,-2.8558,-2.8398,-2.8301,-2.8301,-2.8301,-2.8301,-2.8291,-2.8213,-2.8066,-2.8096,-2.7781,-2.5658,-2.4826,-2.3834,-2.2418,-2.1496,-2.0991,-2.1086,-2.0867,-2.0635,-2.0625,-2.0486,-2.0135,-1.9689,-1.9228,-1.8767,-1.8203,-1.7728,-1.7421,-1.7301,-1.7286,-1.7286,-1.7286,-1.7286,-1.7286,-1.7286,-1.7286,-1.7286,-1.7286,-1.7286,-1.7286,-1.7286,-1.7286,-1.7286,-1.7286,-1.7286,-1.7286,-1.7286,-1.7194,-1.7143,-1.7128,-1.7113,-1.7106,-1.7113,-1.7208,-1.7323,-1.7374,-1.7327,-1.6644,-1.5688,-1.4632,-1.3601,-1.2925,-1.239,-1.2423,-1.2314,-1.2048,-1.1785,-1.1552,-1.1445,-1.1439,-1.1429,-1.1466,-1.138,-1.137,-1.1332,-1.1311,-1.1326,-1.1228,-1.0907,-1.0596,-1.028,-0.9917,-0.9586,-0.9187,-0.874,-0.8612,-0.8616,-0.8616,-0.8616,-0.8616,-0.8616,-0.8616,-0.8616,-2.8301,-2.832,-2.8476,-2.8535,-2.8545,-2.8545,-2.8457,-2.8379,-2.8574,-2.8506,-2.831,-2.8301,-2.8291,-2.8344,-2.8461,-2.8514,-2.8568,-2.8771,-2.8771,-2.8558,-2.8631,-2.8514,-2.8398,-2.8301,-2.8301,-2.8301,-2.8301,-2.8291,-2.8223,-2.8115,-2.8105,-2.8053,-2.5828,-2.499,-2.4141,-2.2871,-2.15,-2.1021,-2.0837,-2.0735,-2.0684,-2.0596,-2.0355,-2.0252,-1.985,-1.9367,-1.8972,-1.8343,-1.7882,-1.753,-1.745,-1.7286,-1.7286,-1.7286,-1.7286,-1.7286,-1.7286,-1.7286,-1.7286,-1.7286,-1.7286,-1.7286,-1.7286,-1.7286,-1.7286,-1.7286,-1.7286,-1.7286,-1.7286,-1.7271,-1.7279,-1.7279,-1.7279,-1.7271,-1.7301,-1.733,-1.7403,-1.7476,-1.7042,-1.6409,-1.5488,-1.4406,-1.3544,-1.2933,-1.2538,-1.2579,-1.2482,-1.2283,-1.207,-1.1898,-1.1795,-1.1758,-1.172,-1.1704,-1.1607,-1.152,-1.1563,-1.165,-1.1715,-1.1486,-1.0904,-1.0573,-1.0424,-0.9762,-0.905,-0.8781,-0.8649,-0.862,-0.8616,-0.8624,-0.8629,-0.862,-0.862,-0.8616,-0.8616,-2.8301,-2.832,-2.8701,-2.8799,-2.8857,-2.8809,-2.8613,-2.831,-2.832,-2.8301,-2.8301,-2.8301,-2.8301,-2.8291,-2.8344,-2.8354,-2.8408,-2.8568,-2.8558,-2.8344,-2.8514,-2.8461,-2.8344,-2.8301,-2.8301,-2.8301,-2.8301,-2.8301,-2.8301,-2.8223,-2.8193,-2.8208,-2.6698,-2.555,-2.4531,-2.3197,-2.194,-2.1001,-2.0742,-2.0596,-2.0486,-2.0223,-1.9916,-2.0091,-1.9747,-1.9294,-1.9111,-1.8708,-1.8182,-1.7867,-1.764,-1.7486,-1.7374,-1.7421,-1.7366,-1.7465,-1.7516,-1.7447,-1.7479,-1.7457,-1.7377,-1.7355,-1.7286,-1.7286,-1.7286,-1.7286,-1.7286,-1.7286,-1.7286,-1.7286,-1.7286,-1.7286,-1.7286,-1.7337,-1.7435,-1.7523,-1.7633,-1.74,-1.6773,-1.6031,-1.5063,-1.4018,-1.337,-1.2759,-1.2651,-1.271,-1.2662,-1.2468,-1.2366,-1.2251,-1.2127,-1.2051,-1.1964,-1.1927,-1.1932,-1.1871,-1.1981,-1.2029,-1.2046,-1.1547,-1.0849,-1.0637,-1.0639,-0.9768,-0.8901,-0.8807,-0.8658,-0.8669,-0.8657,-0.8629,-0.8625,-0.8593,-0.8633,-0.8661,-0.8629,-2.8301,-2.8301,-2.8398,-2.8437,-2.8447,-2.8437,-2.8398,-2.8301,-2.8301,-2.8301,-2.8301,-2.8301,-2.8301,-2.8301,-2.8301,-2.8301,-2.8354,-2.8354,-2.8354,-2.8291,-2.8408,-2.8408,-2.8291,-2.8301,-2.8301,-2.8301,-2.8301,-2.8301,-2.8301,-2.8301,-2.8237,-2.8121,-2.6999,-2.5973,-2.4701,-2.3443,-2.2353,-2.1053,-2.0552,-2.0377,-2.0234,-2.0227,-2.0179,-2.0098,-1.9784,-1.9462,-1.9235,-1.8891,-1.8503,-1.8211,-1.8138,-1.7955,-1.7728,-1.7706,-1.7699,-1.7735,-1.7882,-1.7845,-1.7743,-1.7655,-1.756,-1.7399,-1.7301,-1.7286,-1.7286,-1.7286,-1.7286,-1.7286,-1.7286,-1.7286,-1.7286,-1.7286,-1.7323,-1.745,-1.7538,-1.7677,-1.7775,-1.7169,-1.6481,-1.5618,-1.4622,-1.3825,-1.3172,-1.2937,-1.2845,-1.2797,-1.2786,-1.2721,-1.2651,-1.2575,-1.2359,-1.2262,-1.2121,-1.2083,-1.2143,-1.2197,-1.2251,-1.2167,-1.2099,-1.1502,-1.0742,-1.0274,-0.9923,-0.9455,-0.8894,-0.8857,-0.8755,-0.8722,-0.8714,-0.8723,-0.8723,-0.8718,-0.8743,-0.8775,-0.8686,-2.8301,-2.8301,-2.8301,-2.8301,-2.8301,-2.8301,-2.8301,-2.8301,-2.8301,-2.8301,-2.8301,-2.8301,-2.8301,-2.8301,-2.8301,-2.8301,-2.8301,-2.8301,-2.8301,-2.8301,-2.8301,-2.8301,-2.8301,-2.8301,-2.8301,-2.8301,-2.8301,-2.8301,-2.833,-2.8301,-2.8237,-2.8213,-2.7431,-2.6409,-2.4931,-2.385,-2.2648,-2.1004,-2.0362,-2.0098,-2.0011,-1.9938,-1.9835,-1.9725,-1.963,-1.9418,-1.9272,-1.8979,-1.8738,-1.8489,-1.8364,-1.8225,-1.8057,-1.8028,-1.8028,-1.8064,-1.8145,-1.8225,-1.8057,-1.7911,-1.7772,-1.7604,-1.7377,-1.7369,-1.7286,-1.7286,-1.7286,-1.7286,-1.7286,-1.7286,-1.7286,-1.7286,-1.7479,-1.7596,-1.7728,-1.7867,-1.7696,-1.7266,-1.6678,-1.6075,-1.4873,-1.3529,-1.3051,-1.2872,-1.2797,-1.2813,-1.2813,-1.2845,-1.2845,-1.2905,-1.2689,-1.2521,-1.2418,-1.2397,-1.2489,-1.2505,-1.2499,-1.2398,-1.2172,-1.148,-1.0691,-0.9806,-0.9131,-0.9122,-0.909,-0.9012,-0.8947,-0.889,-0.8902,-0.8926,-0.8901,-0.891,-0.8901,-0.8942,-0.8889,-2.8301,-2.8301,-2.8301,-2.8301,-2.8301,-2.8301,-2.8301,-2.8301,-2.8301,-2.8301,-2.8301,-2.8301,-2.8301,-2.8301,-2.8301,-2.8301,-2.8301,-2.8301,-2.8301,-2.8301,-2.8301,-2.8301,-2.8301,-2.8301,-2.8301,-2.8301,-2.8301,-2.8379,-2.8457,-2.8379,-2.833,-2.8379,-2.7857,-2.7152,-2.5382,-2.42,-2.3149,-2.1214,-2.0245,-1.9911,-1.9698,-1.9507,-1.9396,-1.9323,-1.9272,-1.9272,-1.9177,-1.9111,-1.8869,-1.8738,-1.8591,-1.8452,-1.8386,-1.8357,-1.8364,-1.8401,-1.8496,-1.8489,-1.835,-1.8174,-1.8021,-1.7838,-1.7567,-1.7465,-1.7465,-1.7472,-1.7472,-1.7472,-1.7425,-1.7344,-1.7344,-1.7516,-1.7677,-1.7794,-1.794,-1.8012,-1.7752,-1.7463,-1.7007,-1.6433,-1.5107,-1.3657,-1.3325,-1.3183,-1.2894,-1.2905,-1.2889,-1.2899,-1.2948,-1.3067,-1.3034,-1.2916,-1.2824,-1.2829,-1.2791,-1.2743,-1.2689,-1.2379,-1.2038,-1.1371,-1.064,-0.9788,-0.9306,-0.9367,-0.9318,-0.9137,-0.9112,-0.9084,-0.9108,-0.9116,-0.9031,-0.8991,-0.9139,-0.9125,-0.9129,-2.8301,-2.8301,-2.8301,-2.8301,-2.8301,-2.8301,-2.8301,-2.8301,-2.8301,-2.8301,-2.8301,-2.8301,-2.8301,-2.8301,-2.8301,-2.8301,-2.8301,-2.8301,-2.8301,-2.8301,-2.8301,-2.8301,-2.8301,-2.8301,-2.8301,-2.8301,-2.833,-2.8476,-2.83,-2.831,-2.8569,-2.8982,-2.8467,-2.7337,-2.562,-2.4446,-2.319,-2.1408,-2.0182,-1.9764,-1.9698,-1.9529,-1.9316,-1.9272,-1.9272,-1.9272,-1.925,-1.9272,-1.9191,-1.9089,-1.8899,-1.8745,-1.8694,-1.8694,-1.8701,-1.8738,-1.884,-1.8825,-1.8701,-1.854,-1.8401,-1.8211,-1.8021,-1.7991,-1.7999,-1.8006,-1.7999,-1.7977,-1.7896,-1.7647,-1.7655,-1.7918,-1.8108,-1.813,-1.8225,-1.8254,-1.8098,-1.7818,-1.7474,-1.6658,-1.5597,-1.4791,-1.4453,-1.3987,-1.327,-1.3238,-1.3233,-1.3233,-1.3256,-1.3265,-1.3353,-1.3166,-1.307,-1.2991,-1.2851,-1.2797,-1.2716,-1.2381,-1.1932,-1.1247,-1.0551,-0.989,-0.9549,-0.9506,-0.938,-0.9246,-0.9246,-0.9299,-0.9275,-0.9254,-0.9145,-0.9112,-0.9234,-0.9355,-0.9307]},{"header":{"parameterUnit":"m.s-1","parameterCategory":1,"la1":31.0,"la2":29.5877,"lo1":-88.7671,"lo2":-86.6584,"dy":0.0162,"dx":0.0185,"nx":115,"ny":88,"refTime":"2023-04-19T06:00:00:Z","depth":0,"parameterNumber":3,"parameterNumberName":"V-component_of_WINDS"},"data":[0.0,0.0,0.0,0.0,0.0,0.0,0.0,0.0,0.0,0.0,0.0,0.0,0.0,0.0,0.0,0.0,0.0,0.0,0.0,0.0,0.0,0.0,0.0,0.0,0.0,0.0,0.0,0.0,0.0,0.0,0.0,0.0,0.0,0.0,0.0,0.0,0.0,0.0,0.0,0.0,0.0,0.0,0.0,0.0,0.0,0.0,0.0,0.0,0.0,0.0,0.0,0.0,0.0,0.0,0.0,0.0,0.0,0.0,0.0,0.0,0.0,0.0,0.0,0.0,0.0,0.0,0.0,0.0,0.0,0.0,0.0,0.0,0.0,0.0,0.0,0.0,0.0,0.0,0.0,0.0,0.0,0.0,0.0,0.0,0.0,0.0,0.0,0.0,0.0,0.0,0.0,0.0,0.0,0.0,0.0,0.0,0.0,0.0,0.0,0.0,0.0,0.0,0.0,0.0,0.0,0.0,0.0,0.0,0.0,0.0,0.0,0.0,0.0,0.0,0.0,0.0,0.0,0.0,0.0,0.0,0.0,0.0,0.0,0.0,0.0,0.0,0.0,0.0,0.0,0.0,0.0,0.0,0.0,0.0,0.0,0.0,0.0,0.0,0.0,0.0,0.0,0.0,0.0,0.0,0.0,0.0,0.0,0.0,0.0,0.0,0.0,0.0,0.0,0.0,0.0,0.0,0.0,0.0,0.0,0.0,0.0,0.0,0.0,0.0,0.0,0.0,0.0,0.0,0.0,0.0,0.0,0.0,0.0,0.0,0.0,0.0,0.0,0.0,0.0,0.0,0.0,0.0,0.0,0.0,0.0,0.0,0.0,0.0,0.0,0.0,0.0,0.0,0.0,0.0,0.0,0.0,0.0,0.0,0.0,0.0,0.0,0.0,0.0,0.0,0.0,0.0,0.0,0.0,0.0,0.0,0.0,0.0,0.0,0.0,0.0,0.0,0.0,0.0,0.0,0.0,0.0,0.0,0.0,0.0,0.0,0.0,0.0,0.0,0.0,0.0,0.0,0.0,0.0,0.0,0.0,0.0,0.0,0.0,0.0,0.0,0.0,0.0,0.0,0.0,0.0,0.0,0.0,0.0,0.0,0.0,0.0,0.0,0.0,0.0,0.0,0.0,0.0,0.0,0.0,0.0,0.0,0.0,0.0,0.0,0.0,0.0,0.0,0.0,0.0,0.0,0.0,0.0,0.0,0.0,0.0,0.0,0.0,0.0,0.0,0.0,0.0,0.0,0.0,0.0,0.0,0.0,0.0,0.0,0.0,0.0,0.0,0.0,0.0,0.0,0.0,0.0,0.0,0.0,0.0,0.0,0.0,0.0,0.0,0.0,0.0,0.0,0.0,0.0,0.0,0.0,0.0,0.0,0.0,0.0,0.0,0.0,0.0,0.0,0.0,0.0,0.0,0.0,0.0,0.0,0.0,0.0,0.0,0.0,0.0,0.0,0.0,0.0,0.0,0.0,0.0,0.0,0.0,0.0,0.0,0.0,0.0,0.0,0.0,0.0,0.0,0.0,0.0,0.0,0.0,0.0,0.0,0.0,0.0,0.0,0.0,0.0,0.0,0.0,0.0,0.0,0.0,0.0,0.0,0.0,0.0,0.0,0.0,0.0,0.0,0.0,0.0,0.0,0.0,0.0,0.0,0.0,0.0,0.0,0.0,0.0,0.0,0.0,0.0,0.0,0.0,0.0,0.0,0.0,0.0,0.0,0.0,0.0,0.0,0.0,0.0,0.0,0.0,0.0,0.0,0.0,0.0,0.0,0.0,0.0,0.0,0.0,0.0,0.0,0.0,0.0,0.0,0.0,0.0,0.0,0.0,0.0,0.0,0.0,0.0,0.0,0.0,0.0,0.0,0.0,0.0,0.0,0.0,0.0,0.0,0.0,0.0,0.0,0.0,0.0,0.0,0.0,0.0,0.0,0.0,0.0,0.0,0.0,0.0,0.0,0.0,0.0,0.0,0.0,0.0,0.0,0.0,0.0,0.0,0.0,0.0,0.0,0.0,0.0,0.0,0.0,0.0,0.0,0.0,0.0,0.0,0.0,0.0,0.0,0.0,0.0,0.0,0.0,0.0,0.0,0.0,0.0,0.0,0.0,0.0,0.0,0.0,0.0,0.0,0.0,0.0,0.0,0.0,0.0,0.0,0.0,0.0,0.0,0.0,0.0,0.0,0.0,0.0,0.0,0.0,0.0,0.0,0.0,0.0,0.0,0.0,0.0,0.0,0.0,0.0,0.0,0.0,0.0,0.0,0.0,0.0,0.0,0.0,0.0,0.0,0.0,0.0,0.0,0.0,0.0,0.0,0.0,0.0,0.0,0.0,0.0,0.0,0.0,0.0,0.0,0.0,0.0,0.0,0.0,0.0,0.0,0.0,0.0,0.0,0.0,0.0,0.0,0.0,0.0,0.0,0.0,0.0,0.0,0.0,0.0,0.0,0.0,0.0,0.0,0.0,0.0,0.0,0.0,0.0,0.0,0.0,0.0,0.0,0.0,0.0,0.0,0.0,0.0,0.0,0.0,0.0,0.0,0.0,0.0,0.0,0.0,0.0,0.0,0.0,0.0,0.0,0.0,0.0,0.0,0.0,0.0,0.0,0.0,0.0,0.0,0.0,0.0,0.0,0.0,0.0,0.0,0.0,0.0,0.0,0.0,0.0,0.0,0.0,0.0,0.0,0.0,0.0,0.0,0.0,0.0,0.0,0.0,0.0,0.0,0.0,0.0,0.0,0.0,0.0,0.0,0.0,0.0,0.0,0.0,0.0,0.0,0.0,0.0,0.0,0.0,0.0,0.0,0.0,0.0,0.0,0.0,0.0,0.0,0.0,0.0,0.0,0.0,0.0,0.0,0.0,0.0,0.0,0.0,0.0,0.0,0.0,0.0,0.0,0.0,0.0,0.0,0.0,0.0,0.0,0.0,0.0,0.0,0.0,0.0,0.0,0.0,0.0,0.0,0.0,0.0,0.0,0.0,0.0,0.0,0.0,0.0,0.0,0.0,0.0,0.0,0.0,0.0,0.0,0.0,0.0,0.0,0.0,0.0,0.0,0.0,0.0,0.0,0.0,0.0,0.0,0.0,0.0,0.0,0.0,0.0,0.0,0.0,0.0,0.0,0.0,0.0,0.0,0.0,0.0,0.0,0.0,0.0,0.0,0.0,0.0,0.0,0.0,0.0,0.0,0.0,0.0,0.0,0.0,0.0,0.0,0.0,0.0,0.0,0.0,0.0,0.0,0.0,0.0,0.0,0.0,0.0,0.0,0.0,0.0,0.0,0.0,0.0,0.0,0.0,0.0,0.0,0.0,0.0,0.0,0.0,0.0,0.0,0.0,0.0,0.0,0.0,0.0,0.0,0.0,0.0,0.0,0.0,0.0,0.0,0.0,0.0,0.0,0.0,0.0,0.0,0.0,0.0,0.0,0.0,0.0,0.0,0.0,0.0,0.0,0.0,0.0,0.0,0.0,0.0,0.0,0.0,0.0,0.0,0.0,0.0,0.0,0.0,0.0,0.0,0.0,0.0,0.0,0.0,0.0,0.0,0.0,0.0,0.0,0.0,0.0,0.0,0.0,0.0,0.0,0.0,0.0,0.0,0.0,0.0,0.0,0.0,0.0,0.0,0.0,0.0,0.0,0.0,0.0,0.0,0.0,0.0,0.0,0.0,0.0,0.0,0.0,0.0,0.0,0.0,0.0,0.0,0.0,0.0,0.0,0.0,0.0,0.0,0.0,0.0,0.0,0.0,0.0,0.0,0.0,0.0,0.0,0.0,0.0,0.0,0.0,0.0,0.0,0.0,0.0,0.0,0.0,0.0,0.0,0.0,0.0,0.0,0.0,0.0,0.0,0.0,0.0,0.0,0.0,0.0,0.0,0.0,0.0,0.0,0.0,0.0,0.0,0.0,0.0,0.0,0.0,0.0,0.0,0.0,0.0,0.0,0.0,0.0,0.0,0.0,0.0,0.0,0.0,0.0,0.0,0.0,0.0,0.0,0.0,0.0,0.0,0.0,0.0,0.0,0.0,0.0,0.0,0.0,0.0,0.0,0.0,0.0,0.0,0.0,0.0,0.0,0.0,0.0,0.0,0.0,0.0,0.0,0.0,0.0,0.0,0.0,0.0,0.0,0.0,0.0,0.0,0.0,0.0,0.0,0.0,0.0,0.0,0.0,0.0,0.0,0.0,0.0,0.0,0.0,0.0,0.0,0.0,0.0,0.0,0.0,0.0,0.0,0.0,0.0,0.0,0.0,0.0,0.0,1.1071,0.0,0.0,0.0,0.0,0.0,0.0,0.0,0.0,0.0,0.0,0.0,0.0,0.0,0.0,0.0,0.0,0.0,0.0,0.0,0.0,0.0,0.0,0.0,0.0,0.0,0.0,0.0,0.0,0.0,0.0,0.0,0.0,0.0,0.0,0.0,0.0,0.0,0.0,0.0,0.0,0.0,0.0,0.0,0.0,0.0,0.0,0.0,0.0,0.0,0.0,0.0,0.0,0.0,0.0,0.0,0.0,0.0,0.0,0.0,0.0,0.0,0.0,0.0,0.0,0.0,0.0,0.0,0.0,0.0,0.0,0.0,0.0,0.0,0.0,0.0,0.0,0.0,0.0,0.0,0.0,0.0,0.0,0.0,0.0,0.0,0.0,0.0,0.0,0.0,0.0,0.0,0.0,0.0,0.0,0.0,0.0,0.0,0.0,0.0,0.0,0.0,0.0,0.0,0.0,0.0,0.0,0.0,0.0,0.0,0.0,1.0217,1.0168,1.0526,1.1056,1.1787,0.0,0.0,0.0,0.0,0.0,0.0,0.0,0.0,0.0,0.0,0.0,0.0,0.0,0.0,0.0,0.0,0.0,0.0,0.0,0.0,0.0,0.0,0.0,0.0,0.0,0.0,0.0,0.0,0.0,0.0,0.0,0.0,0.0,0.0,0.0,0.0,0.0,0.0,0.0,0.0,0.0,0.0,0.0,0.0,0.0,0.0,0.0,0.0,0.0,0.0,0.0,0.0,0.0,0.0,0.0,0.0,0.0,0.0,0.0,0.0,0.0,0.0,0.0,0.0,0.0,0.0,0.0,0.0,0.0,0.0,0.0,0.0,0.0,0.0,0.0,0.0,0.0,0.0,0.0,0.0,0.0,0.0,0.0,0.0,0.0,0.0,0.0,0.0,0.0,0.0,0.0,0.0,0.0,0.0,0.0,0.0,0.0,0.0,0.0,0.0,0.0,0.0,0.0,0.0,0.0,0.0,0.0,0.0,0.0,0.0,0.0,0.0,1.13,1.2025,1.2917,0.0,0.0,0.0,0.0,0.0,0.0,0.0,0.0,0.0,0.0,0.0,0.0,0.0,0.0,0.0,0.0,0.0,0.0,0.0,0.0,0.0,0.0,0.0,0.0,0.0,0.0,0.0,0.0,0.0,0.0,0.0,0.0,0.0,0.0,0.0,0.0,0.0,0.0,0.0,0.0,0.0,0.0,0.0,0.0,0.0,0.0,0.0,0.0,0.0,0.0,0.0,0.0,0.0,0.0,0.0,0.0,0.0,0.0,0.0,0.0,0.0,0.0,0.0,0.0,0.0,0.0,0.0,0.0,0.0,0.0,0.0,0.0,0.0,0.0,0.0,0.0,0.0,0.0,0.0,0.0,0.0,0.0,0.0,0.0,0.0,0.0,0.0,0.0,0.0,0.0,0.0,0.0,0.0,0.0,0.0,0.0,0.0,0.0,0.0,0.0,0.0,0.0,0.0,0.0,0.0,0.0,0.0,0.0,0.0,0.0,1.0938,1.2432,1.2416,0.0,1.4467,0.0,0.0,0.0,0.0,0.0,0.0,0.0,0.0,0.0,0.0,0.0,0.0,0.0,0.0,0.0,0.0,0.0,0.0,0.0,0.0,0.0,0.0,0.0,0.0,0.0,0.0,0.0,0.0,0.0,0.0,0.0,0.0,0.0,0.0,0.0,0.0,0.0,0.0,0.0,0.0,0.0,0.0,0.0,0.0,0.0,0.0,0.0,0.0,0.0,0.0,0.0,0.0,0.0,0.0,0.0,0.0,0.0,0.0,0.0,0.0,0.0,0.0,0.0,0.0,0.0,0.0,0.0,0.0,0.0,0.0,0.0,0.0,0.0,0.0,0.0,0.0,0.0,0.0,0.0,0.0,0.0,0.0,0.0,0.0,0.0,0.0,0.0,0.0,0.0,0.0,0.0,0.0,0.0,0.0,0.0,0.0,0.0,0.0,0.0,0.0,0.0,0.0,0.0,0.0,0.0,0.0,0.0,0.0,0.0,0.0,1.1507,1.2618,1.3494,1.4261,0.0,0.0,0.0,0.0,0.0,0.0,0.0,0.0,0.0,0.0,0.0,0.0,0.0,0.0,0.0,0.0,0.0,0.0,0.0,0.0,0.0,0.0,0.0,0.0,0.0,0.0,0.0,0.0,0.0,0.0,0.0,0.0,0.0,0.0,0.0,0.0,0.0,0.0,0.0,0.0,0.0,0.0,0.0,0.0,0.0,0.0,0.0,0.0,0.0,0.0,0.0,0.0,0.0,0.0,0.0,0.0,0.0,0.0,0.0,0.0,0.0,0.0,0.0,0.0,0.0,0.0,0.0,0.0,0.0,0.0,0.0,0.0,0.0,0.0,0.0,0.0,0.0,0.0,0.0,0.0,0.0,0.0,0.0,0.0,0.0,0.0,0.0,0.0,0.0,0.0,0.0,0.0,0.0,0.0,0.0,0.0,0.0,0.0,0.0,0.0,0.0,0.0,0.0,0.0,0.0,0.0,0.0,0.0,0.0,0.0,1.178,1.2417,1.3558,1.4296,1.486,1.5233,0.0,0.0,0.0,0.0,0.0,0.0,0.0,0.0,0.0,0.0,0.0,0.0,0.0,0.0,0.0,0.0,0.0,0.0,0.0,0.0,0.0,0.0,0.0,0.0,0.0,0.0,0.0,0.0,0.0,0.0,0.0,0.0,0.0,0.0,0.0,0.0,0.0,0.0,0.0,0.0,0.0,0.0,0.0,0.0,0.0,0.0,0.0,0.0,0.0,0.0,0.0,0.0,0.0,0.0,0.0,0.0,0.0,0.0,0.0,0.0,0.0,0.0,0.0,0.0,0.0,0.0,0.0,0.0,0.0,0.0,0.0,0.0,0.0,0.0,0.0,0.0,0.0,0.0,0.0,0.0,0.0,0.0,0.0,0.0,0.0,0.0,0.0,0.0,0.0,0.0,0.0,0.0,0.0,0.0,0.0,0.0,0.0,0.0,0.0,0.0,0.0,0.0,0.0,0.0,0.0,0.0,0.0,0.0,1.4898,1.3563,1.3833,1.596,1.4657,1.4581,0.0,0.0,0.0,0.0,0.0,0.0,0.0,0.0,0.0,0.0,0.0,0.0,0.0,0.0,0.0,0.0,0.0,0.0,0.0,0.0,0.0,0.0,0.0,0.0,0.0,0.0,0.0,0.0,0.0,0.0,0.0,0.0,0.0,0.0,0.0,0.0,0.0,0.0,0.0,0.0,0.0,0.0,0.0,0.0,0.0,0.0,0.0,0.0,0.0,0.0,0.0,0.0,0.0,0.0,0.0,0.0,0.0,0.0,0.0,0.0,0.0,0.0,0.0,0.0,0.0,0.0,0.0,0.0,0.0,0.0,0.0,0.0,0.0,0.0,0.0,0.0,0.0,0.0,0.0,0.0,0.0,0.0,0.0,0.0,0.0,0.0,0.0,0.0,0.0,0.0,0.0,0.0,0.0,0.0,0.0,0.0,0.0,0.0,0.0,0.0,0.0,0.0,0.0,0.0,0.0,0.0,0.0,0.0,0.0,1.2845,1.3819,1.4995,1.6269,1.5746,1.5656,0.0,0.0,0.0,0.0,0.0,0.0,0.0,0.0,0.0,0.0,0.0,0.0,0.0,0.0,0.0,0.0,0.0,0.0,0.0,0.0,0.0,0.0,0.0,0.0,0.0,0.0,0.0,0.0,0.0,0.0,0.0,0.0,0.0,0.0,0.0,0.0,0.0,0.0,0.0,0.0,0.0,0.0,0.0,0.0,0.0,0.0,0.0,0.0,0.0,0.0,0.0,0.0,0.0,0.0,0.0,0.0,0.0,0.0,0.0,0.0,0.0,0.0,0.0,0.0,0.0,0.0,0.0,0.0,0.0,0.0,0.0,0.0,0.0,0.0,0.0,0.0,0.0,0.0,0.0,0.0,0.0,0.0,0.0,0.0,0.0,0.0,0.0,0.0,0.0,0.0,0.0,0.0,0.0,0.0,0.0,0.0,0.0,0.0,0.0,0.0,0.0,0.0,0.0,0.0,0.0,0.0,0.0,0.0,0.0,1.2753,0.0,1.5875,1.6371,1.6063,1.5987,0.0,0.0,0.0,0.0,0.0,0.0,0.0,0.0,0.0,0.0,0.0,0.0,0.0,0.0,0.0,0.0,0.0,0.0,0.0,0.0,0.0,0.0,0.0,0.0,0.0,0.0,0.0,0.0,0.0,0.0,0.0,0.0,0.0,0.0,0.0,0.0,0.0,0.0,0.0,0.0,0.0,0.0,0.0,0.0,0.0,0.0,0.0,0.0,0.0,0.0,0.0,0.0,0.0,0.0,0.0,0.0,0.0,0.0,0.0,0.0,0.0,0.0,0.0,0.0,0.0,0.0,0.0,0.0,0.0,0.0,0.0,0.0,0.0,0.0,0.0,0.0,0.0,0.0,0.0,0.0,0.0,0.0,0.0,0.0,0.0,0.0,0.0,0.0,0.0,0.0,0.0,0.0,0.0,0.0,0.0,0.0,0.0,0.0,0.0,0.0,0.0,0.0,0.0,0.0,0.0,0.0,0.0,0.0,1.3664,1.5172,1.5964,1.6346,1.6387,1.5495,1.5383,0.0,0.0,0.0,0.0,0.0,0.0,0.0,0.0,0.0,0.0,0.0,0.0,0.0,0.0,0.0,0.0,0.0,0.0,0.0,0.0,0.0,0.0,0.0,0.0,0.0,0.0,0.0,0.0,0.0,0.0,0.0,0.0,0.0,0.0,0.0,0.0,0.0,0.0,0.0,0.0,0.0,0.0,0.0,0.0,0.0,0.0,0.0,0.0,0.0,0.0,0.0,0.0,0.0,0.0,0.0,0.0,0.0,0.0,0.0,0.0,0.0,0.0,0.0,0.0,0.0,0.0,0.0,0.0,0.0,0.0,0.0,0.0,0.0,0.0,0.0,0.0,0.0,0.0,0.0,0.0,0.0,0.0,0.0,0.0,0.0,0.0,0.0,0.0,0.0,0.0,0.0,0.0,0.0,0.0,0.0,0.0,0.0,0.0,0.0,0.0,0.0,0.0,0.0,0.0,0.0,0.0,0.0,0.0,0.0,1.4332,1.4574,1.5487,1.7007,1.5213,1.5055,0.0,0.0,0.0,0.0,0.0,0.0,0.0,0.0,0.0,0.0,0.0,0.0,0.0,0.0,0.0,0.0,0.0,0.0,0.0,0.0,0.0,0.0,0.0,0.0,0.0,0.0,0.0,0.0,0.0,0.0,0.0,0.0,0.0,0.0,0.0,0.0,0.0,0.0,0.0,0.0,0.0,0.0,0.0,0.0,0.0,0.0,0.0,0.0,0.0,0.0,0.0,0.0,0.0,0.0,0.0,0.0,0.0,0.0,0.0,0.0,0.0,0.0,0.0,0.0,0.0,0.0,0.0,0.0,0.0,0.0,0.0,0.0,0.0,0.0,0.0,0.0,0.0,0.0,0.0,0.0,0.0,0.0,0.0,0.0,0.0,0.0,0.0,0.0,0.0,0.0,0.0,0.0,0.0,0.0,0.0,0.0,0.0,0.0,0.0,0.0,0.0,0.0,0.0,0.0,0.0,0.0,0.0,0.0,0.0,1.4746,1.4757,1.5331,1.6556,1.5352,1.5266,1.6432,0.0,0.0,0.0,0.0,0.0,0.0,0.0,0.0,0.0,0.0,0.0,0.0,0.0,0.0,0.0,0.0,0.0,0.0,0.0,0.0,0.0,0.0,0.0,0.0,0.0,0.0,0.0,0.0,0.0,0.0,0.0,0.0,0.0,0.0,0.0,0.0,0.0,0.0,0.0,0.0,0.0,0.0,0.0,0.0,0.0,0.0,0.0,0.0,0.0,0.0,0.0,0.0,0.0,0.0,0.0,0.0,0.0,0.0,0.0,0.0,0.0,0.0,0.0,0.0,0.0,0.0,0.0,0.0,0.0,0.0,0.0,0.0,0.0,0.0,0.0,0.0,0.0,0.0,0.0,0.0,0.0,0.0,0.0,0.0,0.0,0.0,0.0,0.0,0.0,0.0,0.0,0.0,0.0,0.0,0.0,0.0,0.0,0.0,0.0,0.0,0.0,0.0,0.0,0.0,0.0,0.0,0.0,0.0,1.6243,1.6384,1.6102,1.53,1.5866,1.5864,0.0,0.0,0.0,0.0,0.0,0.0,0.0,0.0,0.0,0.0,0.0,0.0,0.0,0.0,0.0,0.0,0.0,0.0,0.0,0.0,0.0,0.0,0.0,0.0,0.0,0.0,0.0,0.0,0.0,0.0,0.0,0.0,0.0,0.0,0.0,0.0,0.0,0.0,0.0,0.0,0.0,0.0,0.0,0.0,0.0,0.0,0.0,0.0,0.0,0.0,0.0,0.0,0.0,0.0,0.0,0.0,0.0,0.0,0.0,0.0,0.0,0.0,0.0,0.0,0.0,0.0,0.0,0.0,0.0,0.0,0.0,0.0,0.0,0.0,0.0,0.0,0.0,0.0,0.0,0.0,0.0,0.0,0.0,0.0,0.0,0.0,0.0,0.0,0.0,0.0,0.0,0.0,0.0,0.0,0.0,0.0,0.0,0.0,0.0,0.0,0.0,0.0,0.0,0.0,0.0,0.0,0.0,0.0,0.0,1.7961,1.9122,1.9083,1.7706,1.6716,1.6385,0.0,0.0,0.0,0.0,0.0,0.0,0.0,0.0,0.0,0.0,0.0,0.0,0.0,0.0,0.0,0.0,0.0,0.0,0.0,0.0,0.0,0.0,0.0,0.0,0.0,0.0,0.0,0.0,0.0,0.0,0.0,0.0,0.0,0.0,0.0,0.0,0.0,0.0,0.0,0.0,0.0,0.0,0.0,0.0,0.0,0.0,0.0,0.0,0.0,0.0,0.0,0.0,0.0,0.0,0.0,0.0,0.0,0.0,0.0,0.0,0.0,0.0,0.0,0.0,0.0,0.0,0.0,0.0,0.0,0.0,0.0,0.0,0.0,0.0,0.0,0.0,0.0,0.0,0.0,0.0,0.0,0.0,0.0,0.0,0.0,0.0,0.0,0.0,0.0,0.0,0.0,0.0,0.0,0.0,0.0,0.0,0.0,0.0,0.0,0.0,0.0,0.0,0.0,0.0,0.0,0.0,0.0,0.0,1.8099,1.8933,2.0896,2.1344,2.0145,1.8906,1.7835,0.0,0.0,0.0,0.0,0.0,0.0,0.0,0.0,0.0,0.0,0.0,0.0,0.0,0.0,0.0,0.0,0.0,0.0,0.0,0.0,0.0,0.0,0.0,0.0,0.0,0.0,0.0,0.0,0.0,0.0,0.0,0.0,0.0,0.0,0.0,0.0,0.0,0.0,0.0,0.0,0.0,0.0,0.0,0.0,0.0,0.0,0.0,0.0,0.0,0.0,0.0,0.0,0.0,0.0,0.0,0.0,0.0,0.0,0.0,0.0,0.0,0.0,0.0,0.0,0.0,0.0,0.0,0.0,0.0,0.0,0.0,0.0,0.0,0.0,0.0,0.0,0.0,0.0,0.0,0.0,0.0,0.0,0.0,0.0,0.0,0.0,0.0,0.0,0.0,0.0,0.0,0.0,0.0,0.0,0.0,0.0,0.0,0.0,0.0,0.0,0.0,0.0,0.0,0.0,0.0,0.0,0.0,0.0,1.8598,1.9549,2.1964,2.2907,2.2252,2.1507,1.9736,0.0,0.0,0.0,0.0,0.0,0.0,0.0,0.0,0.0,0.0,0.0,0.0,0.0,0.0,0.0,0.0,0.0,0.0,0.0,0.0,0.0,0.0,0.0,0.0,0.0,0.0,0.0,0.0,0.0,0.0,0.0,0.0,0.0,0.0,0.0,0.0,0.0,0.0,0.0,0.0,0.0,0.0,0.0,0.0,0.0,0.0,0.0,0.0,0.0,0.0,0.0,0.0,0.0,0.0,0.0,0.0,0.0,0.0,0.0,0.0,0.0,0.0,0.0,0.0,0.0,0.0,0.0,0.0,0.0,0.0,0.0,0.0,0.0,0.0,0.0,0.0,0.0,0.0,0.0,0.0,0.0,0.0,0.0,0.0,0.0,0.0,0.0,0.0,0.0,0.0,0.0,0.0,0.0,0.0,0.0,0.0,0.0,0.0,0.0,0.0,0.0,0.0,0.0,0.0,0.0,0.0,0.0,0.0,1.9035,2.0578,2.2391,2.3051,2.2449,2.1617,2.0549,0.0,0.0,0.0,0.0,0.0,0.0,0.0,0.0,0.0,0.0,0.0,0.0,0.0,0.0,0.0,0.0,0.0,0.0,0.0,0.0,0.0,0.0,0.0,0.0,0.0,0.0,0.0,0.0,0.0,0.0,0.0,0.0,0.0,0.0,0.0,0.0,0.0,0.0,0.0,0.0,0.0,0.0,0.0,0.0,0.0,0.0,0.0,0.0,1.0027,0.0,0.0,0.0,0.0,0.0,0.0,0.0,0.0,0.0,0.0,0.0,0.0,0.0,0.0,0.0,0.0,0.0,0.0,0.0,0.0,0.0,0.0,0.0,0.0,0.0,0.0,0.0,0.0,0.0,0.0,0.0,0.0,0.0,0.0,0.0,0.0,0.0,0.0,0.0,0.0,0.0,0.0,0.0,0.0,0.0,0.0,0.0,0.0,0.0,0.0,0.0,0.0,0.0,0.0,0.0,0.0,0.0,0.0,0.0,1.9107,2.0819,2.2142,2.2705,2.2387,2.165,2.1051,0.0,0.0,0.0,0.0,0.0,0.0,0.0,0.0,0.0,0.0,0.0,0.0,0.0,0.0,0.0,0.0,0.0,0.0,0.0,0.0,0.0,0.0,0.0,0.0,0.0,0.0,0.0,0.0,0.0,0.0,0.0,0.0,0.0,0.0,0.0,0.0,0.0,0.0,0.0,0.0,0.0,0.0,0.0,0.0,0.0,0.0,0.0,0.0,0.0,0.0,0.0,0.0,0.0,0.0,0.0,0.0,0.0,0.0,0.0,0.0,0.0,0.0,0.0,0.0,0.0,0.0,0.0,0.0,0.0,0.0,0.0,0.0,0.0,0.0,0.0,0.0,0.0,0.0,0.0,0.0,0.0,0.0,0.0,0.0,0.0,0.0,0.0,0.0,0.0,0.0,0.0,0.0,0.0,0.0,0.0,0.0,0.0,0.0,0.0,0.0,0.0,0.0,0.0,0.0,0.0,0.0,0.0,1.8337,1.9041,2.0769,2.1601,2.2066,2.2136,2.1469,2.118,2.1306,0.0,0.0,0.0,0.0,0.0,0.0,0.0,0.0,0.0,0.0,0.0,0.0,0.0,0.0,0.0,0.0,0.0,0.0,0.0,0.0,0.0,0.0,0.0,0.0,0.0,0.0,0.0,0.0,0.0,0.0,0.0,0.0,0.0,0.0,0.0,0.0,0.0,0.0,1.1414,1.2245,0.0,0.0,0.0,0.0,0.0,0.0,0.0,0.0,1.145,0.0,0.0,0.0,0.0,0.0,0.0,0.0,0.0,0.0,0.0,0.0,0.0,0.0,0.0,0.0,0.0,0.0,0.0,0.0,0.0,0.0,0.0,0.0,0.0,0.0,0.0,0.0,0.0,0.0,0.0,0.0,0.0,0.0,0.0,0.0,0.0,0.0,0.0,0.0,0.0,0.0,0.0,0.0,0.0,0.0,0.0,0.0,0.0,0.0,0.0,0.0,0.0,0.0,0.0,0.0,0.0,1.9272,1.8582,1.9097,2.0909,2.1116,2.1305,2.1509,2.0727,2.0617,2.123,0.0,0.0,0.0,0.0,0.0,0.0,0.0,0.0,0.0,0.0,0.0,0.0,0.0,0.0,0.0,0.0,0.0,0.0,0.0,0.0,0.0,0.0,0.0,0.0,0.0,0.0,0.0,0.0,0.0,0.0,0.0,0.0,0.0,0.0,0.0,0.0,0.0,0.0,0.0,1.221,1.244,0.0,0.0,0.0,0.0,0.0,0.0,0.0,0.0,1.1905,0.0,0.0,0.0,0.0,0.0,0.0,0.0,0.0,0.0,0.0,0.0,0.0,0.0,0.0,0.0,0.0,0.0,0.0,0.0,0.0,0.0,0.0,0.0,0.0,0.0,0.0,0.0,0.0,0.0,0.0,0.0,0.0,0.0,0.0,0.0,0.0,0.0,0.0,0.0,0.0,0.0,0.0,0.0,0.0,0.0,0.0,0.0,0.0,0.0,0.0,0.0,0.0,0.0,0.0,0.0,1.9966,1.8546,1.859,2.0412,2.0481,2.0562,2.07,1.9888,2.0017,0.0,0.0,0.0,0.0,0.0,0.0,0.0,0.0,0.0,0.0,0.0,0.0,0.0,0.0,0.0,0.0,0.0,0.0,0.0,0.0,0.0,0.0,0.0,0.0,0.0,0.0,0.0,0.0,0.0,0.0,0.0,0.0,0.0,0.0,0.0,0.0,0.0,0.0,0.0,0.0,1.2094,1.1907,1.148,0.0,0.0,0.0,0.0,0.0,0.0,1.2241,1.2003,0.0,0.0,0.0,0.0,0.0,0.0,0.0,0.0,0.0,0.0,0.0,0.0,0.0,0.0,0.0,0.0,0.0,0.0,0.0,0.0,0.0,0.0,0.0,0.0,0.0,0.0,0.0,0.0,0.0,0.0,0.0,0.0,0.0,0.0,0.0,0.0,0.0,0.0,0.0,0.0,0.0,0.0,0.0,0.0,0.0,0.0,0.0,0.0,0.0,0.0,0.0,0.0,0.0,0.0,0.0,2.0457,1.8541,1.8285,1.9907,1.9988,1.9946,1.9859,1.9177,1.9445,0.0,0.0,0.0,0.0,0.0,0.0,0.0,0.0,0.0,0.0,0.0,0.0,0.0,0.0,0.0,0.0,0.0,0.0,0.0,0.0,0.0,0.0,0.0,0.0,0.0,0.0,0.0,0.0,0.0,0.0,0.0,0.0,0.0,0.0,0.0,0.0,0.0,0.0,0.0,0.0,0.0,1.2255,1.1779,1.1819,0.0,0.0,0.0,0.0,1.3991,1.32,0.0,0.0,0.0,0.0,0.0,0.0,0.0,0.0,0.0,0.0,0.0,0.0,0.0,0.0,0.0,0.0,0.0,0.0,0.0,0.0,0.0,0.0,0.0,0.0,0.0,0.0,0.0,0.0,0.0,0.0,0.0,0.0,0.0,0.0,0.0,0.0,0.0,0.0,0.0,0.0,0.0,0.0,0.0,0.0,0.0,0.0,0.0,0.0,0.0,0.0,0.0,0.0,0.0,0.0,0.0,0.0,1.9708,1.884,1.8873,1.9926,1.9988,1.9686,1.9066,1.8883,1.8883,0.0,0.0,0.0,0.0,0.0,0.0,0.0,0.0,0.0,0.0,0.0,0.0,0.0,0.0,0.0,0.0,0.0,0.0,0.0,0.0,0.0,0.0,0.0,0.0,0.0,0.0,0.0,0.0,0.0,0.0,0.0,0.0,0.0,0.0,0.0,0.0,0.0,0.0,0.0,0.0,0.0,1.5078,1.2793,1.3123,1.3617,0.0,0.0,1.3793,1.4901,1.5443,0.0,0.0,0.0,0.0,0.0,0.0,0.0,0.0,0.0,0.0,0.0,0.0,0.0,0.0,0.0,0.0,0.0,0.0,0.0,0.0,0.0,0.0,0.0,0.0,0.0,0.0,0.0,0.0,0.0,0.0,0.0,0.0,0.0,0.0,0.0,0.0,0.0,0.0,0.0,0.0,0.0,0.0,0.0,0.0,0.0,0.0,0.0,0.0,0.0,0.0,0.0,0.0,0.0,0.0,0.0,1.8829,2.0152,1.8659,1.8294,1.9235,1.9747,1.9642,1.8913,1.8415,1.8335,0.0,0.0,0.0,0.0,0.0,0.0,0.0,0.0,0.0,0.0,0.0,0.0,0.0,0.0,0.0,0.0,0.0,0.0,0.0,0.0,0.0,0.0,0.0,0.0,0.0,0.0,0.0,0.0,0.0,0.0,0.0,0.0,0.0,0.0,0.0,0.0,0.0,0.0,0.0,0.0,0.0,0.0,1.4277,1.4811,0.0,0.0,0.0,1.5372,1.5914,0.0,0.0,0.0,0.0,0.0,0.0,0.0,0.0,0.0,0.0,0.0,0.0,0.0,0.0,0.0,0.0,0.0,0.0,0.0,0.0,0.0,0.0,0.0,0.0,0.0,0.0,0.0,0.0,0.0,0.0,0.0,0.0,0.0,0.0,0.0,0.0,0.0,0.0,0.0,0.0,0.0,0.0,0.0,0.0,0.0,0.0,0.0,0.0,0.0,0.0,0.0,0.0,0.0,0.0,0.0,0.0,0.0,2.07,1.8491,1.7877,1.8975,1.9652,1.9547,1.8608,1.7924,0.0,0.0,0.0,0.0,0.0,0.0,0.0,0.0,0.0,0.0,0.0,0.0,0.0,0.0,0.0,0.0,0.0,0.0,0.0,0.0,0.0,0.0,0.0,0.0,0.0,0.0,0.0,1.2628,0.0,0.0,0.0,0.0,0.0,0.0,0.0,0.0,0.0,0.0,0.0,0.0,0.0,0.0,1.5922,1.5367,1.6113,1.6189,0.0,0.0,1.6881,1.6633,1.6436,1.6284,0.0,0.0,0.0,0.0,0.0,0.0,0.0,0.0,0.0,0.0,0.0,0.0,0.0,0.0,0.0,0.0,0.0,0.0,0.0,0.0,0.0,0.0,0.0,0.0,0.0,0.0,0.0,0.0,0.0,0.0,0.0,0.0,0.0,0.0,0.0,0.0,0.0,0.0,0.0,0.0,0.0,0.0,0.0,0.0,0.0,0.0,0.0,0.0,0.0,0.0,0.0,0.0,0.0,0.0,0.0,2.0648,1.8485,1.8135,1.9831,1.995,1.9262,1.7752,1.7581,1.7547,0.0,0.0,0.0,0.0,0.0,0.0,0.0,0.0,0.0,0.0,0.0,0.0,0.0,0.0,0.0,0.0,0.0,0.0,0.0,0.0,0.0,0.0,0.0,0.0,0.0,0.0,0.0,0.0,0.0,0.0,0.0,0.0,0.0,0.0,0.0,0.0,0.0,0.0,0.0,0.0,0.0,1.7829,1.5528,1.6534,1.7233,0.0,0.0,1.8305,1.6834,1.8362,1.8785,1.5862,0.0,0.0,0.0,0.0,0.0,0.0,0.0,0.0,0.0,0.0,0.0,0.0,0.0,0.0,0.0,0.0,0.0,0.0,0.0,0.0,0.0,0.0,0.0,0.0,0.0,0.0,0.0,0.0,0.0,0.0,0.0,0.0,0.0,0.0,0.0,0.0,0.0,0.0,0.0,0.0,0.0,0.0,0.0,0.0,0.0,0.0,0.0,0.0,0.0,0.0,0.0,0.0,0.0,1.9064,2.0682,1.8478,1.7928,1.9141,1.9728,1.9229,1.7641,1.7583,1.7332,0.0,0.0,0.0,0.0,0.0,0.0,0.0,0.0,0.0,0.0,0.0,0.0,0.0,0.0,0.0,0.0,0.0,0.0,0.0,0.0,0.0,0.0,0.0,0.0,0.0,0.0,0.0,0.0,1.3092,1.3609,1.3908,0.0,0.0,0.0,0.0,0.0,0.0,0.0,0.0,0.0,0.0,1.8673,1.7686,1.8531,0.0,0.0,1.8689,1.9191,1.7646,1.8497,1.8782,1.7168,1.842,0.0,0.0,0.0,0.0,0.0,0.0,0.0,0.0,0.0,0.0,0.0,0.0,0.0,0.0,0.0,0.0,0.0,0.0,0.0,0.0,0.0,0.0,0.0,0.0,0.0,0.0,0.0,0.0,0.0,0.0,0.0,0.0,0.0,0.0,0.0,0.0,0.0,0.0,0.0,0.0,0.0,0.0,0.0,0.0,0.0,0.0,0.0,0.0,0.0,0.0,0.0,0.0,1.9394,2.1015,1.8802,1.8111,1.903,1.9666,1.9333,1.8032,1.7729,1.7344,0.0,0.0,0.0,0.0,0.0,0.0,0.0,0.0,0.0,0.0,0.0,0.0,0.0,0.0,0.0,0.0,0.0,0.0,0.0,0.0,0.0,0.0,0.0,0.0,0.0,0.0,0.0,0.0,1.4157,1.47,1.4642,0.0,0.0,0.0,0.0,0.0,0.0,0.0,0.0,0.0,0.0,1.9282,1.876,1.9618,1.9917,1.8782,1.9572,1.9914,1.8826,1.9059,1.9024,1.8073,0.0,0.0,0.0,0.0,0.0,0.0,0.0,0.0,0.0,0.0,0.0,0.0,0.0,0.0,0.0,0.0,0.0,0.0,0.0,0.0,0.0,0.0,0.0,0.0,0.0,0.0,0.0,0.0,0.0,0.0,1.7166,0.0,0.0,0.0,0.0,0.0,0.0,0.0,0.0,0.0,0.0,0.0,0.0,0.0,0.0,0.0,0.0,0.0,0.0,0.0,0.0,0.0,0.0,2.0252,2.1803,1.9593,1.8903,1.9821,1.996,1.9611,1.8769,1.8013,1.7631,1.7687,0.0,0.0,0.0,0.0,0.0,0.0,0.0,0.0,0.0,0.0,0.0,0.0,0.0,0.0,0.0,0.0,0.0,0.0,0.0,0.0,0.0,0.0,0.0,0.0,0.0,0.0,1.735,1.684,1.631,0.0,0.0,0.0,0.0,0.0,0.0,0.0,0.0,0.0,0.0,1.9875,1.9766,1.8215,1.9345,2.0392,2.039,2.0436,2.0462,2.0373,2.0362,1.9807,0.0,0.0,0.0,0.0,0.0,0.0,0.0,0.0,0.0,0.0,0.0,0.0,0.0,0.0,0.0,0.0,0.0,0.0,0.0,0.0,0.0,0.0,0.0,0.0,0.0,0.0,0.0,2.0607,2.0648,0.0,0.0,0.0,0.0,0.0,0.0,0.0,0.0,0.0,0.0,0.0,2.2606,2.2668,0.0,0.0,0.0,0.0,0.0,0.0,0.0,0.0,0.0,0.0,0.0,0.0,2.0768,2.1747,1.9649,1.896,1.9871,1.9926,1.9579,1.8826,1.8544,1.847,1.857,0.0,0.0,0.0,0.0,0.0,0.0,0.0,0.0,0.0,0.0,0.0,0.0,0.0,0.0,0.0,0.0,0.0,0.0,0.0,0.0,0.0,0.0,0.0,0.0,0.0,1.7156,0.0,0.0,0.0,0.0,0.0,0.0,0.0,0.0,0.0,0.0,0.0,1.9191,1.9139,1.9902,2.0215,1.9583,2.0017,2.0426,0.0,0.0,0.0,0.0,0.0,0.0,0.0,0.0,0.0,0.0,0.0,0.0,0.0,0.0,2.0116,2.0088,2.003,1.9993,1.9958,0.0,0.0,0.0,0.0,0.0,0.0,0.0,0.0,0.0,0.0,0.0,0.0,0.0,0.0,2.2401,0.0,2.2575,0.0,0.0,0.0,0.0,0.0,0.0,0.0,0.0,2.3141,2.4179,2.4544,2.4652,2.4709,0.0,2.3389,2.256,0.0,0.0,0.0,0.0,0.0,0.0,0.0,0.0,2.1281,2.1728,1.9946,1.9249,1.9836,1.9897,1.9679,1.9213,1.8948,1.8897,1.9023,1.9146,1.9203,0.0,0.0,0.0,0.0,0.0,0.0,0.0,0.0,0.0,0.0,0.0,0.0,0.0,0.0,0.0,0.0,0.0,0.0,0.0,0.0,0.0,0.0,0.0,1.7872,0.0,0.0,0.0,0.0,0.0,0.0,0.0,0.0,0.0,1.8844,1.9232,1.9596,1.9567,2.0085,2.0333,1.9917,0.0,0.0,0.0,0.0,0.0,0.0,0.0,2.0429,2.0193,2.0576,2.1195,2.2022,2.21,2.2049,2.206,0.0,0.0,2.0263,2.0103,2.0049,2.0039,2.0048,2.0057,2.0017,2.0003,2.0009,0.0,0.0,0.0,0.0,0.0,0.0,0.0,0.0,2.2989,2.3815,0.0,2.4332,0.0,0.0,0.0,0.0,0.0,2.3025,0.0,0.0,2.6272,2.7456,2.6666,2.6821,2.6894,2.6821,2.6169,2.539,2.4373,2.1509,0.0,0.0,0.0,0.0,0.0,0.0,2.18,2.1738,2.0553,1.9876,1.9864,1.9906,1.9941,1.994,1.9326,1.9091,1.917,1.9277,1.9633,2.0357,2.0266,0.0,0.0,0.0,0.0,0.0,0.0,0.0,0.0,0.0,0.0,0.0,0.0,0.0,0.0,0.0,0.0,0.0,0.0,0.0,0.0,1.8858,0.0,0.0,0.0,0.0,0.0,0.0,0.0,0.0,0.0,0.0,2.0376,2.0341,2.0385,2.0428,0.0,0.0,0.0,0.0,2.047,2.0411,2.0407,2.0722,2.1578,2.1048,2.0792,2.1639,0.0,0.0,2.2855,2.3063,2.3119,2.3122,2.2957,2.2339,2.0651,2.0459,2.0383,2.0203,2.0298,2.0296,2.0258,2.031,2.0308,3.0434,0.0,0.0,0.0,0.0,2.7366,2.8495,3.0089,2.9525,2.9311,2.9275,2.79,0.0,0.0,0.0,0.0,0.0,0.0,2.5564,2.6093,2.7787,2.8773,2.9214,2.9263,2.9001,2.841,2.7066,2.5957,2.5097,2.3691,2.3131,2.3436,0.0,0.0,0.0,0.0,2.2716,2.2778,2.2006,2.129,2.0677,2.0678,2.0709,2.0765,2.0757,2.077,2.0811,2.0914,2.0784,2.0403,2.0363,0.0,0.0,0.0,0.0,0.0,0.0,0.0,0.0,0.0,0.0,0.0,0.0,0.0,0.0,0.0,0.0,0.0,0.0,0.0,2.0662,2.065,2.0382,0.0,0.0,0.0,0.0,0.0,0.0,0.0,0.0,0.0,2.1107,2.0553,2.0434,0.0,0.0,2.0386,2.0732,2.0545,2.0381,2.0395,2.0453,0.0,2.0816,2.0698,2.0872,2.1737,2.2805,2.344,2.3077,2.3472,2.3886,2.3895,2.3351,2.272,2.2301,2.2609,2.2509,2.1507,2.1593,2.1818,2.1271,2.114,2.1298,3.4683,3.2472,3.0716,3.0127,3.0386,3.075,3.1705,3.2992,3.2777,3.2809,3.2934,3.1627,3.0071,2.8349,2.6871,0.0,0.0,0.0,2.8175,2.8862,2.973,3.0487,3.1034,3.1146,3.0907,3.0411,2.9159,2.8124,2.7332,2.6479,2.5855,2.5432,0.0,0.0,2.4077,2.3759,2.3643,2.3698,2.3094,2.2361,2.1541,2.0859,2.0552,2.062,2.0807,2.0918,2.0905,2.1069,2.0914,2.0385,2.0355,2.0335,0.0,0.0,0.0,0.0,0.0,0.0,0.0,0.0,0.0,0.0,0.0,2.1217,0.0,0.0,0.0,0.0,2.0046,2.0418,2.1091,2.1129,0.0,0.0,0.0,0.0,0.0,0.0,0.0,2.2357,2.2372,2.2264,2.1938,2.1475,2.1124,2.1075,2.0604,2.046,2.0939,0.0,2.0383,2.0383,2.0425,2.0461,2.0515,2.0536,2.085,2.1756,2.326,2.4146,2.3704,2.4255,2.4767,2.4734,2.4352,2.3874,2.3541,2.4408,2.4525,2.2522,2.2474,2.2623,2.2156,2.2078,2.2314,3.7939,3.7663,3.4715,3.3172,3.2764,3.3539,3.3652,3.3296,3.3913,3.4851,3.594,3.5125,3.4519,3.404,3.1806,0.0,3.1103,3.1049,3.1135,3.1401,3.2144,3.2488,3.2502,3.2611,3.2634,3.2542,3.1868,3.1133,3.0293,2.9465,2.859,2.7633,2.558,2.4476,2.4375,2.4569,2.4592,2.4474,2.3958,2.3254,2.2398,2.0815,2.0057,2.0218,2.0253,2.029,2.0212,2.0384,2.0429,2.0295,2.0302,2.0328,2.0327,0.0,0.0,0.0,0.0,0.0,0.0,0.0,0.0,0.0,0.0,0.0,0.0,0.0,0.0,0.0,2.0565,0.0,2.0864,2.0912,0.0,0.0,0.0,2.2374,2.254,2.3303,2.3511,2.283,0.0,0.0,2.2882,2.2743,2.2192,2.0785,2.0588,2.0588,2.0618,2.075,2.0672,2.0728,2.0644,2.0681,2.0882,2.0958,2.1274,2.1991,2.3398,2.4452,2.443,2.5055,2.5622,2.564,2.5649,2.536,2.4638,2.568,2.6034,2.3599,2.3173,2.3168,2.319,2.319,2.3523,3.9843,3.9636,3.8352,3.7119,3.6092,3.6911,3.7514,3.7969,3.8135,3.8144,3.7924,3.6529,3.5446,3.4658,3.3789,3.3833,3.4563,3.3967,3.4018,3.4645,3.486,3.4953,3.4899,3.4362,3.3775,3.3158,3.2415,3.1624,3.0846,3.0589,2.9751,2.8323,2.7743,2.6855,2.5624,2.5823,2.5697,2.5171,2.5169,2.4532,2.3243,2.2229,2.2011,2.2621,2.2767,2.25,2.1878,2.1961,2.1453,2.023,2.0253,2.0238,2.0109,2.0946,0.0,0.0,0.0,0.0,0.0,0.0,0.0,0.0,0.0,2.2399,2.2242,0.0,2.1783,0.0,2.0642,2.0973,2.1933,2.2514,0.0,0.0,2.2895,2.2988,2.3105,2.3414,2.3738,2.4024,2.3974,2.3818,2.3556,2.3088,2.269,2.241,2.2304,2.2462,2.3055,2.273,2.2412,2.2347,2.2356,2.2455,2.2456,2.3069,2.3234,2.287,2.4238,2.5156,2.453,2.5116,2.5702,2.57,2.5679,2.5579,2.5402,2.5753,2.579,2.5179,2.503,2.5035,2.5028,2.5026,2.5496,4.0774,4.0458,3.9989,3.9156,3.8162,3.8616,3.9046,3.9476,3.9744,3.9489,3.8831,3.7824,3.6937,3.6223,3.6303,3.6791,3.7486,3.6749,3.6544,3.6852,3.649,3.6146,3.5786,3.5351,3.4899,3.4443,3.3647,3.3031,3.2578,3.1904,3.1057,3.0148,2.9437,2.8577,2.7566,2.7013,2.6736,2.6728,2.5944,2.4871,2.3461,2.2689,2.2618,2.3291,2.3045,2.2808,2.2596,2.2378,2.1828,2.0919,2.0994,2.1024,2.0912,2.121,2.1257,0.0,0.0,0.0,0.0,0.0,0.0,0.0,0.0,0.0,0.0,0.0,2.2892,2.2292,2.2062,2.2306,2.3166,2.3649,2.4034,2.442,2.4457,2.4485,2.4605,2.4738,2.4796,2.4766,2.4593,2.4478,2.446,2.4161,2.401,2.4144,2.409,2.3911,2.3624,2.3252,2.3034,2.3044,2.3075,2.3112,2.3112,2.3505,2.3665,2.3317,2.4216,2.494,2.4511,2.5117,2.5703,2.5703,2.5703,2.5703,2.5702,2.5702,2.5702,2.57,2.5697,2.5849,2.6215,2.6586,2.7308,4.1117,4.0679,4.047,3.9978,3.9315,3.9315,3.9315,3.9325,3.9842,3.9679,3.8974,3.8751,3.8408,3.8032,3.8485,3.9111,3.9777,3.8815,3.8292,3.8198,3.7419,3.6767,3.6224,3.6021,3.6003,3.6025,3.5188,3.4715,3.457,3.3176,3.2383,3.2115,3.0776,2.9963,2.9701,2.8221,2.7698,2.8211,2.6432,2.4921,2.3704,2.3017,2.2874,2.3285,2.258,2.2357,2.2776,2.225,2.1871,2.1774,2.1895,2.1971,2.1969,2.1021,2.1245,0.0,2.2081,0.0,0.0,0.0,0.0,0.0,0.0,0.0,0.0,2.525,2.4745,2.4584,2.4148,2.4028,2.4486,2.4566,2.4984,2.5874,2.5992,2.6113,2.6357,2.6333,2.6035,2.5412,2.5325,2.5332,2.5399,2.5492,2.5573,2.5441,2.5392,2.493,2.3703,2.3469,2.3554,2.3412,2.3398,2.3603,2.3565,2.3493,2.3535,2.3558,2.4149,2.4545,2.4603,2.5211,2.57,2.57,2.5702,2.5703,2.5703,2.5703,2.5742,2.5898,2.5937,2.621,2.6989,2.7672,2.8609,4.1326,4.1205,4.0625,3.9978,3.9315,3.9315,3.9315,3.9299,3.9398,3.9068,3.8361,3.8022,3.8342,3.8912,3.8016,3.8512,3.9908,3.7907,3.7476,3.8341,3.7703,3.7757,3.8312,3.7275,3.6988,3.7323,3.6176,3.5258,3.4591,3.4301,3.3394,3.1984,3.1642,3.1384,3.1051,0.0,0.0,0.0,2.6613,2.5993,2.5714,2.4905,2.4574,2.4701,2.4003,0.0,2.2896,2.2758,2.2382,2.1703,2.1762,0.0,0.0,0.0,0.0,0.0,0.0,0.0,0.0,0.0,0.0,0.0,2.6335,2.6327,2.6647,2.6488,2.6107,2.5531,2.593,2.6085,2.5731,2.5699,2.6016,2.681,2.6384,2.6277,2.6919,2.6456,2.6219,2.6758,2.6306,2.5988,2.6104,2.6217,2.6053,2.5573,2.5417,2.5313,2.4993,2.4966,2.5085,2.5111,2.4946,2.4992,2.5048,2.4997,2.489,2.5085,2.5178,2.5336,2.5366,2.5479,2.57,2.57,2.57,2.57,2.5701,2.5701,2.5897,2.66,2.6717,2.7011,2.7869,2.818,2.8765,4.1872,0.0,4.0912,4.0293,0.0,3.9315,3.9315,3.9315,3.9315,3.8676,3.7649,3.7478,3.7541,3.778,3.7899,3.8746,4.0097,3.8944,3.9,3.998,3.9319,3.9247,3.9716,3.9045,3.8684,3.8544,3.7508,3.6562,3.5783,3.5403,3.4726,3.3839,3.3028,3.2571,3.2396,3.0822,2.9107,2.7214,2.732,2.69,2.5833,2.5437,2.5215,2.5113,2.4407,0.0,0.0,0.0,0.0,0.0,0.0,0.0,0.0,0.0,0.0,2.4115,2.4421,2.5045,2.6006,2.6371,2.6819,2.7445,2.7892,2.7791,2.6981,2.7335,2.7261,2.6522,2.6775,2.6745,2.6115,2.6368,2.6762,2.7148,2.7186,2.7355,2.7665,2.7448,2.7204,2.7157,2.6908,2.6734,2.6816,2.6982,2.6949,2.6558,2.6222,2.5995,2.5931,2.5703,2.5501,2.5532,2.5489,2.5457,2.5498,2.5504,2.552,2.5518,2.5559,2.5588,2.5597,2.5661,2.5695,2.5695,2.5696,2.5698,2.5698,2.5699,2.5837,2.6227,2.6364,2.6834,2.7988,2.8633,2.9315,4.2369,4.0812,4.1392,4.0845,3.968,3.9547,3.9415,3.9299,0.0,0.0,0.0,3.7168,3.6829,3.6495,3.7887,3.9018,3.9862,3.9946,4.0404,4.118,4.0428,4.0217,4.0435,4.0365,4.0095,3.9661,3.8827,3.7919,3.6995,3.62,3.5731,3.5478,3.4262,3.361,3.352,3.2306,3.0432,2.8164,2.8585,2.7954,2.6114,2.5989,2.5748,2.5303,2.4532,2.4367,2.4792,2.4228,2.3988,2.4114,2.4132,2.4136,2.4169,2.4042,2.4335,2.5138,2.4957,2.5277,2.6363,2.7072,2.7724,2.8358,2.9138,2.897,2.7494,2.8147,2.837,2.7693,2.7583,2.732,2.6706,2.7073,2.7486,2.7636,2.8097,2.8426,2.8585,2.8463,2.8153,2.773,2.7593,2.7525,2.7578,2.7773,2.7835,2.7685,2.7127,2.68,2.6675,2.5985,2.5418,2.5459,2.5588,2.567,2.5691,2.5744,2.5696,2.5741,2.5646,2.5556,2.5583,2.5632,2.5673,2.568,2.5684,2.5688,2.5692,2.5696,2.5757,2.5893,2.5816,2.6264,2.8062,2.8962,2.9628,4.2456,4.222,4.2291,4.186,4.1077,4.0509,3.9895,3.9249,3.8642,3.8245,3.803,3.7384,3.7111,3.7195,3.7934,3.8385,3.8656,3.8656,3.892,3.9339,3.8717,3.9093,4.0186,3.9888,4.0125,4.0745,3.977,3.8462,3.7049,3.6236,3.546,3.4844,3.4519,3.4443,3.4407,3.4208,3.3233,3.1522,3.0754,2.9928,2.8919,2.8152,2.7092,2.5762,2.5063,2.475,2.4887,2.4797,2.5031,2.5715,2.5763,2.5845,2.5979,2.5354,2.5413,2.6276,2.5167,2.5057,2.6532,2.6774,2.752,2.9047,2.9188,2.9211,2.9308,2.9439,2.9467,2.9326,2.926,2.9279,2.9147,2.8575,2.851,2.9101,2.8754,2.8679,2.9363,2.8866,2.866,2.9138,2.8688,2.8281,2.8355,2.8479,2.8324,2.7767,2.7638,2.7535,2.7272,2.6261,2.5423,2.543,2.5972,2.6346,2.6395,2.6405,2.6429,2.637,2.5846,2.5579,2.5686,2.5587,2.5639,2.5685,2.5717,2.5687,2.5762,2.5689,2.6062,2.657,2.6317,2.659,2.8779,2.9035,2.9156,4.2622,4.1976,4.2324,4.2088,4.1364,4.1061,4.0763,4.0382,3.9686,3.8924,3.8212,3.7864,3.7509,3.7269,3.7967,3.8522,3.8896,3.9294,3.9742,4.0239,4.0234,4.0491,4.0981,4.1164,4.1227,4.1215,4.0741,3.9932,3.8935,3.8518,3.7741,3.6562,3.5711,3.5258,3.5243,3.5243,3.4896,3.412,3.1971,3.0255,2.9053,2.8599,2.762,2.6063,2.6117,2.6008,2.5628,2.5628,2.5761,2.6134,2.6158,2.6205,2.6272,2.5928,2.6136,2.6983,2.6392,2.6483,2.7652,2.7845,2.8246,2.9053,2.9123,2.9169,2.9345,2.9472,2.9588,2.9673,2.9701,2.9495,2.9082,2.9063,2.9101,2.8979,2.9026,2.927,2.957,2.9382,2.9288,2.9589,2.9345,2.911,2.9136,2.9242,2.9212,2.8818,2.8586,2.823,2.779,2.7114,2.6592,2.6645,2.6949,2.7154,2.7198,2.7228,2.7251,2.7267,2.6569,2.6365,2.6602,2.63,2.6045,2.6754,2.6371,2.6163,2.6799,2.6702,2.6859,2.7366,2.6996,2.7427,2.8932,2.9597,3.0051,4.2936,4.1943,4.2506,4.2353,4.1657,4.1674,4.1546,4.1359,4.0812,3.9984,3.8964,3.8609,3.8046,3.7466,3.8242,3.8774,3.9144,3.9855,4.0407,4.0868,4.1246,4.142,4.1472,4.1945,4.1951,4.1517,4.1398,4.101,4.0492,4.0257,3.9588,3.8445,3.7214,3.6526,3.6329,3.5967,3.5786,3.5623,3.2995,3.0858,2.9487,2.9414,2.8491,2.6663,2.7061,2.7115,2.653,2.6475,2.6554,2.6717,2.6735,2.6747,2.6747,2.6554,2.6826,2.7532,2.7333,2.7477,2.825,2.8476,2.8669,2.8905,2.8943,2.9008,2.9104,2.9209,2.9361,2.954,2.9589,2.9364,2.8905,2.9251,2.942,2.881,2.9448,2.9964,2.9983,3.0114,3.0255,3.0227,3.0096,2.9983,2.9964,2.9859,2.9775,2.9777,2.9486,2.8909,2.8383,2.8275,2.8262,2.8218,2.8116,2.8001,2.8049,2.8049,2.8086,2.8145,2.7439,2.7272,2.7524,2.6838,2.6675,2.7692,2.717,2.6925,2.7908,2.7756,2.762,2.8049,2.7698,2.7816,2.9241,2.9771,3.0459,4.3515,4.34,4.3433,4.3069,4.2406,4.239,4.2054,4.1491,4.1342,4.1276,4.0928,3.9779,3.8791,3.8261,3.8884,3.8947,3.845,3.9194,3.9573,3.9556,3.9651,4.0011,4.0546,4.0855,4.1276,4.1704,4.1385,4.0926,4.0362,3.9571,3.9229,3.9261,3.9134,3.8608,3.7919,3.6562,3.5822,3.5768,3.4063,3.2741,3.1944,3.1872,3.0423,2.7387,2.7369,2.7369,2.7363,2.7278,2.7622,2.831,2.8328,2.8346,2.8274,2.7676,2.764,2.8346,2.7164,2.6663,2.7453,2.7526,2.7985,2.876,2.8779,2.8822,2.9086,2.9044,2.9026,2.9229,2.9378,2.9348,2.9349,2.9579,2.973,2.9739,3.033,3.0799,3.0856,3.1447,3.1879,3.1879,3.1166,3.0799,3.0734,3.0283,2.9952,3.0147,2.9992,2.9815,2.9739,2.9707,2.9714,2.9721,2.9359,2.89,2.8842,2.8849,2.8893,2.8855,2.8234,2.7964,2.7955,2.7904,2.7855,2.8268,2.7974,2.7898,2.8247,2.8185,2.8222,2.857,2.8533,2.8517,2.9259,2.928,2.9479,4.3615,4.3615,4.3615,4.3433,4.3168,4.3135,4.2969,4.2671,4.2253,4.2042,4.191,4.0978,4.015,3.952,3.9829,3.9591,3.9023,3.9262,3.9379,3.9458,3.9747,3.9986,4.0154,4.0825,4.1328,4.1596,4.1577,4.1525,4.1244,4.0269,4.0003,4.0437,3.9823,3.9224,3.8862,3.8264,3.7486,3.6526,3.6327,3.5403,3.3773,3.3158,3.1836,2.9826,2.9536,2.9282,2.8811,2.8364,2.8256,2.8582,2.86,2.86,2.86,2.8292,2.8256,2.8527,2.8002,2.7749,2.8075,2.8111,2.8275,2.8706,2.9098,2.9372,2.9509,2.9866,3.0176,3.0118,2.9628,2.9386,2.986,3.012,3.0409,3.0876,3.1359,3.1607,3.1635,3.1898,3.2115,3.2086,3.1823,3.1616,3.1514,3.097,3.0615,3.0639,3.0437,3.0182,3.0209,3.0204,3.0204,3.0173,2.99,2.9735,2.9651,2.9696,2.9704,2.9589,2.9021,2.8568,2.9118,2.838,2.8188,2.9256,2.8715,2.8712,2.9645,2.9243,2.9048,2.9355,2.973,2.9815,2.9668,2.9689,3.0141,4.3714,4.388,4.388,4.391,4.388,4.3664,4.3615,4.3549,4.3019,4.2816,4.2738,4.2224,4.1624,4.0994,4.0763,4.0337,3.9814,3.9694,3.9578,3.9518,3.9833,3.9978,3.9986,4.0621,4.11,4.1305,4.1507,4.1856,4.2124,4.1338,4.1133,4.1535,4.0546,3.9877,3.9695,3.9514,3.8734,3.7502,3.7937,3.7123,3.515,3.4371,3.3194,3.151,3.1107,3.0636,2.9839,2.9047,2.86,2.86,2.86,2.86,2.86,2.86,2.86,2.86,2.86,2.86,2.86,2.86,2.8708,2.8938,2.9513,2.9893,3.0165,3.0672,3.0966,3.0917,3.0167,2.9951,3.0445,3.0735,3.1136,3.1738,3.211,3.2381,3.2451,3.2611,3.2837,3.278,3.2668,3.233,3.2077,3.1628,3.1289,3.1066,3.0704,3.043,3.0428,3.0381,3.0268,3.0479,3.0364,3.0199,3.0213,3.0148,3.0239,3.0157,2.9607,2.9532,3.0304,2.9168,2.8709,2.9785,2.9081,2.9032,2.9946,2.993,2.9771,3.0436,3.0701,3.0531,3.0115,3.032,3.0465,4.4026,4.4572,4.4669,4.4638,4.4605,4.3943,4.3631,4.3664,4.3549,4.3532,4.3499,4.3449,4.3069,4.2353,4.174,4.0994,4.0426,4.0469,4.0103,3.9485,3.9568,3.9685,3.9884,3.9977,4.0379,4.1017,4.1111,4.1503,4.2225,4.22,4.2422,4.2681,4.1735,4.0996,4.0456,3.984,3.9024,3.8281,3.8317,3.7504,3.6021,3.5768,3.4588,3.2542,3.1419,3.069,2.9893,2.9052,2.8618,2.8618,2.8618,2.86,2.86,2.86,2.86,2.86,2.86,2.86,2.86,2.8654,2.8944,2.9603,2.9875,3.0183,3.0871,3.1143,3.122,3.1039,3.1075,3.1065,3.1294,3.1446,3.1607,3.1953,3.2605,3.3097,3.3342,3.3869,3.4425,3.4264,3.3719,3.3137,3.233,3.2067,3.1798,3.1393,3.1142,3.1197,3.1199,3.0715,3.0732,3.1045,3.0835,3.0249,3.0249,3.0211,3.0211,3.0168,3.0105,3.0086,3.0196,3.0241,3.0327,3.0351,3.007,3.0066,3.0384,3.049,3.042,3.0625,3.0678,3.0514,3.038,2.9922,3.0074,4.4456,4.4768,4.5202,4.54,4.5348,4.4622,4.4307,4.4257,4.378,4.3615,4.3615,4.3615,4.3433,4.3184,4.292,4.2142,4.111,4.11,4.0718,4.0111,4.0486,4.0552,4.0244,4.0417,4.0661,4.09,4.0989,4.1277,4.1827,4.2142,4.2369,4.2496,4.242,4.1993,4.1343,4.0999,4.0256,3.9152,3.9405,3.9152,3.8101,3.7612,3.6651,3.5256,3.2973,3.1618,3.1347,3.0061,2.9373,2.9373,2.8902,2.86,2.86,2.86,2.86,2.86,2.86,2.86,2.8654,2.9101,2.9463,2.9821,3.0799,3.1401,3.1795,3.2216,3.2542,3.2506,3.2524,3.2567,3.2542,3.2354,3.2433,3.3118,3.3589,3.3915,3.4135,3.4433,3.4612,3.4556,3.4301,3.4038,3.3625,3.3269,3.2859,3.26,3.224,3.2053,3.208,3.1901,3.1859,3.2088,3.2012,3.179,3.1801,3.0777,3.0211,3.0211,3.0199,3.0213,3.029,3.0335,3.0369,3.0304,3.0352,3.0381,3.0407,3.0434,3.0472,3.0509,3.0552,3.0603,3.0639,3.0233,3.0312,4.5384,4.5483,4.593,4.6146,4.603,4.5086,4.4837,4.4903,4.4042,4.3714,4.3926,4.3976,4.383,4.3681,4.386,4.33,4.2142,4.186,4.1375,4.0796,4.1193,4.116,4.0862,4.1117,4.1367,4.1485,4.1536,4.1665,4.1692,4.1934,4.2166,4.2409,4.2631,4.2533,4.2139,4.2085,4.1433,4.0492,4.0637,4.0401,3.946,3.8608,3.7683,3.6453,3.4226,3.2705,3.2234,3.0908,3.0038,2.9766,2.9264,2.8858,2.859,2.8523,2.8536,2.8536,2.8536,2.8693,2.898,2.95,3.002,3.0545,3.151,3.2288,3.2578,3.3085,3.3339,3.3393,3.3393,3.3393,3.3314,3.3011,3.3126,3.3836,3.4105,3.4305,3.455,3.4594,3.4612,3.4612,3.4575,3.4575,3.4556,3.4095,3.3713,3.353,3.3025,3.2824,3.2912,3.2768,3.2848,3.2997,3.2795,3.2585,3.247,3.1725,3.135,3.1312,3.1102,3.0906,3.0607,3.0576,3.0449,3.0342,3.0279,3.0273,3.0292,3.0315,3.0367,3.0411,3.0447,3.0506,3.0546,3.0587,3.0604,4.6858,4.6792,4.6891,4.6908,4.6709,4.5467,4.5168,4.5516,4.4277,4.4092,4.4655,4.4655,4.4307,4.3946,4.4456,4.4274,4.3598,4.292,4.2204,4.1508,4.1513,4.1529,4.1453,4.1843,4.2192,4.2501,4.2675,4.2426,4.1968,4.1837,4.2019,4.247,4.2432,4.2557,4.2865,4.2755,4.2448,4.1814,4.1669,4.1017,3.9568,3.8843,3.7739,3.6254,3.515,3.3903,3.2383,3.1473,3.069,3.0056,2.9844,2.9362,2.8738,2.8609,2.8501,2.864,2.8519,2.8909,2.9654,2.9903,3.0699,3.1655,3.218,3.2596,3.314,3.3339,3.3393,3.3393,3.3393,3.3393,3.3393,3.3335,3.35,3.3921,3.4036,3.4197,3.4495,3.4612,3.4612,3.4612,3.4612,3.4612,3.4612,3.4518,3.4218,3.3713,3.355,3.3592,3.3639,3.3311,3.3214,3.3592,3.3581,3.3336,3.3027,3.2711,3.2718,3.268,3.2394,3.2134,3.1568,3.1338,3.0906,3.071,3.0296,3.0271,3.024,3.0273,3.0267,3.0286,3.0342,3.0389,3.0411,3.0453,3.054,4.7355,4.699,4.7454,4.7653,4.7537,4.6609,4.6361,4.6378,4.4986,4.4787,4.5268,4.492,4.4821,4.5119,4.5384,4.5317,4.5069,4.4324,4.3346,4.2423,4.2671,4.2589,4.2253,4.2314,4.2461,4.2629,4.2476,4.2451,4.2466,4.2218,4.2225,4.2389,4.2611,4.2749,4.2882,4.2901,4.2719,4.2556,4.252,4.2249,4.1687,4.0456,3.9261,3.8282,3.6961,3.5462,3.3728,3.2466,3.1745,3.1401,3.0798,3.0286,3.0014,2.9898,2.9883,2.9964,2.9898,2.9983,3.0394,3.0926,3.1466,3.2169,3.2705,3.3103,3.3357,3.3393,3.3393,3.3393,3.3393,3.3393,3.3393,3.3393,3.3577,3.3965,3.4011,3.4161,3.4536,3.4631,3.4612,3.4612,3.4612,3.4612,3.4631,3.4669,3.4545,3.4331,3.4302,3.4374,3.4357,3.4188,3.428,3.4624,3.4365,3.4124,3.3996,3.3879,3.3906,3.3704,3.3406,3.3043,3.2489,3.2076,3.1599,3.0949,3.0529,3.0249,3.0218,3.0206,3.0206,3.0213,3.0273,3.0286,3.0279,3.0331,3.0429,4.7736,4.7371,4.7819,4.8001,4.7918,4.7206,4.7057,4.7057,4.5732,4.5533,4.598,4.5732,4.5582,4.5831,4.6063,4.603,4.5765,4.5284,4.4605,4.3761,4.3499,4.3333,4.2995,4.309,4.3293,4.3391,4.315,4.3143,4.3303,4.2867,4.2632,4.2739,4.2775,4.2824,4.29,4.2919,4.2919,4.2919,4.2901,4.2919,4.2647,4.1614,4.0583,3.9695,3.8246,3.6783,3.5313,3.3873,3.2755,3.2025,3.1135,3.0632,3.0555,3.0436,3.0472,3.0514,3.0561,3.0645,3.1113,3.1632,3.2227,3.2654,3.3121,3.3375,3.3393,3.3393,3.3393,3.3393,3.3393,3.3393,3.3393,3.3393,3.3549,3.3842,3.3941,3.4173,3.4544,3.4913,3.509,3.5184,3.5371,3.5465,3.5533,3.5184,3.5108,3.5093,3.4873,3.4768,3.4769,3.4792,3.4898,3.4964,3.4821,3.4798,3.5028,3.5064,3.5073,3.4727,3.4323,3.3845,3.3318,3.3012,3.2611,3.1427,3.0739,3.03,3.0211,3.0211,3.0211,3.0218,3.0359,3.0226,3.0241,3.0248,3.0339,4.8001,4.8001,4.8001,4.8001,4.7934,4.7305,4.7371,4.7669,4.6477,4.6278,4.6825,4.6758,4.651,4.6195,4.6725,4.6659,4.603,4.5881,4.5814,4.5334,4.4589,4.378,4.3558,4.3755,4.4068,4.4448,4.4333,4.4265,4.4119,4.3541,4.3229,4.3265,4.2958,4.2745,4.288,4.2919,4.2919,4.2919,4.2919,4.2919,4.2846,4.2085,4.1234,4.0402,3.9008,3.7759,3.6589,3.5058,3.351,3.1987,3.1225,3.0843,3.0566,3.0448,3.0654,3.0705,3.0617,3.1163,3.1778,3.218,3.2571,3.3197,3.3321,3.3429,3.3538,3.3628,3.3701,3.3791,3.3773,3.3683,3.3701,3.3719,3.3818,3.3867,3.4068,3.4228,3.4603,3.5259,3.5503,3.5841,3.6498,3.6998,3.6791,3.631,3.5991,3.5691,3.5213,3.4967,3.4737,3.4769,3.482,3.485,3.4898,3.4955,3.5047,3.5136,3.5126,3.5037,3.4776,3.4495,3.4044,3.3738,3.302,3.1847,3.1178,3.0682,3.0376,3.051,3.0682,3.0918,3.0803,3.0414,3.0435,3.0699,3.0764,4.8001,4.8001,4.8001,4.8001,4.7984,4.7769,4.7802,4.7885,4.704,4.7007,4.7487,4.7123,4.7123,4.7421,4.7587,4.7587,4.7272,4.6825,4.6609,4.646,4.5682,4.4589,4.375,4.3511,4.3855,4.4374,4.4432,4.4408,4.4363,4.4114,4.3811,4.3408,4.3532,4.3286,4.2972,4.2955,4.2919,4.2919,4.2919,4.2919,4.2792,4.2158,4.127,4.0365,3.9516,3.8254,3.6627,3.4899,3.3633,3.2721,3.2418,3.2198,3.1948,3.2028,3.1991,3.1945,3.2127,3.2309,3.255,3.2796,3.3043,3.3324,3.3465,3.3665,3.4262,3.428,3.457,3.4953,3.517,3.5098,3.5134,3.5062,3.5184,3.533,3.4734,3.4362,3.4667,3.48,3.5165,3.5784,3.616,3.661,3.6979,3.6847,3.6479,3.6047,3.5615,3.5213,3.4854,3.4695,3.4718,3.478,3.483,3.4879,3.4946,3.5057,3.5101,3.5127,3.5056,3.501,3.4598,3.4254,3.3146,3.1866,3.1962,3.1618,3.1331,3.1236,3.1446,3.1637,3.114,3.0777,3.1446,3.1824,3.1754,4.858,4.8034,4.8332,4.8282,4.8017,4.8001,4.8001,4.7934,4.7587,4.7587,4.7852,4.757,4.7603,4.7968,4.8001,4.8001,4.7934,4.7554,4.7371,4.7173,4.6245,4.5152,4.4185,4.3652,4.3731,4.4356,4.4374,4.4673,4.496,4.4794,4.4546,4.4482,4.4422,4.4068,4.3461,4.3389,4.319,4.2992,4.2919,4.2919,4.2847,4.2466,4.1794,4.0943,4.0203,3.8885,3.6822,3.5593,3.4577,3.3661,3.308,3.2753,3.2737,3.2818,3.2852,3.2755,3.3184,3.3351,3.3152,3.3404,3.3776,3.387,3.39,3.4317,3.4914,3.5098,3.5388,3.5659,3.5786,3.5786,3.5731,3.5514,3.5584,3.5795,3.517,3.4835,3.5381,3.5928,3.6098,3.6426,3.6723,3.7042,3.753,3.7061,3.6648,3.6291,3.5653,3.5165,3.4725,3.4669,3.468,3.48,3.4804,3.4836,3.4982,3.5107,3.52,3.5236,3.5145,3.5185,3.4964,3.459,3.3738,3.2821,3.2776,3.2604,3.226,3.2012,3.2107,3.2031,3.1503,3.1572,3.2241,3.2585,3.2527,4.9442,4.8282,4.8945,4.8796,4.8216,4.8133,4.8117,4.8001,4.7951,4.7951,4.7984,4.8001,4.7934,4.8001,4.8001,4.8001,4.8001,4.7918,4.7951,4.752,4.6643,4.5549,4.4787,4.389,4.3964,4.4491,4.4429,4.4885,4.5363,4.5271,4.5393,4.5343,4.5216,4.4847,4.4145,4.3985,4.3588,4.3209,4.2973,4.2919,4.2865,4.2611,4.2102,4.1468,4.0492,3.9316,3.7746,3.6759,3.5938,3.4657,3.3421,3.3035,3.3061,3.3059,3.3093,3.3216,3.3757,3.3957,3.3528,3.405,3.4627,3.4697,3.4718,3.508,3.5713,3.5928,3.6055,3.6329,3.6075,3.6272,3.6182,3.5494,3.5644,3.6213,3.5721,3.58,3.6695,3.7508,3.7685,3.7338,3.7868,3.8206,3.7943,3.723,3.6423,3.6697,3.604,3.539,3.4977,3.4781,3.4846,3.4999,3.4927,3.4787,3.4975,3.518,3.5287,3.5343,3.5204,3.5141,3.5073,3.4718,3.4304,3.3891,3.3692,3.3368,3.2986,3.2871,3.2909,3.2871,3.2623,3.2737,3.2986,3.3062,3.3089,4.9987,4.9756,4.9906,4.9558,4.8945,4.8862,4.8547,4.8001,4.8017,4.805,4.8001,4.8001,4.8001,4.8001,4.8001,4.8001,4.8001,4.8001,4.8001,4.7885,4.7139,4.6278,4.5433,4.4376,4.4099,4.4558,4.475,4.4934,4.5216,4.573,4.5793,4.5496,4.5297,4.4752,4.4651,4.3874,4.3444,4.3608,4.3245,4.2919,4.2792,4.2375,4.192,4.1429,4.022,3.9391,3.872,3.7461,3.6651,3.6071,3.4947,3.4014,3.3944,3.4103,3.4103,3.4028,3.4279,3.4444,3.422,3.4478,3.4881,3.5478,3.5569,3.5892,3.6633,3.6741,3.7067,3.7484,3.7685,3.7538,3.7413,3.6888,3.6864,3.7198,3.7049,3.7077,3.7978,3.7602,3.7486,3.7871,3.8131,3.83,3.83,3.7943,3.7361,3.7091,3.6415,3.5709,3.5277,3.4883,3.4921,3.5015,3.5138,3.5104,3.5561,3.575,3.5872,3.579,3.556,3.5365,3.5278,3.5007,3.4623,3.4525,3.4522,3.4159,3.3757,3.3738,3.3777,3.3757,3.375,3.3788,3.3788,3.3757,3.3777,5.0833,5.027,5.0568,5.0088,4.926,4.9442,4.9011,4.8233,4.8382,4.8315,4.805,4.8001,4.8001,4.8001,4.8001,4.8001,4.8001,4.8001,4.8001,4.7934,4.7554,4.7222,4.6758,4.5698,4.5135,4.4973,4.5404,4.5563,4.5679,4.6135,4.6418,4.6047,4.5833,4.5502,4.5,4.4267,4.386,4.3445,4.3173,4.2919,4.281,4.252,4.1976,4.1485,4.0402,3.9697,3.9261,3.8558,3.769,3.6964,3.61,3.5351,3.4983,3.5058,3.5058,3.5013,3.5439,3.5426,3.5234,3.5465,3.5946,3.6309,3.6363,3.675,3.7238,3.749,3.767,3.7998,3.8105,3.8191,3.8154,3.7448,3.7484,3.7863,3.758,3.7689,3.8464,3.8261,3.7878,3.8277,3.8281,3.83,3.8244,3.8,3.7606,3.6998,3.5852,3.5176,3.5033,3.4733,3.48,3.4921,3.5202,3.5514,3.61,3.6421,3.6623,3.646,3.616,3.596,3.5816,3.5432,3.498,3.4928,3.4857,3.4896,3.4598,3.4617,3.4541,3.456,3.4552,3.4628,3.4609,3.4541,3.4579,5.1562,5.0568,5.1116,5.0551,4.9641,5.0104,4.9541,4.8415,4.8812,4.863,4.81,4.8001,4.8001,4.8001,4.8001,4.8001,4.8001,4.8001,4.8001,4.7968,4.7934,4.7703,4.7421,4.6957,4.6373,4.5352,4.606,4.6355,4.6422,4.6759,4.6906,4.6743,4.6712,4.6225,4.544,4.5091,4.4726,4.4005,4.3697,4.3354,4.3227,4.3081,4.27,4.1958,4.1144,4.0456,4.0003,3.9406,3.8735,3.7466,3.7249,3.6832,3.6363,3.6019,3.5983,3.5985,3.649,3.6437,3.6166,3.649,3.6904,3.7122,3.7176,3.7382,3.7821,3.7999,3.8034,3.8053,3.8124,3.8209,3.8138,3.7701,3.7647,3.7935,3.7573,3.7797,3.8538,3.905,3.8861,3.8683,3.8676,3.8694,3.815,3.7699,3.7305,3.6828,3.5702,3.4969,3.4958,3.4846,3.5071,3.5044,3.5315,3.5822,3.6408,3.7122,3.734,3.713,3.6799,3.6481,3.634,3.6244,3.5879,3.5234,3.5106,3.5144,3.5125,3.498,3.4999,3.5182,3.5182,3.5076,3.5133,3.5267,3.5324,5.1696,5.1976,5.1514,5.1149,5.0949,5.11,5.027,4.9094,4.9077,4.868,4.8067,4.8001,4.8001,4.8001,4.8001,4.8001,4.8001,4.8001,4.8001,4.8001,4.7984,4.7785,4.7388,4.7587,4.7398,4.7228,4.7217,4.7106,4.7037,4.723,4.7432,4.7107,4.6436,4.6011,4.6163,4.5692,4.5346,4.5198,4.4874,4.4385,4.4005,4.3751,4.3462,4.2683,4.1922,4.1397,4.0963,4.0075,3.926,3.897,3.8337,3.7973,3.7558,3.7085,3.685,3.685,3.6995,3.7031,3.6904,3.6941,3.7393,3.7792,3.7937,3.792,3.8104,3.8175,3.8175,3.8175,3.8158,3.8209,3.8209,3.7973,3.8028,3.817,3.8212,3.8261,3.8594,3.8913,3.924,3.9183,3.9183,3.9107,3.8507,3.8,3.7774,3.7474,3.6735,3.6415,3.6554,3.616,3.5822,3.5672,3.5495,3.6096,3.6697,3.7523,3.8009,3.78,3.7434,3.6904,3.6866,3.711,3.6824,3.6115,3.5509,3.5305,3.5278,3.522,3.5182,3.5182,3.5305,3.5439,3.5439,3.545,3.5698,5.2094,5.2357,5.2028,5.1663,5.1415,5.173,5.08,4.9326,4.9475,4.9044,4.8266,4.8001,4.8001,4.8001,4.8001,4.8001,4.8001,4.8001,4.8001,4.8001,4.7968,4.7868,4.7454,4.7868,4.7882,4.7899,4.7963,4.7836,4.7651,4.8452,4.8184,4.747,4.6926,4.6936,4.673,4.604,4.5717,4.5864,4.5544,4.5164,4.4693,4.4385,4.3861,4.3444,4.2737,4.2158,4.1506,4.0673,3.9786,3.9297,3.8608,3.8282,3.81,3.7901,3.7611,3.7593,3.7593,3.7611,3.7629,3.7629,3.7846,3.81,3.8209,3.8141,3.8106,3.8124,3.8192,3.8209,3.8209,3.8209,3.8209,3.8209,3.8209,3.8207,3.8289,3.8449,3.8683,3.8902,3.9202,3.9502,3.9439,3.9283,3.9107,3.8694,3.8375,3.8,3.7598,3.7692,3.7943,3.723,3.6441,3.5953,3.5728,3.619,3.6866,3.7681,3.8281,3.8174,3.796,3.7416,3.7233,3.7437,3.7319,3.6871,3.6325,3.5965,3.5335,3.5259,3.522,3.522,3.5335,3.545,3.5526,3.566,3.5984,5.2293,5.2409,5.2243,5.1945,5.1663,5.2144,5.133,4.9889,5.0005,4.9458,4.8315,4.8067,4.8033,4.8033,4.8033,4.8017,4.8001,4.8033,4.8033,4.8001,4.8033,4.8017,4.8001,4.8033,4.8032,4.8256,4.8505,4.8673,4.8577,4.9241,4.8972,4.8311,4.82,4.7811,4.7017,4.6568,4.608,4.5936,4.578,4.5743,4.5381,4.4784,4.4222,4.4095,4.3444,4.2774,4.2049,4.1198,4.0564,3.9912,3.9151,3.8464,3.8427,3.8282,3.8209,3.8209,3.8209,3.8209,3.8191,3.8154,3.8118,3.8209,3.8209,3.8124,3.8073,3.8141,3.8209,3.8209,3.8209,3.8209,3.8209,3.8209,3.8209,3.8209,3.8225,3.8323,3.8593,3.8851,3.9036,3.9288,3.9464,3.9446,3.9258,3.9251,3.892,3.8838,3.8444,3.835,3.8425,3.7568,3.6817,3.6179,3.5972,3.6329,3.6948,3.7737,3.8188,3.8263,3.8087,3.7746,3.7642,3.7667,3.7468,3.7291,3.7525,3.7101,3.6214,3.5526,3.5679,3.5717,3.5545,3.5717,3.6252,3.6413,3.6566,5.1812,5.2343,5.173,5.1763,5.2243,5.2376,5.1912,5.0984,5.042,4.9756,4.8779,4.8299,4.8082,4.813,4.8163,4.8115,4.8049,4.8082,4.8082,4.8001,4.8115,4.8115,4.8033,4.8001,4.8212,4.842,4.8625,4.911,4.9304,4.9623,4.9482,4.8908,4.8455,4.7946,4.7541,4.7254,4.7266,4.7368,4.7355,4.7011,4.6341,4.558,4.4874,4.4385,4.4005,4.3661,4.2882,4.2103,4.1451,4.1252,3.9967,3.9297,3.9134,3.8554,3.8299,3.8209,3.8209,3.8209,3.8209,3.8209,3.8209,3.8209,3.8209,3.8192,3.8158,3.8158,3.8209,3.8209,3.8209,3.8209,3.8209,3.8209,3.8209,3.8209,3.8209,3.8225,3.8405,3.8683,3.8906,3.9068,3.9234,3.938,3.9364,3.9446,3.9477,3.942,3.9326,3.9195,3.8857,3.8019,3.7155,3.6517,3.6254,3.6554,3.6967,3.7774,3.815,3.83,3.8338,3.8181,3.815,3.8093,3.7709,3.765,3.8042,3.8315,3.7693,3.7101,3.6596,3.6347,3.6337,3.6776,3.7368,3.7368,3.7139,5.2127,5.2343,5.1667,5.1818,5.2485,5.264,5.2009,5.1042,5.0626,4.9826,4.8827,4.833,4.813,4.8195,4.8195,4.8179,4.8115,4.8115,4.8066,4.8066,4.8147,4.8163,4.813,4.8115,4.8292,4.8388,4.8498,4.8841,4.9421,4.9948,4.9898,4.8884,4.9316,4.9346,4.8393,4.8097,4.8149,4.8139,4.7953,4.7554,4.7065,4.6432,4.5816,4.5436,4.5001,4.4584,4.4041,4.2991,4.2429,4.2013,4.0564,3.9423,3.9206,3.8716,3.8209,3.8209,3.8209,3.8209,3.8209,3.8209,3.8209,3.8209,3.8209,3.8192,3.8209,3.8209,3.8209,3.8209,3.8209,3.8209,3.8209,3.8209,3.8209,3.8209,3.8209,3.8274,3.8338,3.8496,3.871,3.8844,3.8979,3.9133,3.9215,3.9156,3.9264,3.9427,3.9358,3.9302,3.9039,3.8544,3.7681,3.6847,3.6735,3.681,3.7204,3.7756,3.8131,3.8413,3.8976,3.8819,3.8761,3.8573,3.8204,3.8462,3.9135,3.9195,3.8965,3.8209,3.7311,3.7177,3.7177,3.754,3.7865,3.7693,3.7663,5.2333,5.2485,5.1989,5.2124,5.2694,5.2817,5.2317,5.1329,5.0827,5.0091,4.9138,4.8557,4.826,4.8227,4.826,4.8292,4.8292,4.8212,4.8131,4.8164,4.8212,4.8292,4.8227,4.8227,4.8292,4.826,4.826,4.8608,4.9282,4.9837,4.9726,4.8767,5.0169,5.0227,4.9623,4.914,4.8963,4.8724,4.8312,4.7932,4.7572,4.7099,4.6721,4.6341,4.5943,4.5508,4.511,4.3987,4.3245,4.281,4.127,4.013,3.9731,3.9079,3.848,3.8408,3.8408,3.8427,3.8301,3.8209,3.8209,3.8209,3.8209,3.8209,3.8209,3.8209,3.8209,3.8209,3.8209,3.8209,3.8209,3.8209,3.8209,3.8209,3.8209,3.8305,3.8401,3.8478,3.8538,3.8664,3.877,3.8848,3.8892,3.8773,3.8935,3.9269,3.938,3.9367,3.9158,3.8832,3.8244,3.7411,3.7091,3.7204,3.7636,3.7981,3.8244,3.8488,3.9051,3.8988,3.8599,3.8776,3.8787,3.9313,3.9872,3.9927,3.9614,3.8773,3.8018,3.8037,3.8037,3.8037,3.8113,3.8018,3.8294,5.2233,5.2834,5.2576,5.2611,5.2835,5.2868,5.2803,5.2167,5.1145,5.0576,5.0123,4.9188,4.8488,4.8293,4.8389,4.842,4.8483,4.8675,4.8485,4.8389,4.85,4.85,4.8436,4.842,4.8483,4.8452,4.8356,4.85,4.8892,4.9474,4.9854,5.0297,5.082,5.0633,5.029,4.9956,4.9553,4.9275,4.8855,4.8442,4.8004,4.7588,4.7319,4.6703,4.6432,4.6087,4.5363,4.4494,4.3987,4.3914,4.2194,4.1017,4.0401,3.9713,3.9115,3.8808,3.9043,3.9007,3.8735,3.8462,3.8245,3.8227,3.8227,3.8281,3.8426,3.8263,3.8209,3.8281,3.8317,3.8209,3.8209,3.8209,3.8209,3.8209,3.8209,3.8242,3.8322,3.8401,3.8462,3.8491,3.8572,3.8637,3.867,3.8578,3.8713,3.9064,3.9296,3.9296,3.9302,3.9051,3.8694,3.8112,3.758,3.7655,3.8169,3.8469,3.8657,3.8694,3.8988,3.8538,3.7911,3.8286,3.9146,3.9307,3.9688,3.9993,4.0187,3.9432,3.8926,3.8916,3.8897,3.8916,3.8916,3.8916,3.9279,5.2469,5.2454,5.2771,5.2755,5.2404,5.2489,5.2017,5.1191,5.0584,5.0301,5.017,4.9616,4.9251,4.8971,4.8442,4.8388,4.8483,4.842,4.8405,4.85,4.8595,4.8675,4.8644,4.8644,4.869,4.8627,4.85,4.85,4.8832,4.9209,4.9636,5.0239,5.0959,5.1048,5.0798,5.0692,5.0361,4.9854,4.9582,4.9238,4.8619,4.8384,4.8061,4.7337,4.7246,4.7138,4.6667,4.549,4.5037,4.4295,4.2755,4.1813,4.1162,4.0474,3.993,3.955,3.9894,3.9804,3.9514,3.9134,3.8752,3.8263,3.8245,3.8426,3.8826,3.8553,3.8607,3.8625,3.8535,3.8427,3.8227,3.8227,3.8209,3.8209,3.8263,3.8299,3.846,3.8649,3.8682,3.886,3.8587,3.8419,3.8419,3.8387,3.859,3.8833,3.9078,3.9264,3.9302,3.9345,3.9045,3.8894,3.8425,3.835,3.8857,3.9007,3.9063,3.9026,3.9007,3.865,3.8293,3.8756,3.946,3.9505,3.9551,3.9903,4.0051,3.9939,3.9776,3.9613,3.9671,3.9804,3.9804,3.9709,3.9938,5.2186,5.1899,5.2387,5.2303,5.1932,5.242,5.1826,5.0591,5.0473,5.0023,4.9577,4.956,4.9448,4.9103,4.8672,4.8436,4.8532,4.8452,4.85,4.8564,4.8707,4.8801,4.8818,4.8832,4.8846,4.8832,4.8738,4.8707,4.8894,4.9209,4.9558,5.005,5.0634,5.0827,5.1311,5.1419,5.1249,5.0655,5.0401,4.9854,4.9094,4.8818,4.8456,4.7699,4.7373,4.7156,4.6649,4.5617,4.4838,4.424,4.3244,4.2122,4.1596,4.1216,4.0782,4.0655,4.0691,4.0764,4.0437,4.0057,3.9478,3.917,3.9043,3.9315,3.9387,3.9188,3.9387,3.9586,3.9224,3.879,3.8645,3.8645,3.8681,3.8788,3.8753,3.8808,3.9134,3.9365,3.9258,3.924,3.909,3.9185,3.8775,3.8823,3.8771,3.8947,3.9064,3.9296,3.9477,3.9514,3.9477,3.9401,3.9308,3.9383,3.957,3.9439,3.9308,3.9345,3.9345,3.942,3.9345,3.9608,3.9638,3.9611,3.9705,3.9905,3.9991,4.0024,4.0148,4.0244,4.0225,4.0148,4.0148,4.0034,4.011,5.1269,5.1219,5.1286,5.1269,5.1286,5.2757,5.2418,5.093,5.093,5.0291,4.9138,4.9036,4.8925,4.8748,4.8585,4.85,4.8627,4.8515,4.8564,4.8707,4.8769,4.8801,4.8863,4.8925,4.894,4.894,4.8846,4.8863,4.8987,4.9001,4.9303,4.9595,4.999,5.0619,5.153,5.2173,5.2004,5.1393,5.1307,5.0416,4.942,4.9144,4.8822,4.779,4.7246,4.7011,4.645,4.5218,4.444,4.4077,4.3372,4.2466,4.1904,4.1795,4.1397,4.0872,4.1379,4.1288,4.0655,4.0564,4.0437,4.0184,3.9912,4.0184,4.0383,4.0347,4.0293,4.0419,4.022,3.9912,3.9641,3.9369,3.9369,3.9369,3.9369,3.9441,3.9767,3.9912,3.9804,3.9749,4.0246,4.052,3.9816,3.9341,3.9124,3.9104,3.9138,3.9296,3.954,3.9608,3.9608,3.9608,3.9608,3.9608,3.9608,3.9608,3.957,3.9608,3.9608,3.9608,3.9608,3.9608,3.9644,3.9693,3.9796,3.9943,4.0067,4.0177,4.0244,4.032,4.032,4.0282,4.0301,4.032,4.032,5.093,5.0524,5.1014,5.0659,4.9965,5.0794,5.0659,4.9949,5.0185,5.0137,4.9719,4.9573,4.9527,4.9265,4.8669,4.842,4.8547,4.842,4.842,4.8769,4.8801,4.8863,4.8925,4.8987,4.9018,4.9001,4.8956,4.8956,4.9018,4.8956,4.8646,4.8784,4.9513,5.0409,5.1408,5.2162,5.2263,5.2136,5.1955,5.1375,4.9981,5.0035,4.9564,4.7898,4.7446,4.6975,4.6432,4.4928,4.4132,4.3932,4.3263,4.2755,4.2466,4.2411,4.2303,4.2049,4.2448,4.2375,4.2122,4.2013,4.1524,4.1017,4.0655,4.089,4.1162,4.0727,4.0836,4.1035,4.0908,4.0546,4.0166,4.013,4.013,4.013,4.013,4.0148,4.0293,4.0329,4.0311,4.0274,4.0561,4.0873,4.0565,4.0285,4.0048,3.9677,3.97,3.9466,3.9571,3.9608,3.9608,3.9608,3.9608,3.9608,3.9608,3.9608,3.9608,3.9608,3.9608,3.9608,3.9608,3.962,3.9656,3.9724,3.9815,3.9933,4.0077,4.0225,4.0282,4.032,4.032,4.032,4.032,4.032,4.032,5.0152,4.9813,5.0507,5.0135,4.9306,5.0321,5.0456,4.983,4.9763,4.9712,4.9664,4.9603,4.9491,4.9244,4.8832,4.8436,4.8564,4.8324,4.8483,4.8801,4.8738,4.8832,4.8956,4.9018,4.9018,4.9018,4.9018,4.9018,4.9018,4.9018,4.8829,4.8741,4.9136,5.0127,5.1175,5.1933,5.248,5.2408,5.2263,5.1828,5.0886,5.0488,5.0071,4.8768,4.7808,4.7011,4.6214,4.5164,4.3951,4.3625,4.3244,4.2919,4.2919,4.2919,4.2919,4.2919,4.2901,4.2883,4.281,4.2792,4.2194,4.1633,4.1343,4.1578,4.1958,4.1723,4.1778,4.1814,4.1506,4.1198,4.0963,4.0963,4.0908,4.0908,4.0908,4.0926,4.1289,4.1343,4.1343,4.1252,4.1429,4.151,4.1448,4.1245,4.1071,4.0643,4.0266,3.9993,3.9683,3.9614,3.9627,3.9608,3.9608,3.9608,3.9608,3.9608,3.9608,3.9608,3.9608,3.962,3.9638,3.9631,3.9684,3.9754,3.9856,3.9984,4.0137,4.0234,4.0291,4.032,4.032,4.032,4.032,4.032,4.032,4.9018,4.9103,4.9763,4.9661,4.9424,5.0997,5.1505,5.0898,4.9661,4.912,4.9052,4.9103,4.906,4.8916,4.8786,4.8755,4.8707,4.8405,4.8564,4.8753,4.8721,4.8815,4.894,4.9018,4.9018,4.9018,4.9018,4.9018,4.9001,4.8781,4.8748,4.8988,4.9292,5.0065,5.0935,5.186,5.232,5.2281,5.2371,5.181,5.1017,5.0728,5.0379,4.9383,4.8242,4.7138,4.616,4.5055,4.3878,4.33,4.2937,4.2919,4.2919,4.2919,4.2919,4.2919,4.2919,4.2919,4.2919,4.2919,4.2883,4.2448,4.2611,4.2847,4.2737,4.2538,4.252,4.2574,4.2411,4.2122,4.1886,4.1814,4.1759,4.1741,4.1723,4.2031,4.2484,4.2611,4.2592,4.2705,4.3005,4.3037,4.2699,4.2445,4.1983,4.17,4.1234,4.0725,4.0334,3.9671,3.9646,3.9608,3.9608,3.9608,3.9627,3.9664,3.9608,3.9608,3.962,3.9602,3.9631,3.9722,3.9754,3.9834,3.9908,4.0015,4.0195,4.0273,4.0291,4.032,4.032,4.032,4.032,4.032,4.032,4.9018,4.9035,4.9238,4.9204,4.912,4.9695,4.9813,4.9627,4.9644,4.9543,4.9018,4.9018,4.8987,4.8956,4.8849,4.8801,4.8707,4.8595,4.8627,4.869,4.8769,4.8846,4.894,4.9018,4.9018,4.9018,4.9018,4.9001,4.8866,4.8612,4.8663,4.8978,4.9288,4.993,5.0822,5.1866,5.1896,5.1955,5.219,5.1647,5.1235,5.1049,5.0705,4.9836,4.8731,4.7591,4.645,4.5055,4.3878,4.3118,4.2955,4.2919,4.2919,4.2919,4.2919,4.2919,4.2919,4.2919,4.2919,4.2919,4.2919,4.2919,4.2919,4.2919,4.2919,4.2919,4.2919,4.2919,4.2919,4.2556,4.2429,4.2393,4.2357,4.2339,4.2357,4.2592,4.301,4.3137,4.3155,4.336,4.3695,4.373,4.3469,4.3287,4.2854,4.2621,4.2246,4.1672,4.1098,4.0453,4.0078,4.0059,4.0021,4.0153,3.9852,3.9815,3.9683,3.9608,3.9827,3.9977,4.0005,4.0068,3.9928,3.996,4.0121,4.0194,4.0253,4.0301,4.032,4.032,4.032,4.032,4.032,4.032,4.032,4.9018,4.9052,4.9323,4.9424,4.9441,4.9441,4.9289,4.9154,4.9492,4.9373,4.9035,4.9018,4.9001,4.897,4.8925,4.8894,4.8863,4.8721,4.8721,4.8846,4.8849,4.8894,4.894,4.9018,4.9018,4.9018,4.9018,4.9001,4.8883,4.8697,4.868,4.8958,4.9221,4.9849,5.0612,5.1219,5.1429,5.1542,5.1574,5.1321,5.1194,5.0977,5.0379,5.0126,4.913,4.7935,4.6957,4.5399,4.4258,4.3389,4.319,4.2919,4.2919,4.2919,4.2919,4.2919,4.2919,4.2919,4.2919,4.2919,4.2919,4.2919,4.2919,4.2919,4.2919,4.2919,4.2919,4.2919,4.2919,4.2883,4.2901,4.2901,4.2901,4.2883,4.2955,4.3028,4.3209,4.339,4.3541,4.3742,4.389,4.4011,4.3957,4.3835,4.3726,4.3511,4.3173,4.2661,4.2093,4.1492,4.1135,4.1004,4.0872,4.0816,4.0478,4.034,4.0491,4.0628,4.0854,4.0898,4.0693,4.07,4.0859,4.0661,4.0405,4.0444,4.0473,4.0339,4.032,4.0358,4.0377,4.0339,4.0339,4.032,4.032,4.9018,4.9052,4.9712,4.9881,4.9982,4.9898,4.956,4.9035,4.9052,4.9018,4.9018,4.9018,4.9018,4.9001,4.897,4.8987,4.8956,4.8863,4.8846,4.897,4.8894,4.8925,4.897,4.9018,4.9018,4.9018,4.9018,4.9018,4.9018,4.8883,4.8832,4.8981,4.9044,4.9608,5.0576,5.0901,5.1221,5.1656,5.1339,5.0977,5.0705,5.0053,4.9293,4.9727,4.8876,4.7753,4.7301,4.6305,4.5001,4.4222,4.3661,4.3281,4.3137,4.3118,4.3118,4.3226,4.3353,4.3318,4.3262,4.3208,4.3009,4.2955,4.2919,4.2919,4.2919,4.2919,4.2919,4.2919,4.2919,4.2919,4.2919,4.2919,4.2919,4.3046,4.3154,4.3371,4.3643,4.403,4.4565,4.4651,4.4533,4.4628,4.4601,4.4496,4.412,4.4144,4.3975,4.3482,4.3125,4.2549,4.2117,4.1854,4.1554,4.1423,4.1441,4.1398,4.161,4.1779,4.1835,4.1814,4.1576,4.1692,4.1893,4.1483,4.0998,4.0778,4.0731,4.0568,4.0511,4.0597,4.0578,4.0425,4.0396,4.053,4.0377,4.9018,4.9018,4.9187,4.9255,4.9272,4.9255,4.9187,4.9018,4.9018,4.9018,4.9018,4.9018,4.9018,4.9018,4.9018,4.9018,4.8987,4.8987,4.8987,4.9001,4.8956,4.8956,4.9001,4.9018,4.9018,4.9018,4.9018,4.9018,4.9018,4.9018,4.9032,4.9077,4.9213,4.9894,5.0645,5.0852,5.1256,5.1782,5.0868,5.0434,5.0238,5.022,4.9945,4.9745,4.8967,4.817,4.7609,4.6757,4.5798,4.5073,4.4892,4.444,4.3878,4.3824,4.3806,4.3896,4.4258,4.4168,4.3914,4.3697,4.3462,4.3063,4.2955,4.2919,4.2919,4.2919,4.2919,4.2919,4.2919,4.2919,4.2919,4.2919,4.301,4.319,4.3407,4.3751,4.4133,4.4874,4.5589,4.552,4.5337,4.5219,4.519,4.4932,4.4613,4.4444,4.4407,4.4182,4.412,4.3675,4.2924,4.2586,4.2098,4.1967,4.2173,4.2361,4.2549,4.2431,4.2369,4.2373,4.2491,4.2386,4.2349,4.1996,4.1619,4.1447,4.1189,4.0817,4.0778,4.1036,4.1036,4.1017,4.1132,4.1285,4.0864,4.9018,4.9018,4.9018,4.9018,4.9018,4.9018,4.9018,4.9018,4.9018,4.9018,4.9018,4.9018,4.9018,4.9018,4.9018,4.9018,4.9018,4.9018,4.9018,4.9018,4.9018,4.9018,4.9018,4.9018,4.9018,4.9018,4.9018,4.9018,4.9069,4.9018,4.9032,4.9114,4.9488,4.993,5.0554,5.0857,5.1169,5.1823,5.0397,4.9745,4.9528,4.9347,4.9094,4.8822,4.8586,4.8061,4.7699,4.6975,4.6377,4.5761,4.5454,4.511,4.4693,4.4621,4.4621,4.4711,4.491,4.511,4.4693,4.4331,4.3987,4.357,4.3009,4.2991,4.2919,4.2919,4.2919,4.2919,4.2919,4.2919,4.2919,4.2919,4.3262,4.3552,4.3878,4.4222,4.5068,4.6028,4.6452,4.652,4.6118,4.5492,4.5326,4.489,4.4627,4.4501,4.4501,4.4613,4.4613,4.482,4.4069,4.3487,4.3131,4.3055,4.3375,4.3431,4.3412,4.3238,4.2978,4.341,4.3691,4.3118,4.2727,4.2688,4.2536,4.2173,4.1867,4.16,4.1657,4.1991,4.1877,4.1695,4.1877,4.2068,4.182,4.9018,4.9018,4.9018,4.9018,4.9018,4.9018,4.9018,4.9018,4.9018,4.9018,4.9018,4.9018,4.9018,4.9018,4.9018,4.9018,4.9018,4.9018,4.9018,4.9018,4.9018,4.9018,4.9018,4.9018,4.9018,4.9018,4.9018,4.9154,4.9289,4.9154,4.9069,4.9154,4.9362,4.9619,5.022,5.0172,5.0214,5.0744,5.0108,4.9126,4.8601,4.8131,4.8007,4.7826,4.7699,4.7699,4.7464,4.7153,4.6703,4.6377,4.6015,4.5671,4.5508,4.5436,4.5454,4.5544,4.578,4.5761,4.5417,4.4983,4.4603,4.415,4.348,4.3226,4.3226,4.3244,4.3244,4.3244,4.3263,4.3064,4.3064,4.3353,4.3751,4.4041,4.4403,4.5006,4.6094,4.7018,4.7206,4.7388,4.6843,4.6106,4.5715,4.5227,4.4965,4.482,4.4763,4.4801,4.497,4.5383,4.527,4.4857,4.4538,4.4557,4.4426,4.4257,4.4069,4.4076,4.3968,4.4568,4.4748,4.3923,4.3548,4.3834,4.3605,4.2985,4.287,4.2737,4.2851,4.2889,4.2488,4.2297,4.2765,4.2928,4.2947,4.9018,4.9018,4.9018,4.9018,4.9018,4.9018,4.9018,4.9018,4.9018,4.9018,4.9018,4.9018,4.9018,4.9018,4.9018,4.9018,4.9018,4.9018,4.9018,4.9018,4.9018,4.9018,4.9018,4.9018,4.9018,4.9018,4.9069,4.9323,4.9514,4.9283,4.9608,5.0452,4.9306,4.9829,5.1106,5.0682,4.9872,5.0281,4.9796,4.8764,4.8601,4.8185,4.7808,4.7699,4.7699,4.7699,4.7645,4.7551,4.75,4.7246,4.6776,4.6395,4.6269,4.6269,4.6287,4.6377,4.6631,4.6595,4.6287,4.5888,4.5544,4.5073,4.4603,4.453,4.4548,4.4566,4.4548,4.4494,4.4295,4.3679,4.3697,4.4349,4.482,4.4874,4.511,4.6192,4.73,4.7657,4.7846,4.7868,4.7649,4.7271,4.709,4.6659,4.6279,4.6167,4.6148,4.6148,4.604,4.6261,4.6377,4.6106,4.5768,4.512,4.4632,4.4627,4.4528,4.4643,4.4725,4.4902,4.481,4.438,4.4215,4.4484,4.4131,4.3501,4.3501,4.3749,4.3634,4.3539,4.3023,4.287,4.3443,4.3777,4.3787]}]]